[[{"header":{"parameterUnit":"m.s-1","parameterCategory":1,"la1":31.0,"la2":29.5877,"lo1":-88.7671,"lo2":-86.6584,"dy":0.0162,"dx":0.0185,"nx":115,"ny":88,"refTime":"2023-05-25T00:00:00:Z","depth":0,"parameterNumber":2,"parameterNumberName":"U-component_of_WINDS"},"data":[0.0,0.0,0.0,0.0,0.0,0.0,0.0,0.0,0.0,0.0,0.0,0.0,0.0,0.0,0.0,0.0,0.0,0.0,0.0,0.0,0.0,0.0,0.0,0.0,0.0,0.0,0.0,0.0,0.0,0.0,0.0,0.0,0.0,0.0,0.0,0.0,0.0,0.0,0.0,0.0,0.0,0.0,0.0,0.0,0.0,0.0,0.0,0.0,0.0,0.0,0.0,0.0,0.0,0.0,0.0,0.0,0.0,0.0,0.0,0.0,0.0,0.0,0.0,0.0,0.0,0.0,0.0,0.0,0.0,0.0,0.0,0.0,0.0,0.0,0.0,0.0,0.0,0.0,0.0,0.0,0.0,0.0,0.0,0.0,0.0,0.0,0.0,0.0,0.0,0.0,0.0,0.0,0.0,0.0,0.0,0.0,0.0,0.0,0.0,0.0,0.0,0.0,0.0,0.0,0.0,0.0,0.0,0.0,0.0,0.0,0.0,0.0,0.0,0.0,0.0,0.0,0.0,0.0,0.0,0.0,0.0,0.0,0.0,0.0,0.0,0.0,0.0,0.0,0.0,0.0,0.0,0.0,0.0,0.0,0.0,0.0,0.0,0.0,0.0,0.0,0.0,0.0,0.0,0.0,0.0,0.0,0.0,0.0,0.0,0.0,0.0,0.0,0.0,0.0,0.0,0.0,0.0,0.0,0.0,0.0,0.0,0.0,0.0,0.0,0.0,0.0,0.0,0.0,0.0,0.0,0.0,0.0,0.0,0.0,0.0,0.0,0.0,0.0,0.0,0.0,0.0,0.0,0.0,0.0,0.0,0.0,0.0,0.0,0.0,0.0,0.0,0.0,0.0,0.0,0.0,0.0,0.0,0.0,0.0,0.0,0.0,0.0,0.0,0.0,0.0,0.0,0.0,0.0,0.0,0.0,0.0,0.0,0.0,0.0,0.0,0.0,0.0,0.0,0.0,0.0,0.0,0.0,0.0,0.0,0.0,0.0,0.0,0.0,0.0,0.0,0.0,0.0,0.0,0.0,0.0,0.0,0.0,0.0,0.0,0.0,0.0,0.0,0.0,0.0,0.0,0.0,0.0,0.0,0.0,0.0,0.0,0.0,0.0,0.0,0.0,0.0,0.0,0.0,0.0,0.0,0.0,0.0,0.0,0.0,0.0,0.0,0.0,0.0,0.0,0.0,0.0,0.0,0.0,0.0,0.0,0.0,0.0,0.0,0.0,0.0,0.0,0.0,0.0,0.0,0.0,0.0,0.0,0.0,0.0,0.0,0.0,0.0,0.0,0.0,0.0,0.0,0.0,0.0,0.0,0.0,0.0,0.0,0.0,0.0,0.0,0.0,0.0,0.0,0.0,0.0,0.0,0.0,0.0,0.0,0.0,0.0,0.0,0.0,0.0,0.0,0.0,0.0,0.0,0.0,0.0,0.0,0.0,0.0,0.0,0.0,0.0,0.0,0.0,0.0,0.0,0.0,0.0,0.0,0.0,0.0,0.0,0.0,0.0,0.0,0.0,0.0,0.0,0.0,0.0,0.0,0.0,0.0,0.0,0.0,0.0,0.0,0.0,0.0,0.0,0.0,0.0,0.0,0.0,0.0,0.0,0.0,0.0,0.0,0.0,0.0,0.0,0.0,0.0,0.0,0.0,0.0,0.0,0.0,0.0,0.0,0.0,0.0,0.0,0.0,0.0,0.0,0.0,0.0,0.0,0.0,0.0,0.0,0.0,0.0,0.0,0.0,0.0,0.0,0.0,0.0,0.0,0.0,0.0,0.0,0.0,0.0,0.0,0.0,0.0,0.0,0.0,0.0,0.0,0.0,0.0,0.0,0.0,0.0,0.0,0.0,0.0,0.0,0.0,0.0,0.0,0.0,0.0,0.0,0.0,0.0,0.0,0.0,0.0,0.0,0.0,0.0,0.0,0.0,0.0,0.0,0.0,0.0,0.0,0.0,0.0,0.0,0.0,0.0,0.0,0.0,0.0,0.0,0.0,0.0,0.0,0.0,0.0,0.0,0.0,0.0,0.0,0.0,0.0,0.0,0.0,0.0,0.0,0.0,0.0,0.0,0.0,0.0,0.0,0.0,0.0,0.0,0.0,0.0,0.0,0.0,0.0,0.0,0.0,0.0,0.0,0.0,0.0,0.0,0.0,0.0,0.0,0.0,0.0,0.0,0.0,0.0,0.0,0.0,0.0,0.0,0.0,0.0,0.0,0.0,0.0,0.0,0.0,0.0,0.0,0.0,0.0,0.0,0.0,0.0,0.0,0.0,0.0,0.0,0.0,0.0,0.0,0.0,0.0,0.0,0.0,0.0,0.0,0.0,0.0,0.0,0.0,0.0,0.0,0.0,0.0,0.0,0.0,0.0,0.0,0.0,0.0,0.0,0.0,0.0,0.0,0.0,0.0,0.0,0.0,0.0,0.0,0.0,0.0,0.0,0.0,0.0,0.0,0.0,0.0,0.0,0.0,0.0,0.0,0.0,0.0,0.0,0.0,0.0,0.0,0.0,0.0,0.0,0.0,0.0,0.0,0.0,0.0,0.0,0.0,0.0,0.0,0.0,0.0,0.0,0.0,0.0,0.0,0.0,0.0,0.0,0.0,0.0,0.0,0.0,0.0,0.0,0.0,0.0,0.0,0.0,0.0,0.0,0.0,0.0,0.0,0.0,0.0,0.0,0.0,0.0,0.0,0.0,0.0,0.0,0.0,0.0,0.0,0.0,0.0,0.0,0.0,0.0,0.0,0.0,0.0,0.0,0.0,0.0,0.0,0.0,0.0,0.0,0.0,0.0,0.0,0.0,0.0,0.0,0.0,0.0,0.0,0.0,0.0,0.0,0.0,0.0,0.0,0.0,0.0,0.0,0.0,0.0,0.0,0.0,0.0,0.0,0.0,0.0,0.0,0.0,0.0,0.0,0.0,0.0,0.0,0.0,0.0,0.0,0.0,0.0,0.0,0.0,0.0,0.0,0.0,0.0,0.0,0.0,0.0,0.0,0.0,0.0,0.0,0.0,0.0,0.0,0.0,0.0,0.0,0.0,0.0,0.0,0.0,0.0,0.0,0.0,0.0,0.0,0.0,0.0,0.0,0.0,0.0,0.0,0.0,0.0,0.0,0.0,0.0,0.0,0.0,0.0,0.0,0.0,0.0,0.0,0.0,0.0,0.0,0.0,0.0,0.0,0.0,0.0,0.0,0.0,0.0,0.0,0.0,0.0,0.0,0.0,0.0,0.0,0.0,0.0,0.0,0.0,0.0,0.0,0.0,0.0,0.0,0.0,0.0,0.0,0.0,0.0,0.0,0.0,0.0,0.0,0.0,0.0,0.0,0.0,0.0,0.0,0.0,0.0,0.0,0.0,0.0,0.0,0.0,0.0,0.0,0.0,0.0,0.0,0.0,0.0,0.0,0.0,0.0,0.0,0.0,0.0,0.0,0.0,0.0,0.0,0.0,0.0,0.0,0.0,0.0,0.0,0.0,0.0,0.0,0.0,0.0,0.0,0.0,0.0,0.0,0.0,0.0,0.0,0.0,0.0,0.0,0.0,0.0,0.0,0.0,0.0,0.0,0.0,0.0,0.0,0.0,0.0,0.0,0.0,0.0,0.0,0.0,0.0,0.0,0.0,0.0,0.0,0.0,0.0,0.0,0.0,0.0,0.0,0.0,0.0,0.0,0.0,0.0,0.0,0.0,0.0,0.0,0.0,0.0,0.0,0.0,0.0,0.0,0.0,0.0,0.0,0.0,0.0,0.0,0.0,0.0,0.0,0.0,0.0,0.0,0.0,0.0,0.0,0.0,0.0,0.0,0.0,0.0,0.0,0.0,0.0,0.0,0.0,0.0,0.0,0.0,0.0,0.0,0.0,0.0,0.0,0.0,0.0,0.0,0.0,0.0,0.0,0.0,0.0,0.0,0.0,0.0,0.0,0.0,0.0,0.0,0.0,0.0,0.0,0.0,0.0,0.0,0.0,0.0,0.0,0.0,0.0,0.0,0.0,0.0,0.0,0.0,0.0,0.0,0.0,0.0,0.0,0.0,0.0,0.0,0.0,0.0,0.0,0.0,0.0,0.0,0.0,0.0,0.0,0.0,0.0,0.0,0.0,0.0,0.0,0.0,0.0,0.0,0.0,0.0,0.0,0.0,0.0,0.0,0.0,0.0,0.0,0.0,0.0,0.0,0.0,0.0,0.0,0.0,0.0,0.0,0.0,0.0,0.0,0.0,0.0,0.0,0.0,0.0,0.0,0.0,0.0,0.0,0.0,-0.2921,0.0,0.0,0.0,0.0,0.0,0.0,0.0,0.0,0.0,0.0,0.0,0.0,0.0,0.0,0.0,0.0,0.0,0.0,0.0,0.0,0.0,0.0,0.0,0.0,0.0,0.0,0.0,0.0,0.0,0.0,0.0,0.0,0.0,0.0,0.0,0.0,0.0,0.0,0.0,0.0,0.0,0.0,0.0,0.0,0.0,0.0,0.0,0.0,0.0,0.0,0.0,0.0,0.0,0.0,0.0,0.0,0.0,0.0,0.0,0.0,0.0,0.0,0.0,0.0,0.0,0.0,0.0,0.0,0.0,0.0,0.0,0.0,0.0,0.0,0.0,0.0,0.0,0.0,0.0,0.0,0.0,0.0,0.0,0.0,0.0,0.0,0.0,0.0,0.0,0.0,0.0,0.0,0.0,0.0,0.0,0.0,0.0,0.0,0.0,0.0,0.0,0.0,0.0,0.0,0.0,0.0,0.0,0.0,0.0,0.0,-0.1902,-0.2291,-0.2915,-0.363,-0.4458,0.0,0.0,0.0,0.0,0.0,0.0,0.0,0.0,0.0,0.0,0.0,0.0,0.0,0.0,0.0,0.0,0.0,0.0,0.0,0.0,0.0,0.0,0.0,0.0,0.0,0.0,0.0,0.0,0.0,0.0,0.0,0.0,0.0,0.0,0.0,0.0,0.0,0.0,0.0,0.0,0.0,0.0,0.0,0.0,0.0,0.0,0.0,0.0,0.0,0.0,0.0,0.0,0.0,0.0,0.0,0.0,0.0,0.0,0.0,0.0,0.0,0.0,0.0,0.0,0.0,0.0,0.0,0.0,0.0,0.0,0.0,0.0,0.0,0.0,0.0,0.0,0.0,0.0,0.0,0.0,0.0,0.0,0.0,0.0,0.0,0.0,0.0,0.0,0.0,0.0,0.0,0.0,0.0,0.0,0.0,0.0,0.0,0.0,0.0,0.0,0.0,0.0,0.0,0.0,0.0,0.0,0.0,0.0,0.0,0.0,0.0,0.0,-0.4191,-0.4956,-0.5864,0.0,0.0,0.0,0.0,0.0,0.0,0.0,0.0,0.0,0.0,0.0,0.0,0.0,0.0,0.0,0.0,0.0,0.0,0.0,0.0,0.0,0.0,0.0,0.0,0.0,0.0,0.0,0.0,0.0,0.0,0.0,0.0,0.0,0.0,0.0,0.0,0.0,0.0,0.0,0.0,0.0,0.0,0.0,0.0,0.0,0.0,0.0,0.0,0.0,0.0,0.0,0.0,0.0,0.0,0.0,0.0,0.0,0.0,0.0,0.0,0.0,0.0,0.0,0.0,0.0,0.0,0.0,0.0,0.0,0.0,0.0,0.0,0.0,0.0,0.0,0.0,0.0,0.0,0.0,0.0,0.0,0.0,0.0,0.0,0.0,0.0,0.0,0.0,0.0,0.0,0.0,0.0,0.0,0.0,0.0,0.0,0.0,0.0,0.0,0.0,0.0,0.0,0.0,0.0,0.0,0.0,0.0,0.0,0.0,0.0,-0.456,-0.5304,-0.5471,0.0,-0.6963,0.0,0.0,0.0,0.0,0.0,0.0,0.0,0.0,0.0,0.0,0.0,0.0,0.0,0.0,0.0,0.0,0.0,0.0,0.0,0.0,0.0,0.0,0.0,0.0,0.0,0.0,0.0,0.0,0.0,0.0,0.0,0.0,0.0,0.0,0.0,0.0,0.0,0.0,0.0,0.0,0.0,0.0,0.0,0.0,0.0,0.0,0.0,0.0,0.0,0.0,0.0,0.0,0.0,0.0,0.0,0.0,0.0,0.0,0.0,0.0,0.0,0.0,0.0,0.0,0.0,0.0,0.0,0.0,0.0,0.0,0.0,0.0,0.0,0.0,0.0,0.0,0.0,0.0,0.0,0.0,0.0,0.0,0.0,0.0,0.0,0.0,0.0,0.0,0.0,0.0,0.0,0.0,0.0,0.0,0.0,0.0,0.0,0.0,0.0,0.0,0.0,0.0,0.0,0.0,0.0,0.0,0.0,0.0,0.0,0.0,-0.5614,-0.6668,-0.7146,-0.7527,0.0,0.0,0.0,0.0,0.0,0.0,0.0,0.0,0.0,0.0,0.0,0.0,0.0,0.0,0.0,0.0,0.0,0.0,0.0,0.0,0.0,0.0,0.0,0.0,0.0,0.0,0.0,0.0,0.0,0.0,0.0,0.0,0.0,0.0,0.0,0.0,0.0,0.0,0.0,0.0,0.0,0.0,0.0,0.0,0.0,0.0,0.0,0.0,0.0,0.0,0.0,0.0,0.0,0.0,0.0,0.0,0.0,0.0,0.0,0.0,0.0,0.0,0.0,0.0,0.0,0.0,0.0,0.0,0.0,0.0,0.0,0.0,0.0,0.0,0.0,0.0,0.0,0.0,0.0,0.0,0.0,0.0,0.0,0.0,0.0,0.0,0.0,0.0,0.0,0.0,0.0,0.0,0.0,0.0,0.0,0.0,0.0,0.0,0.0,0.0,0.0,0.0,0.0,0.0,0.0,0.0,0.0,0.0,0.0,0.0,-0.6145,-0.6809,-0.7461,-0.823,-0.8506,-0.8238,0.0,0.0,0.0,0.0,0.0,0.0,0.0,0.0,0.0,0.0,0.0,0.0,0.0,0.0,0.0,0.0,0.0,0.0,0.0,0.0,0.0,0.0,0.0,0.0,0.0,0.0,0.0,0.0,0.0,0.0,0.0,0.0,0.0,0.0,0.0,0.0,0.0,0.0,0.0,0.0,0.0,0.0,0.0,0.0,0.0,0.0,0.0,0.0,0.0,0.0,0.0,0.0,0.0,0.0,0.0,0.0,0.0,0.0,0.0,0.0,0.0,0.0,0.0,0.0,0.0,0.0,0.0,0.0,0.0,0.0,0.0,0.0,0.0,0.0,0.0,0.0,0.0,0.0,0.0,0.0,0.0,0.0,0.0,0.0,0.0,0.0,0.0,0.0,0.0,0.0,0.0,0.0,0.0,0.0,0.0,0.0,0.0,0.0,0.0,0.0,0.0,0.0,0.0,0.0,0.0,0.0,0.0,0.0,-0.756,-0.8294,-0.8394,-0.77,-0.8333,-0.8615,0.0,0.0,0.0,0.0,0.0,0.0,0.0,0.0,0.0,0.0,0.0,0.0,0.0,0.0,0.0,0.0,0.0,0.0,0.0,0.0,0.0,0.0,0.0,0.0,0.0,0.0,0.0,0.0,0.0,0.0,0.0,0.0,0.0,0.0,0.0,0.0,0.0,0.0,0.0,0.0,0.0,0.0,0.0,0.0,0.0,0.0,0.0,0.0,0.0,0.0,0.0,0.0,0.0,0.0,0.0,0.0,0.0,0.0,0.0,0.0,0.0,0.0,0.0,0.0,0.0,0.0,0.0,0.0,0.0,0.0,0.0,0.0,0.0,0.0,0.0,0.0,0.0,0.0,0.0,0.0,0.0,0.0,0.0,0.0,0.0,0.0,0.0,0.0,0.0,0.0,0.0,0.0,0.0,0.0,0.0,0.0,0.0,0.0,0.0,0.0,0.0,0.0,0.0,0.0,0.0,0.0,0.0,0.0,0.0,-0.9283,-0.9739,-0.9272,-0.7923,-0.8712,-0.8907,0.0,0.0,0.0,0.0,0.0,0.0,0.0,0.0,0.0,0.0,0.0,0.0,0.0,0.0,0.0,0.0,0.0,0.0,0.0,0.0,0.0,0.0,0.0,0.0,0.0,0.0,0.0,0.0,0.0,0.0,0.0,0.0,0.0,0.0,0.0,0.0,0.0,0.0,0.0,0.0,0.0,0.0,0.0,0.0,0.0,0.0,0.0,0.0,0.0,0.0,0.0,0.0,0.0,0.0,0.0,0.0,0.0,0.0,0.0,0.0,0.0,0.0,0.0,0.0,0.0,0.0,0.0,0.0,0.0,0.0,0.0,0.0,0.0,0.0,0.0,0.0,0.0,0.0,0.0,0.0,0.0,0.0,0.0,0.0,0.0,0.0,0.0,0.0,0.0,0.0,0.0,0.0,0.0,0.0,0.0,0.0,0.0,0.0,0.0,0.0,0.0,0.0,0.0,0.0,0.0,0.0,0.0,0.0,0.0,-1.012,0.0,-0.9406,-0.8035,-0.8696,-0.8958,0.0,0.0,0.0,0.0,0.0,0.0,0.0,0.0,0.0,0.0,0.0,0.0,0.0,0.0,0.0,0.0,0.0,0.0,0.0,0.0,0.0,0.0,0.0,0.0,0.0,0.0,0.0,0.0,0.0,0.0,0.0,0.0,0.0,0.0,0.0,0.0,0.0,0.0,0.0,0.0,0.0,0.0,0.0,0.0,0.0,0.0,0.0,0.0,0.0,0.0,0.0,0.0,0.0,0.0,0.0,0.0,0.0,0.0,0.0,0.0,0.0,0.0,0.0,0.0,0.0,0.0,0.0,0.0,0.0,0.0,0.0,0.0,0.0,0.0,0.0,0.0,0.0,0.0,0.0,0.0,0.0,0.0,0.0,0.0,0.0,0.0,0.0,0.0,0.0,0.0,0.0,0.0,0.0,0.0,0.0,0.0,0.0,0.0,0.0,0.0,0.0,0.0,0.0,0.0,0.0,0.0,0.0,0.0,-1.0707,-0.9924,-0.9503,-0.8842,-0.7955,-0.8362,-0.873,0.0,0.0,0.0,0.0,0.0,0.0,0.0,0.0,0.0,0.0,0.0,0.0,0.0,0.0,0.0,0.0,0.0,0.0,0.0,0.0,0.0,0.0,0.0,0.0,0.0,0.0,0.0,0.0,0.0,0.0,0.0,0.0,0.0,0.0,0.0,0.0,0.0,0.0,0.0,0.0,0.0,0.0,0.0,0.0,0.0,0.0,0.0,0.0,0.0,0.0,0.0,0.0,0.0,0.0,0.0,0.0,0.0,0.0,0.0,0.0,0.0,0.0,0.0,0.0,0.0,0.0,0.0,0.0,0.0,0.0,0.0,0.0,0.0,0.0,0.0,0.0,0.0,0.0,0.0,0.0,0.0,0.0,0.0,0.0,0.0,0.0,0.0,0.0,0.0,0.0,0.0,0.0,0.0,0.0,0.0,0.0,0.0,0.0,0.0,0.0,0.0,0.0,0.0,0.0,0.0,0.0,0.0,0.0,0.0,-0.9613,-0.9179,-0.8583,-0.7812,-0.8803,-0.9035,0.0,0.0,0.0,0.0,0.0,0.0,0.0,0.0,0.0,0.0,0.0,0.0,0.0,0.0,0.0,0.0,0.0,0.0,0.0,0.0,0.0,0.0,0.0,0.0,0.0,0.0,0.0,0.0,0.0,0.0,0.0,0.0,0.0,0.0,0.0,0.0,0.0,0.0,0.0,0.0,0.0,0.0,0.0,0.0,0.0,0.0,0.0,0.0,0.0,0.0,0.0,0.0,0.0,0.0,0.0,0.0,0.0,0.0,0.0,0.0,0.0,0.0,0.0,0.0,0.0,0.0,0.0,0.0,0.0,0.0,0.0,0.0,0.0,0.0,0.0,0.0,0.0,0.0,0.0,0.0,0.0,0.0,0.0,0.0,0.0,0.0,0.0,0.0,0.0,0.0,0.0,0.0,0.0,0.0,0.0,0.0,0.0,0.0,0.0,0.0,0.0,0.0,0.0,0.0,0.0,0.0,0.0,0.0,0.0,-0.7251,-0.7721,-0.7771,-0.7328,-0.8377,-0.8568,-0.7774,0.0,0.0,0.0,0.0,0.0,0.0,0.0,0.0,0.0,0.0,0.0,0.0,0.0,0.0,0.0,0.0,0.0,0.0,0.0,0.0,0.0,0.0,0.0,0.0,0.0,0.0,0.0,0.0,0.0,0.0,0.0,0.0,0.0,0.0,0.0,0.0,0.0,0.0,0.0,0.0,0.0,0.0,0.0,0.0,0.0,0.0,0.0,0.0,0.0,0.0,0.0,0.0,0.0,0.0,0.0,0.0,0.0,0.0,0.0,0.0,0.0,0.0,0.0,0.0,0.0,0.0,0.0,0.0,0.0,0.0,0.0,0.0,0.0,0.0,0.0,0.0,0.0,0.0,0.0,0.0,0.0,0.0,0.0,0.0,0.0,0.0,0.0,0.0,0.0,0.0,0.0,0.0,0.0,0.0,0.0,0.0,0.0,0.0,0.0,0.0,0.0,0.0,0.0,0.0,0.0,0.0,0.0,0.0,-0.3316,-0.5236,-0.6222,-0.6433,-0.7057,-0.7348,0.0,0.0,0.0,0.0,0.0,0.0,0.0,0.0,0.0,0.0,0.0,0.0,0.0,0.0,0.0,0.0,0.0,0.0,0.0,0.0,0.0,0.0,0.0,0.0,0.0,0.0,0.0,0.0,0.0,0.0,0.0,0.0,0.0,0.0,0.0,0.0,0.0,0.0,0.0,0.0,0.0,0.0,0.0,0.0,0.0,0.0,0.0,0.0,0.0,0.0,0.0,0.0,0.0,0.0,0.0,0.0,0.0,0.0,0.0,0.0,0.0,0.0,0.0,0.0,0.0,0.0,0.0,0.0,0.0,0.0,0.0,0.0,0.0,0.0,0.0,0.0,0.0,0.0,0.0,0.0,0.0,0.0,0.0,0.0,0.0,0.0,0.0,0.0,0.0,0.0,0.0,0.0,0.0,0.0,0.0,0.0,0.0,0.0,0.0,0.0,0.0,0.0,0.0,0.0,0.0,0.0,0.0,0.0,0.0,-0.0301,-0.1107,-0.2396,-0.4128,-0.5237,-0.5401,0.0,0.0,0.0,0.0,0.0,0.0,0.0,0.0,0.0,0.0,0.0,0.0,0.0,0.0,0.0,0.0,0.0,0.0,0.0,0.0,0.0,0.0,0.0,0.0,0.0,0.0,0.0,0.0,0.0,0.0,0.0,0.0,0.0,0.0,0.0,0.0,0.0,0.0,0.0,0.0,0.0,0.0,0.0,0.0,0.0,0.0,0.0,0.0,0.0,0.0,0.0,0.0,0.0,0.0,0.0,0.0,0.0,0.0,0.0,0.0,0.0,0.0,0.0,0.0,0.0,0.0,0.0,0.0,0.0,0.0,0.0,0.0,0.0,0.0,0.0,0.0,0.0,0.0,0.0,0.0,0.0,0.0,0.0,0.0,0.0,0.0,0.0,0.0,0.0,0.0,0.0,0.0,0.0,0.0,0.0,0.0,0.0,0.0,0.0,0.0,0.0,0.0,0.0,0.0,0.0,0.0,0.0,0.0,0.1928,0.2486,0.2596,0.1891,0.0099,-0.1961,-0.2794,0.0,0.0,0.0,0.0,0.0,0.0,0.0,0.0,0.0,0.0,0.0,0.0,0.0,0.0,0.0,0.0,0.0,0.0,0.0,0.0,0.0,0.0,0.0,0.0,0.0,0.0,0.0,0.0,0.0,0.0,0.0,0.0,0.0,0.0,0.0,0.0,0.0,0.0,0.0,0.0,0.0,0.0,0.0,0.0,0.0,0.0,0.0,0.0,0.0,0.0,0.0,0.0,0.0,0.0,0.0,0.0,0.0,0.0,0.0,0.0,0.0,0.0,0.0,0.0,0.0,0.0,0.0,0.0,0.0,0.0,0.0,0.0,0.0,0.0,0.0,0.0,0.0,0.0,0.0,0.0,0.0,0.0,0.0,0.0,0.0,0.0,0.0,0.0,0.0,0.0,0.0,0.0,0.0,0.0,0.0,0.0,0.0,0.0,0.0,0.0,0.0,0.0,0.0,0.0,0.0,0.0,0.0,0.0,0.503,0.5178,0.6079,0.6024,0.5142,0.2054,0.0171,0.0,0.0,0.0,0.0,0.0,0.0,0.0,0.0,0.0,0.0,0.0,0.0,0.0,0.0,0.0,0.0,0.0,0.0,0.0,0.0,0.0,0.0,0.0,0.0,0.0,0.0,0.0,0.0,0.0,0.0,0.0,0.0,0.0,0.0,0.0,0.0,0.0,0.0,0.0,0.0,0.0,0.0,0.0,0.0,0.0,0.0,0.0,0.0,0.0,0.0,0.0,0.0,0.0,0.0,0.0,0.0,0.0,0.0,0.0,0.0,0.0,0.0,0.0,0.0,0.0,0.0,0.0,0.0,0.0,0.0,0.0,0.0,0.0,0.0,0.0,0.0,0.0,0.0,0.0,0.0,0.0,0.0,0.0,0.0,0.0,0.0,0.0,0.0,0.0,0.0,0.0,0.0,0.0,0.0,0.0,0.0,0.0,0.0,0.0,0.0,0.0,0.0,0.0,0.0,0.0,0.0,0.0,0.0,0.7111,0.8408,0.8659,0.866,0.8419,0.4968,0.3057,0.0,0.0,0.0,0.0,0.0,0.0,0.0,0.0,0.0,0.0,0.0,0.0,0.0,0.0,0.0,0.0,0.0,0.0,0.0,0.0,0.0,0.0,0.0,0.0,0.0,0.0,0.0,0.0,0.0,0.0,0.0,0.0,0.0,0.0,0.0,0.0,0.0,0.0,0.0,0.0,0.0,0.0,0.0,0.0,0.0,0.0,0.0,0.0,1.0376,0.0,0.0,0.0,0.0,0.0,0.0,0.0,0.0,0.0,0.0,0.0,0.0,0.0,0.0,0.0,0.0,0.0,0.0,0.0,0.0,0.0,0.0,0.0,0.0,0.0,0.0,0.0,0.0,0.0,0.0,0.0,0.0,0.0,0.0,0.0,0.0,0.0,0.0,0.0,0.0,0.0,0.0,0.0,0.0,0.0,0.0,0.0,0.0,0.0,0.0,0.0,0.0,0.0,0.0,0.0,0.0,0.0,0.0,0.0,0.9294,1.0393,1.0701,1.0696,1.0494,0.8388,0.6582,0.0,0.0,0.0,0.0,0.0,0.0,0.0,0.0,0.0,0.0,0.0,0.0,0.0,0.0,0.0,0.0,0.0,0.0,0.0,0.0,0.0,0.0,0.0,0.0,0.0,0.0,0.0,0.0,0.0,0.0,0.0,0.0,0.0,0.0,0.0,0.0,0.0,0.0,0.0,0.0,0.0,0.0,0.0,0.0,0.0,0.0,0.0,0.0,0.0,0.0,0.0,0.0,0.0,0.0,0.0,0.0,0.0,0.0,0.0,0.0,0.0,0.0,0.0,0.0,0.0,0.0,0.0,0.0,0.0,0.0,0.0,0.0,0.0,0.0,0.0,0.0,0.0,0.0,0.0,0.0,0.0,0.0,0.0,0.0,0.0,0.0,0.0,0.0,0.0,0.0,0.0,0.0,0.0,0.0,0.0,0.0,0.0,0.0,0.0,0.0,0.0,0.0,0.0,0.0,0.0,0.0,0.0,0.9674,1.1094,1.1837,1.2175,1.2189,1.2026,1.138,0.9871,0.7489,0.0,0.0,0.0,0.0,0.0,0.0,0.0,0.0,0.0,0.0,0.0,0.0,0.0,0.0,0.0,0.0,0.0,0.0,0.0,0.0,0.0,0.0,0.0,0.0,0.0,0.0,0.0,0.0,0.0,0.0,0.0,0.0,0.0,0.0,0.0,0.0,0.0,0.0,1.5184,1.455,0.0,0.0,0.0,0.0,0.0,0.0,0.0,0.0,1.2025,0.0,0.0,0.0,0.0,0.0,0.0,0.0,0.0,0.0,0.0,0.0,0.0,0.0,0.0,0.0,0.0,0.0,0.0,0.0,0.0,0.0,0.0,0.0,0.0,0.0,0.0,0.0,0.0,0.0,0.0,0.0,0.0,0.0,0.0,0.0,0.0,0.0,0.0,0.0,0.0,0.0,0.0,0.0,0.0,0.0,0.0,0.0,0.0,0.0,0.0,0.0,0.0,0.0,0.0,0.0,0.0,1.059,1.0657,1.1331,1.2706,1.2683,1.2764,1.283,1.2143,1.1019,0.9397,0.0,0.0,0.0,0.0,0.0,0.0,0.0,0.0,0.0,0.0,0.0,0.0,0.0,0.0,0.0,0.0,0.0,0.0,0.0,0.0,0.0,0.0,0.0,0.0,0.0,0.0,0.0,0.0,0.0,0.0,0.0,0.0,0.0,0.0,0.0,0.0,0.0,0.0,0.0,1.6883,1.6683,0.0,0.0,0.0,0.0,0.0,0.0,0.0,0.0,1.0949,0.0,0.0,0.0,0.0,0.0,0.0,0.0,0.0,0.0,0.0,0.0,0.0,0.0,0.0,0.0,0.0,0.0,0.0,0.0,0.0,0.0,0.0,0.0,0.0,0.0,0.0,0.0,0.0,0.0,0.0,0.0,0.0,0.0,0.0,0.0,0.0,0.0,0.0,0.0,0.0,0.0,0.0,0.0,0.0,0.0,0.0,0.0,0.0,0.0,0.0,0.0,0.0,0.0,0.0,0.0,1.033,1.1801,1.2767,1.3206,1.3335,1.3269,1.3146,1.2271,1.1209,0.0,0.0,0.0,0.0,0.0,0.0,0.0,0.0,0.0,0.0,0.0,0.0,0.0,0.0,0.0,0.0,0.0,0.0,0.0,0.0,0.0,0.0,0.0,0.0,0.0,0.0,0.0,0.0,0.0,0.0,0.0,0.0,0.0,0.0,0.0,0.0,0.0,0.0,0.0,0.0,1.8415,1.8584,1.8523,0.0,0.0,0.0,0.0,0.0,0.0,1.3614,1.2244,0.0,0.0,0.0,0.0,0.0,0.0,0.0,0.0,0.0,0.0,0.0,0.0,0.0,0.0,0.0,0.0,0.0,0.0,0.0,0.0,0.0,0.0,0.0,0.0,0.0,0.0,0.0,0.0,0.0,0.0,0.0,0.0,0.0,0.0,0.0,0.0,0.0,0.0,0.0,0.0,0.0,0.0,0.0,0.0,0.0,0.0,0.0,0.0,0.0,0.0,0.0,0.0,0.0,0.0,0.0,1.0023,1.2496,1.3664,1.3392,1.3602,1.3491,1.31,1.2271,1.1371,0.0,0.0,0.0,0.0,0.0,0.0,0.0,0.0,0.0,0.0,0.0,0.0,0.0,0.0,0.0,0.0,0.0,0.0,0.0,0.0,0.0,0.0,0.0,0.0,0.0,0.0,0.0,0.0,0.0,0.0,0.0,0.0,0.0,0.0,0.0,0.0,0.0,0.0,0.0,0.0,0.0,1.9989,1.9687,1.8733,0.0,0.0,0.0,0.0,1.5732,1.5144,0.0,0.0,0.0,0.0,0.0,0.0,0.0,0.0,0.0,0.0,0.0,0.0,0.0,0.0,0.0,0.0,0.0,0.0,0.0,0.0,0.0,0.0,0.0,0.0,0.0,0.0,0.0,0.0,0.0,0.0,0.0,0.0,0.0,0.0,0.0,0.0,0.0,0.0,0.0,0.0,0.0,0.0,0.0,0.0,0.0,0.0,0.0,0.0,0.0,0.0,0.0,0.0,0.0,0.0,0.0,0.0,1.162,1.2513,1.3079,1.3161,1.3269,1.3191,1.2564,1.2723,1.2079,0.0,0.0,0.0,0.0,0.0,0.0,0.0,0.0,0.0,0.0,0.0,0.0,0.0,0.0,0.0,0.0,0.0,0.0,0.0,0.0,0.0,0.0,0.0,0.0,0.0,0.0,0.0,0.0,0.0,0.0,0.0,0.0,0.0,0.0,0.0,0.0,0.0,0.0,0.0,0.0,0.0,2.0491,1.9716,1.9473,1.9062,0.0,0.0,1.7778,1.7287,1.6551,0.0,0.0,0.0,0.0,0.0,0.0,0.0,0.0,0.0,0.0,0.0,0.0,0.0,0.0,0.0,0.0,0.0,0.0,0.0,0.0,0.0,0.0,0.0,0.0,0.0,0.0,0.0,0.0,0.0,0.0,0.0,0.0,0.0,0.0,0.0,0.0,0.0,0.0,0.0,0.0,0.0,0.0,0.0,0.0,0.0,0.0,0.0,0.0,0.0,0.0,0.0,0.0,0.0,0.0,0.0,1.1695,1.2456,1.4379,1.4677,1.3486,1.3884,1.3633,1.253,1.2484,1.1793,0.0,0.0,0.0,0.0,0.0,0.0,0.0,0.0,0.0,0.0,0.0,0.0,0.0,0.0,0.0,0.0,0.0,0.0,0.0,0.0,0.0,0.0,0.0,0.0,0.0,0.0,0.0,0.0,0.0,0.0,0.0,0.0,0.0,0.0,0.0,0.0,0.0,0.0,0.0,0.0,0.0,0.0,2.0207,1.9991,0.0,0.0,0.0,1.888,1.8413,0.0,0.0,0.0,0.0,0.0,0.0,0.0,0.0,0.0,0.0,0.0,0.0,0.0,0.0,0.0,0.0,0.0,0.0,0.0,0.0,0.0,0.0,0.0,0.0,0.0,0.0,0.0,0.0,0.0,0.0,0.0,0.0,0.0,0.0,0.0,0.0,0.0,0.0,0.0,0.0,0.0,0.0,0.0,0.0,0.0,0.0,0.0,0.0,0.0,0.0,0.0,0.0,0.0,0.0,0.0,0.0,0.0,1.3462,1.5744,1.604,1.4305,1.4548,1.4097,1.2891,1.2674,0.0,0.0,0.0,0.0,0.0,0.0,0.0,0.0,0.0,0.0,0.0,0.0,0.0,0.0,0.0,0.0,0.0,0.0,0.0,0.0,0.0,0.0,0.0,0.0,0.0,0.0,0.0,1.9843,0.0,0.0,0.0,0.0,0.0,0.0,0.0,0.0,0.0,0.0,0.0,0.0,0.0,0.0,2.1117,2.0961,2.0895,2.0844,0.0,0.0,2.0058,1.9361,1.8831,1.7909,0.0,0.0,0.0,0.0,0.0,0.0,0.0,0.0,0.0,0.0,0.0,0.0,0.0,0.0,0.0,0.0,0.0,0.0,0.0,0.0,0.0,0.0,0.0,0.0,0.0,0.0,0.0,0.0,0.0,0.0,0.0,0.0,0.0,0.0,0.0,0.0,0.0,0.0,0.0,0.0,0.0,0.0,0.0,0.0,0.0,0.0,0.0,0.0,0.0,0.0,0.0,0.0,0.0,0.0,0.0,1.4988,1.5771,1.604,1.5791,1.5091,1.4482,1.3882,1.4371,1.3816,0.0,0.0,0.0,0.0,0.0,0.0,0.0,0.0,0.0,0.0,0.0,0.0,0.0,0.0,0.0,0.0,0.0,0.0,0.0,0.0,0.0,0.0,0.0,0.0,0.0,0.0,0.0,0.0,0.0,0.0,0.0,0.0,0.0,0.0,0.0,0.0,0.0,0.0,0.0,0.0,0.0,2.2224,2.186,2.2684,2.2808,0.0,0.0,2.1537,2.0148,1.9811,1.9249,1.7973,0.0,0.0,0.0,0.0,0.0,0.0,0.0,0.0,0.0,0.0,0.0,0.0,0.0,0.0,0.0,0.0,0.0,0.0,0.0,0.0,0.0,0.0,0.0,0.0,0.0,0.0,0.0,0.0,0.0,0.0,0.0,0.0,0.0,0.0,0.0,0.0,0.0,0.0,0.0,0.0,0.0,0.0,0.0,0.0,0.0,0.0,0.0,0.0,0.0,0.0,0.0,0.0,0.0,1.5199,1.5794,1.6981,1.7087,1.606,1.585,1.5395,1.4372,1.5045,1.4713,0.0,0.0,0.0,0.0,0.0,0.0,0.0,0.0,0.0,0.0,0.0,0.0,0.0,0.0,0.0,0.0,0.0,0.0,0.0,0.0,0.0,0.0,0.0,0.0,0.0,0.0,0.0,0.0,2.4428,2.4599,2.3769,0.0,0.0,0.0,0.0,0.0,0.0,0.0,0.0,0.0,0.0,2.354,2.2893,2.3169,0.0,0.0,2.2041,2.1735,2.0915,2.0663,2.0289,1.9431,1.8709,0.0,0.0,0.0,0.0,0.0,0.0,0.0,0.0,0.0,0.0,0.0,0.0,0.0,0.0,0.0,0.0,0.0,0.0,0.0,0.0,0.0,0.0,0.0,0.0,0.0,0.0,0.0,0.0,0.0,0.0,0.0,0.0,0.0,0.0,0.0,0.0,0.0,0.0,0.0,0.0,0.0,0.0,0.0,0.0,0.0,0.0,0.0,0.0,0.0,0.0,0.0,0.0,1.5788,1.6398,1.7642,1.7852,1.6868,1.6702,1.616,1.5546,1.5979,1.5781,0.0,0.0,0.0,0.0,0.0,0.0,0.0,0.0,0.0,0.0,0.0,0.0,0.0,0.0,0.0,0.0,0.0,0.0,0.0,0.0,0.0,0.0,0.0,0.0,0.0,0.0,0.0,0.0,2.5888,2.5517,2.3523,0.0,0.0,0.0,0.0,0.0,0.0,0.0,0.0,0.0,0.0,2.484,2.4015,2.4048,2.396,2.3227,2.282,2.2483,2.2103,2.1584,2.1109,2.1058,0.0,0.0,0.0,0.0,0.0,0.0,0.0,0.0,0.0,0.0,0.0,0.0,0.0,0.0,0.0,0.0,0.0,0.0,0.0,0.0,0.0,0.0,0.0,0.0,0.0,0.0,0.0,0.0,0.0,0.0,0.0,0.0,0.0,0.0,0.0,0.0,0.0,0.0,0.0,0.0,0.0,0.0,0.0,0.0,0.0,0.0,0.0,0.0,0.0,0.0,0.0,0.0,0.0,1.5646,1.674,1.7282,1.7749,1.8435,1.7282,1.7047,1.7508,1.7528,1.7424,1.7188,0.0,0.0,0.0,0.0,0.0,0.0,0.0,0.0,0.0,0.0,0.0,0.0,0.0,0.0,0.0,0.0,0.0,0.0,0.0,0.0,0.0,0.0,0.0,0.0,0.0,0.0,2.5755,2.6081,2.5133,0.0,0.0,0.0,0.0,0.0,0.0,0.0,0.0,0.0,0.0,2.6119,2.6105,2.5188,2.5741,2.574,2.454,2.4283,2.4128,2.3778,2.2366,2.1685,0.0,0.0,0.0,0.0,0.0,0.0,0.0,0.0,0.0,0.0,0.0,0.0,0.0,0.0,0.0,0.0,0.0,0.0,0.0,0.0,0.0,0.0,0.0,0.0,0.0,0.0,0.0,2.8477,2.7325,0.0,0.0,0.0,0.0,0.0,0.0,0.0,0.0,0.0,0.0,0.0,2.515,2.654,0.0,0.0,0.0,0.0,0.0,0.0,0.0,0.0,0.0,0.0,0.0,0.0,1.6065,1.7224,1.809,1.8582,1.862,1.8392,1.8348,1.8423,1.9013,1.9193,1.8801,0.0,0.0,0.0,0.0,0.0,0.0,0.0,0.0,0.0,0.0,0.0,0.0,0.0,0.0,0.0,0.0,0.0,0.0,0.0,0.0,0.0,0.0,0.0,0.0,0.0,2.491,0.0,0.0,0.0,0.0,0.0,0.0,0.0,0.0,0.0,0.0,0.0,2.7857,2.7813,2.8015,2.7803,2.6776,2.6695,2.6421,0.0,0.0,0.0,0.0,0.0,0.0,0.0,0.0,0.0,0.0,0.0,0.0,0.0,0.0,2.0202,1.7896,1.737,1.7209,1.6835,0.0,0.0,0.0,0.0,0.0,0.0,0.0,0.0,0.0,0.0,0.0,0.0,0.0,0.0,0.0,0.0,2.9854,0.0,0.0,0.0,0.0,0.0,0.0,0.0,0.0,2.9962,3.0691,3.0305,3.153,3.1367,0.0,2.9353,2.6484,0.0,0.0,0.0,0.0,0.0,0.0,0.0,0.0,1.6357,1.7357,1.8209,1.8673,1.8893,1.9172,1.9357,1.9676,2.0695,2.1109,2.0894,2.1445,2.1496,0.0,0.0,0.0,0.0,0.0,0.0,0.0,0.0,0.0,0.0,0.0,0.0,0.0,0.0,0.0,0.0,0.0,0.0,0.0,0.0,0.0,0.0,0.0,2.5134,0.0,0.0,0.0,0.0,0.0,0.0,0.0,0.0,0.0,2.7026,2.8559,2.9525,2.9402,2.9453,2.9111,2.8061,0.0,0.0,0.0,0.0,0.0,0.0,0.0,2.4365,2.414,2.423,2.4285,2.4039,2.3566,2.284,2.1607,0.0,0.0,1.9089,1.8747,1.864,1.8327,1.9217,1.9931,1.9716,2.0396,2.111,0.0,0.0,0.0,0.0,0.0,0.0,0.0,0.0,3.6822,3.5962,0.0,3.28,0.0,0.0,0.0,0.0,0.0,0.0,0.0,0.0,3.5747,3.618,3.4439,3.4982,3.4751,3.3578,3.4316,3.2427,2.8143,2.2722,0.0,0.0,0.0,0.0,0.0,0.0,1.6551,1.6876,1.7644,1.8536,1.941,1.9567,2.0322,2.1601,2.2675,2.3156,2.3415,2.3796,2.3723,2.3252,2.2086,0.0,0.0,0.0,0.0,0.0,0.0,0.0,0.0,0.0,0.0,0.0,0.0,0.0,0.0,0.0,0.0,0.0,0.0,0.0,0.0,2.5797,0.0,0.0,0.0,0.0,0.0,0.0,0.0,0.0,0.0,0.0,2.8155,2.9385,3.0392,3.0365,0.0,0.0,0.0,0.0,2.7624,2.6997,2.6694,2.638,2.5728,2.4777,2.4345,2.4915,0.0,0.0,2.2954,2.2019,2.1514,2.1638,2.1247,2.073,2.0783,2.075,2.0669,2.0471,2.1189,2.1896,2.2307,2.2756,2.3286,5.074,0.0,0.0,0.0,0.0,4.5505,4.5958,4.7684,4.4771,4.2555,4.0773,3.8945,0.0,0.0,0.0,0.0,0.0,0.0,3.6967,3.7713,3.8728,3.8832,3.847,3.9098,3.8436,3.6596,3.6763,3.4987,3.1445,2.8295,2.3937,1.8488,0.0,0.0,0.0,0.0,1.7407,1.8093,1.8363,1.8819,1.9512,2.0328,2.1631,2.3355,2.3902,2.4237,2.448,2.5266,2.5423,2.473,2.3801,0.0,0.0,0.0,0.0,0.0,0.0,0.0,0.0,0.0,0.0,0.0,0.0,0.0,0.0,0.0,0.0,0.0,0.0,0.0,2.5244,2.5112,2.4372,0.0,0.0,0.0,0.0,0.0,0.0,0.0,0.0,0.0,3.0312,3.1197,3.1853,0.0,0.0,3.0864,3.0633,2.9925,2.9198,2.8164,0.0,0.0,0.0,2.4284,2.3653,2.4132,2.3969,2.3722,2.3445,2.3186,2.2927,2.268,2.2405,2.2249,2.2477,2.2387,2.2353,2.266,2.3424,2.4081,2.4382,2.4446,2.4524,5.8912,5.5191,5.1932,5.1443,5.258,5.1031,5.1318,5.2586,4.9549,4.7486,4.6176,4.4266,4.193,3.9494,3.8945,0.0,0.0,0.0,4.0981,4.2026,4.1776,4.1564,4.1445,4.1653,4.0783,3.9104,3.853,3.6787,3.3879,3.1669,2.7819,2.2267,0.0,0.0,1.821,1.7922,1.8158,1.8863,1.879,1.9237,2.0222,2.1709,2.3215,2.4377,2.506,2.5452,2.5562,2.625,2.6427,2.6079,2.5019,2.4211,0.0,0.0,0.0,0.0,0.0,0.0,0.0,0.0,0.0,0.0,0.0,2.2499,2.0119,0.0,0.0,0.0,2.3433,2.6061,2.6293,2.5843,0.0,0.0,0.0,0.0,0.0,0.0,0.0,2.8842,3.0311,3.142,3.1931,3.2556,3.2907,3.275,3.228,3.1993,3.1887,0.0,2.9691,2.8674,2.7334,2.6152,2.5146,2.3903,2.3103,2.3032,2.2871,2.2852,2.3228,2.2919,2.2625,2.2714,2.267,2.2741,2.3368,2.3419,2.3506,2.3853,2.4824,2.5511,2.5312,2.5235,2.523,6.5638,6.5328,6.002,5.7464,5.6974,5.6505,5.5653,5.443,5.2086,5.1123,5.115,4.846,4.7192,4.7018,4.5285,0.0,0.0,4.5279,4.5377,4.565,4.4936,4.4242,4.3443,4.3158,4.2282,4.0886,4.0025,3.8227,3.5595,3.3375,3.0405,2.6874,2.382,2.1467,1.9802,1.8915,1.8809,1.9242,1.9249,1.9853,2.1272,2.3352,2.4619,2.4891,2.5907,2.6388,2.6405,2.6574,2.6821,2.7131,2.5875,2.4917,2.4532,0.0,0.0,0.0,0.0,0.0,0.0,0.0,0.0,0.0,0.0,0.0,0.0,0.0,0.0,0.0,2.5793,0.0,2.838,2.7394,0.0,0.0,0.0,2.5337,2.7384,2.8054,2.8914,3.0351,0.0,0.0,3.3065,0.0,3.3743,3.3232,3.3219,3.3097,3.286,3.1186,2.9628,2.8724,2.7225,2.5832,2.4716,2.3625,2.2682,2.2083,2.1349,2.1452,2.2351,2.1723,2.1372,2.226,2.2292,2.2587,2.3641,2.4041,2.4243,2.43,2.5425,2.6167,2.548,2.5449,2.5465,6.7839,6.7135,6.5789,6.4248,6.2318,6.1012,5.9589,5.7836,5.5543,5.3394,5.1733,5.0273,4.9631,4.9469,4.9316,4.9698,5.0222,4.9257,4.8774,4.8719,4.7286,4.591,4.4548,4.4906,4.3714,4.127,4.1459,3.9878,3.696,3.4548,3.2322,2.9824,2.6892,2.3985,2.0962,2.0263,1.9952,1.9985,2.0146,2.099,2.2594,2.3605,2.4363,2.4655,2.4828,2.516,2.5617,2.5336,2.5539,2.6273,2.5621,2.5105,2.4687,2.3149,0.0,0.0,0.0,0.0,0.0,0.0,0.0,0.0,0.0,2.6496,2.3487,0.0,2.7137,0.0,2.7274,2.9152,2.8359,2.7262,0.0,0.0,2.7328,2.7444,3.0038,3.0151,3.0436,3.1447,3.2777,3.3543,3.3244,3.4259,3.4872,3.4342,3.3659,3.3168,3.2911,3.1757,3.0319,2.8849,2.7023,2.5346,2.4226,2.298,2.2063,2.1802,2.159,2.1706,2.2332,2.1644,2.1363,2.2542,2.2428,2.268,2.3904,2.4231,2.4304,2.4577,2.5302,2.5907,2.5832,2.5645,2.5419,7.0,6.9362,6.8994,6.7923,6.6171,6.3923,6.1794,5.9974,5.7966,5.5761,5.3271,5.2223,5.1566,5.1432,5.2,5.2488,5.3055,5.1749,5.1139,5.118,4.9331,4.7627,4.6201,4.5959,4.4542,4.1888,4.1895,4.0302,3.7411,3.5103,3.3245,3.1501,2.8796,2.6305,2.394,2.2401,2.1551,2.1404,2.1421,2.197,2.2941,2.3505,2.3875,2.402,2.4323,2.4514,2.4558,2.4562,2.4711,2.5014,2.5179,2.5033,2.4404,2.374,2.3007,0.0,0.0,0.0,0.0,0.0,0.0,0.0,0.0,0.0,0.0,0.0,2.9022,2.7287,2.8712,2.9639,2.9343,2.8583,2.855,2.9853,2.8913,2.9036,3.1223,3.1211,3.1479,3.2376,3.3204,3.3696,3.3355,3.4016,3.436,3.414,3.3411,3.2959,3.2982,3.171,3.0242,2.8981,2.7008,2.511,2.3635,2.2615,2.1909,2.1689,2.1606,2.1684,2.1964,2.1565,2.149,2.2417,2.2432,2.2631,2.3857,2.3947,2.3948,2.4468,2.4612,2.4636,2.4722,2.4563,2.4314,7.1746,7.1319,7.0404,6.9601,6.8683,6.5799,6.3359,6.1289,5.9713,5.7397,5.477,5.3643,5.3034,5.2792,5.347,5.411,5.4678,5.3468,5.3037,5.3042,5.1105,4.9401,4.7981,4.6726,4.4961,4.2954,4.2133,4.0371,3.7649,3.5609,3.3953,3.2534,3.0198,2.8594,2.7493,2.5056,2.3476,2.3157,2.2757,2.275,2.2921,2.325,2.3378,2.3207,2.3977,2.4053,2.3538,2.3863,2.3987,2.3938,2.4698,2.4697,2.4009,2.4138,2.391,0.0,2.3393,0.0,0.0,0.0,0.0,0.0,0.0,0.0,0.0,3.0393,3.0211,2.9591,2.9794,3.0097,3.0439,3.007,2.9976,3.0482,3.0022,3.0236,3.153,3.1623,3.1972,3.3021,3.3552,3.3807,3.3361,3.3365,3.3334,3.338,3.27,3.2348,3.2814,3.1312,2.9776,2.8926,2.7048,2.5004,2.3631,2.2715,2.2227,2.1931,2.1808,2.1742,2.1932,2.1702,2.1653,2.218,2.2533,2.3008,2.3865,2.3687,2.3592,2.4298,2.3775,2.3214,2.3356,2.3186,2.2738,7.1936,7.138,7.0886,7.0117,6.901,6.7256,6.4885,6.1847,6.0108,5.7149,5.3648,5.3149,5.2913,5.2961,5.3843,5.4829,5.5761,5.5306,5.4745,5.4061,5.2438,5.069,4.8803,4.7677,4.6096,4.4358,4.2891,4.1288,3.9337,3.6934,3.5469,3.4814,3.2668,3.0993,2.9862,0.0,0.0,0.0,2.3454,2.3324,2.3267,2.336,2.3154,2.2716,2.2757,0.0,2.2993,2.2975,2.3152,2.368,2.4106,0.0,0.0,0.0,0.0,0.0,0.0,0.0,0.0,0.0,0.0,0.0,2.9339,2.9297,3.0593,3.0836,3.0428,2.9508,2.9066,2.8984,2.9439,2.9282,2.9434,3.0179,2.9901,3.0278,3.1972,3.2094,3.2241,3.2926,3.3653,3.3962,3.3504,3.3497,3.3529,3.3235,3.2024,3.1281,3.166,3.0578,2.9407,2.8597,2.6639,2.518,2.4841,2.3963,2.3463,2.3798,2.331,2.3002,2.3118,2.2672,2.2412,2.2716,2.3045,2.3482,2.4157,2.3742,2.3516,2.4025,2.3186,2.262,2.3284,2.2813,2.2064,7.2488,0.0,7.1156,7.0319,0.0,6.7766,6.5557,6.273,6.0849,5.7525,5.3346,5.2822,5.2445,5.2211,5.3384,5.4436,5.5482,5.5391,5.5143,5.4765,5.3394,5.1765,4.9996,4.8473,4.6713,4.4891,4.34,4.164,3.9954,3.8024,3.6666,3.585,3.4154,3.2728,3.1508,2.9561,2.717,2.4525,2.3764,2.3349,2.3095,2.293,2.259,2.2181,0.0,0.0,0.0,0.0,0.0,0.0,0.0,0.0,0.0,0.0,0.0,2.4555,2.466,2.5441,2.6907,2.6682,2.7377,2.939,2.8408,2.8298,2.9678,2.9313,2.8993,2.869,2.7937,2.7777,2.8934,2.8464,2.8629,3.0038,3.0015,3.0533,3.2016,3.2207,3.2575,3.3387,3.3574,3.3514,3.3413,3.3244,3.2946,3.2595,3.1682,3.0876,3.0853,2.968,2.8445,2.782,2.6868,2.5915,2.5722,2.502,2.4374,2.4493,2.414,2.39,2.398,2.3743,2.357,2.3904,2.413,2.4448,2.5011,2.4513,2.396,2.4122,2.3196,2.2305,2.2462,2.1713,2.0785,7.2876,7.1383,7.1255,7.035,6.885,6.7799,6.5788,6.3141,0.0,0.0,0.0,5.2726,5.2106,5.1753,5.265,5.3847,5.5165,5.5325,5.5543,5.5605,5.4293,5.3021,5.1492,4.9345,4.7454,4.5686,4.3829,4.2146,4.0405,3.891,3.7796,3.6569,3.5438,3.4163,3.245,2.9992,2.7608,2.5427,2.4328,2.3419,2.2938,2.2584,2.2208,2.1727,2.2287,2.2188,2.1552,2.2279,2.2441,2.1951,2.3075,2.3575,2.3089,2.4153,2.4854,2.4948,2.5013,2.5626,2.7043,2.631,2.6231,2.7196,2.6241,2.627,2.7776,2.712,2.6776,2.7267,2.633,2.6561,2.8254,2.7712,2.7934,2.9984,3.0079,3.0601,3.2103,3.2314,3.2661,3.3726,3.3487,3.3132,3.3182,3.2774,3.2305,3.1694,3.102,3.0547,3.0121,2.9077,2.7977,2.7397,2.7031,2.675,2.6397,2.5948,2.5428,2.5227,2.5147,2.4974,2.4807,2.4919,2.5074,2.4922,2.5243,2.5561,2.5994,2.5183,2.4495,2.4452,2.3345,2.2086,2.1356,2.0464,1.9636,7.222,7.0971,7.0688,6.9946,6.881,6.7783,6.5374,6.2095,5.8885,5.6352,5.4199,5.3205,5.2379,5.1687,5.2664,5.3798,5.52,5.6185,5.6902,0.0,5.621,5.5165,5.3944,5.0746,4.8882,4.7904,4.4573,4.2637,4.1989,4.0158,3.8896,3.8235,3.7089,3.5041,3.2276,2.9834,2.8114,2.6867,2.5656,2.4488,2.3185,2.2971,2.2716,2.235,2.2181,2.2127,2.2232,2.253,2.2983,2.3474,2.4092,2.4427,2.4634,2.5127,2.5252,2.4966,2.5541,2.5951,2.6145,2.5923,2.5125,2.3666,2.2807,2.3116,2.468,2.451,2.4361,2.4535,2.4378,2.4955,2.6612,2.69,2.7607,2.9451,2.9778,3.0581,3.2243,3.2338,3.2593,3.3371,3.336,3.3126,3.2792,3.2202,3.175,3.1215,3.0272,2.9276,2.9065,2.884,2.8633,2.81,2.7504,2.7188,2.7172,2.6783,2.6709,2.7058,2.6865,2.6549,2.6184,2.6643,2.6653,2.5459,2.6013,2.6297,2.6123,2.5275,2.465,2.4116,2.3255,2.2272,2.0983,1.9901,1.9171,7.2577,7.1111,7.0622,6.9532,6.7991,6.5816,6.3658,6.1599,5.9387,5.7235,5.5231,5.4146,5.352,5.3142,5.3792,5.4519,5.5391,5.6877,5.7411,5.6871,5.6888,5.6054,5.4319,5.1826,5.0063,4.8741,4.5566,4.3698,4.2744,4.1288,4.0121,3.8841,3.7009,3.494,3.2728,3.0937,2.9418,2.82,2.6368,2.4884,2.3568,2.3464,2.3326,2.2967,2.2706,2.2639,2.277,2.2816,2.2921,2.3221,2.3696,2.4042,2.4369,2.4837,2.5138,2.5121,2.5227,2.5365,2.545,2.4291,2.28,2.1071,2.0257,2.0269,2.0959,2.1757,2.2474,2.3157,2.3075,2.3724,2.5707,2.5973,2.6946,2.9165,2.9719,3.0724,3.2169,3.2522,3.2733,3.3122,3.312,3.2715,3.2363,3.2037,3.1495,3.0883,2.978,2.9234,2.9653,2.9738,2.9463,2.8953,2.8682,2.8595,2.8574,2.8387,2.8305,2.8676,2.8327,2.8081,2.8047,2.8296,2.794,2.7481,2.7644,2.7601,2.7317,2.6518,2.5602,2.4591,2.361,2.2577,2.1416,2.0555,1.9857,7.294,7.1389,7.0628,6.9084,6.6729,6.3883,6.2094,6.1163,6.024,5.8699,5.674,5.5739,5.5039,5.4628,5.5121,5.5499,5.5894,5.7482,5.7887,5.7277,5.7641,5.6902,5.5182,5.3035,5.1152,4.9471,4.6502,4.4505,4.3496,4.237,4.0742,3.898,3.6925,3.5124,3.3406,3.2113,3.0803,2.9346,2.7193,2.5526,2.4423,2.4119,2.3858,2.3419,2.3199,2.3167,2.3055,2.2927,2.2911,2.3019,2.334,2.371,2.4206,2.4663,2.5074,2.5254,2.4906,2.472,2.4423,2.262,2.0909,1.9726,1.867,1.8218,1.8422,1.9577,2.0731,2.1861,2.1988,2.286,2.4718,2.5348,2.6353,2.8728,2.9729,3.0724,3.2079,3.2601,3.2763,3.2913,3.2693,3.2187,3.1865,3.1608,3.1139,3.048,2.9941,3.0248,3.0917,3.0915,3.0631,3.0359,3.0174,3.0007,2.9992,2.987,2.985,3.0239,2.9846,2.9784,2.997,2.9808,2.9516,2.9502,2.9211,2.8966,2.8718,2.7654,2.6529,2.535,2.4258,2.3095,2.2006,2.1632,2.0949,7.2637,7.1411,7.0462,6.8114,6.5158,6.2996,6.1628,6.0682,6.0739,6.0157,5.888,5.786,5.6816,5.5935,5.6239,5.6386,5.6422,5.7813,5.8762,5.9046,5.9183,5.8641,5.7353,5.457,5.253,5.1016,4.7421,4.53,4.47,4.2657,4.0604,3.8616,3.749,3.6073,3.4239,3.2671,3.1357,3.0158,2.8606,2.714,2.5787,2.4845,2.425,2.3795,2.3345,2.3067,2.3037,2.2946,2.3172,2.3383,2.3863,2.4253,2.4795,2.5301,2.5344,2.5188,2.5267,2.4868,2.346,2.1359,2.0109,1.9838,1.8476,1.794,1.839,1.872,1.9387,2.0355,2.1245,2.2489,2.3943,2.5066,2.6584,2.8446,2.94,3.0377,3.1725,3.2043,3.2178,3.2615,3.2031,3.156,3.1119,3.0753,3.0588,3.0574,3.1025,3.1608,3.1979,3.2387,3.2662,3.2358,3.1605,3.1042,3.1077,3.0947,3.118,3.1646,3.1639,3.1553,3.1568,3.178,3.1915,3.0318,3.0291,3.0055,2.9036,2.7951,2.6658,2.5645,2.4601,2.3538,2.2397,2.2252,2.1941,7.2402,7.1228,6.9544,6.6838,6.3582,6.1862,6.085,6.0326,6.0754,6.0639,6.0292,5.994,5.8933,5.7535,5.7463,5.7396,5.7363,5.8701,5.944,5.9723,5.9835,5.9345,5.8116,5.5379,5.346,5.1959,4.8521,4.648,4.5715,4.3606,4.1439,3.9556,3.8442,3.7049,3.5296,3.3723,3.2445,3.1248,3.0194,2.9118,2.785,2.6251,2.543,2.5149,2.4178,2.3813,2.4104,2.3486,2.3359,2.4134,2.4371,2.4749,2.5407,2.5786,2.588,2.5635,2.5319,2.4596,2.3287,2.1623,2.0615,2.0627,1.9044,1.8451,1.9367,1.922,1.9515,2.0501,2.1358,2.2482,2.3733,2.514,2.6725,2.8331,2.951,3.0599,3.1584,3.1645,3.1692,3.1621,3.1104,3.0723,3.061,3.0828,3.1066,3.1388,3.1721,3.2073,3.3034,3.3734,3.4243,3.4582,3.4357,3.3943,3.3331,3.2825,3.2909,3.3315,3.2919,3.2411,3.2471,3.2147,3.1776,3.0859,3.0663,3.024,2.913,2.851,2.7476,2.6184,2.4697,2.3637,2.2982,2.3043,2.2878,7.2469,7.1012,6.8051,6.5081,6.2399,6.0819,6.0103,6.002,6.0616,6.0885,6.0844,6.1319,6.062,5.9261,5.8858,5.8608,5.8631,5.9704,6.0176,6.0049,6.0462,5.9922,5.8498,5.6196,5.4406,5.269,4.9666,4.7378,4.6138,4.4039,4.2021,4.0568,3.9322,3.8037,3.6499,3.5152,3.3739,3.2592,3.1668,3.0809,2.9708,2.7946,2.6694,2.6165,2.516,2.4695,2.487,2.4028,2.3897,2.474,2.478,2.5123,2.5782,2.6198,2.6393,2.6194,2.5437,2.4602,2.3811,2.2212,2.1444,2.1678,2.0142,1.9449,2.0251,2.0002,2.0096,2.1043,2.1964,2.2914,2.3762,2.5427,2.6893,2.8252,2.9538,3.0589,3.1196,3.1217,3.1093,3.0945,3.0493,3.0208,3.0538,3.1285,3.2016,3.2652,3.2622,3.2863,3.4581,3.5435,3.5998,3.6649,3.7087,3.6736,3.5459,3.4601,3.4792,3.4889,3.4414,3.3562,3.331,3.2793,3.2016,3.1646,3.0992,3.0411,2.9757,2.9104,2.8138,2.6644,2.5267,2.4251,2.4145,2.4059,2.4109,7.3023,7.0675,6.5571,6.2918,6.1936,6.0143,5.9289,5.9498,6.0592,6.0935,6.0784,6.1501,6.137,6.0593,6.0266,6.0015,5.9605,6.0441,6.0752,6.0755,6.1024,6.046,5.8871,5.7348,5.538,5.327,5.0582,4.7648,4.5057,4.3552,4.2354,4.1431,4.0183,3.8902,3.7726,3.6864,3.5672,3.418,3.2995,3.2091,3.1194,2.983,2.8043,2.6472,2.574,2.5261,2.4834,2.4847,2.501,2.5099,2.5513,2.5845,2.6103,2.6819,2.7071,2.6803,2.5555,2.4843,2.4861,2.313,2.2405,2.2988,2.1308,2.0404,2.1584,2.1084,2.1133,2.1781,2.3102,2.3994,2.4142,2.578,2.724,2.8106,2.9331,3.0211,3.065,3.049,3.0619,3.0888,3.0451,3.0427,3.1212,3.2237,3.3359,3.4198,3.484,3.5722,3.6731,3.7577,3.8241,3.8596,3.8812,3.8571,3.7321,3.6494,3.6378,3.6359,3.5848,3.5086,3.4824,3.4389,3.3244,3.2324,3.1711,3.1072,3.043,2.948,2.8378,2.7087,2.6054,2.532,2.4997,2.5338,2.5125,7.0477,6.7308,6.3931,6.1994,6.1246,5.9836,5.9454,5.9882,6.0974,6.1479,6.1572,6.2038,6.1873,6.1383,6.1083,6.0645,6.0125,6.0689,6.1103,6.1357,6.1178,6.0434,5.9264,5.7175,5.557,5.3942,5.1187,4.8201,4.5684,4.4678,4.3681,4.228,4.0975,4.0049,3.9234,3.7909,3.683,3.5932,3.4823,3.3533,3.2153,3.106,2.958,2.7502,2.6603,2.6156,2.5918,2.5469,2.5505,2.5997,2.6329,2.6718,2.7115,2.7274,2.7229,2.6585,2.6099,2.5688,2.5409,2.435,2.387,2.451,2.2819,2.2004,2.2818,2.2586,2.2454,2.3247,2.4158,2.4849,2.5473,2.6624,2.7676,2.8312,2.9161,2.9928,3.0083,2.9925,2.9953,3.0709,3.1108,3.1739,3.2593,3.3743,3.4944,3.6093,3.7514,3.8573,3.9391,4.088,4.178,4.1282,4.1581,4.174,4.0598,3.8888,3.7869,3.7382,3.6779,3.5666,3.516,3.4574,3.3559,3.2628,3.2107,3.1595,3.0817,2.9813,2.853,2.7682,2.6653,2.6147,2.5761,2.545,2.4951,6.8675,6.524,6.2721,6.1515,6.0863,5.9836,5.9797,6.0589,6.1357,6.1906,6.2141,6.2393,6.2117,6.1697,6.1271,6.0782,6.0426,6.0831,6.1161,6.122,6.1075,6.0545,5.9367,5.7321,5.5705,5.4334,5.1605,4.8815,4.6757,4.5888,4.4735,4.3343,4.1983,4.1032,4.0494,3.928,3.8202,3.7653,3.6391,3.4913,3.3274,3.198,3.0497,2.8814,2.7443,2.6632,2.6608,2.6158,2.5996,2.6558,2.6741,2.6939,2.7398,2.7461,2.7244,2.6949,2.6707,2.6488,2.633,2.5299,2.4961,2.5673,2.4252,2.3609,2.4261,2.391,2.3843,2.4295,2.4999,2.5659,2.6372,2.7287,2.8144,2.854,2.9108,2.968,3.0161,2.9855,3.0037,3.1181,3.245,3.3446,3.4363,3.5579,3.6794,3.8127,3.991,4.1093,4.1661,4.3326,4.465,4.3598,4.3517,4.3374,4.2662,4.1105,3.9409,3.8812,3.7515,3.6356,3.5432,3.4836,3.4088,3.3038,3.2328,3.1801,3.1019,3.0034,2.9125,2.8268,2.7583,2.7022,2.6116,2.5098,2.4521,6.758,6.5059,6.2308,6.1188,6.0919,6.0143,6.0259,6.1135,6.188,6.235,6.272,6.26,6.2153,6.1434,6.0776,6.0399,6.0237,6.0619,6.0675,6.0315,6.0661,6.0253,5.9215,5.7512,5.6029,5.4695,5.2071,4.9798,4.7858,4.6706,4.5581,4.4482,4.2848,4.2004,4.1913,4.0647,3.9698,3.903,3.7764,3.6133,3.4673,3.253,3.0818,2.9599,2.7955,2.6979,2.6713,2.6513,2.6519,2.6435,2.6315,2.6512,2.6983,2.7206,2.735,2.7749,2.7405,2.7256,2.7387,2.6193,2.5871,2.6253,2.5353,2.4745,2.5069,2.4863,2.4921,2.523,2.5855,2.6419,2.7019,2.7872,2.8501,2.8498,2.9151,2.9917,3.0357,3.0408,3.0728,3.2247,3.3769,3.5232,3.638,3.7429,3.8648,4.02,4.1705,4.2934,4.3424,4.4911,4.5573,4.5321,4.501,4.463,4.3961,4.3144,4.1615,4.0081,3.8494,3.7072,3.6201,3.5417,3.4662,3.3698,3.2921,3.2444,3.1826,3.0872,3.0116,2.9286,2.8605,2.7578,2.6349,2.5165,2.4218,6.6038,6.4238,6.223,6.1165,6.0975,6.079,6.1056,6.185,6.2438,6.3179,6.362,6.3058,6.231,6.142,6.0266,5.9183,5.8319,5.8751,5.9318,5.9832,5.9609,5.9096,5.8278,5.703,5.5287,5.3466,5.208,5.0273,4.8186,4.7158,4.5984,4.438,4.3386,4.2827,4.2344,4.1293,4.07,4.0231,3.865,3.684,3.5023,3.3048,3.135,2.9857,2.8465,2.7482,2.6867,2.6358,2.6085,2.6179,2.6168,2.6471,2.6934,2.7485,2.7734,2.768,2.7855,2.7848,2.7798,2.7461,2.697,2.718,2.6476,2.6098,2.6118,2.6152,2.6319,2.6444,2.7056,2.7469,2.7776,2.817,2.8573,2.8658,2.9568,3.0276,3.0762,3.1667,3.2681,3.3669,3.5293,3.6731,3.8023,3.9158,4.0317,4.2224,4.3407,4.4327,4.5385,4.6218,4.6637,4.6357,4.5993,4.571,4.5257,4.4326,4.2867,4.1253,3.9556,3.7911,3.6948,3.5941,3.5179,3.4465,3.3735,3.3071,3.2454,3.1814,3.0983,3.0017,2.8957,2.7725,2.6336,2.5186,2.4072,6.5405,6.3931,6.2324,6.1491,6.126,6.1365,6.1716,6.2263,6.2788,6.3294,6.3505,6.2913,6.1727,6.045,5.9048,5.791,5.702,5.6897,5.7382,5.8483,5.8479,5.8164,5.7539,5.6302,5.4697,5.2822,5.1765,5.0354,4.8239,4.7403,4.6014,4.4402,4.3702,4.3228,4.27,4.1654,4.1121,4.0886,3.8988,3.7014,3.5297,3.3164,3.1395,2.9856,2.8364,2.7497,2.6829,2.6115,2.566,2.571,2.5824,2.6213,2.6663,2.7331,2.7985,2.8099,2.8136,2.8364,2.8443,2.8079,2.79,2.782,2.7467,2.7018,2.6889,2.7074,2.73,2.7193,2.7659,2.802,2.814,2.8498,2.8801,2.922,2.9849,3.0679,3.1347,3.3069,3.439,3.5293,3.6724,3.8319,3.9505,4.0528,4.1929,4.383,4.4825,4.5604,4.654,4.7406,4.7586,4.7462,4.7095,4.6753,4.6636,4.5459,4.4144,4.2489,4.0717,3.9226,3.7859,3.6678,3.568,3.4952,3.4233,3.3726,3.3127,3.235,3.142,3.0294,2.9106,2.7735,2.6457,2.4743,2.3568,6.5302,6.4235,6.2708,6.1993,6.1699,6.2101,6.2315,6.2674,6.2933,6.3053,6.2677,6.2159,6.0802,5.8831,5.7478,5.666,5.6425,5.5242,5.5465,5.6528,5.7247,5.7531,5.7073,5.5584,5.4157,5.3012,5.1404,4.9893,4.8463,4.7308,4.6024,4.4569,4.3794,4.3199,4.2796,4.1748,4.1093,4.0856,3.8904,3.6978,3.5743,3.3067,3.1002,2.9904,2.8243,2.7203,2.6934,2.6115,2.5382,2.5277,2.5422,2.5739,2.6171,2.7112,2.7985,2.8691,2.8664,2.9083,2.9126,2.8799,2.8337,2.8444,2.8015,2.7553,2.7333,2.7486,2.7518,2.7367,2.7797,2.8259,2.8517,2.8874,2.9379,3.0027,3.0456,3.1199,3.2715,3.4512,3.5683,3.646,3.8074,3.9847,4.0952,4.2044,4.3373,4.4839,4.6,4.6664,4.7247,4.8131,4.893,4.8681,4.7838,4.7648,4.7307,4.6318,4.5063,4.3863,4.2051,4.0254,3.8679,3.7318,3.606,3.5402,3.4728,3.4244,3.3665,3.2727,3.1755,3.0584,2.9279,2.7955,2.6406,2.4754,2.3087,6.544,6.4348,6.3581,6.3084,6.2736,6.2927,6.3263,6.359,6.3459,6.3354,6.3084,6.1736,6.0193,5.8764,5.6504,5.5523,5.5267,5.4646,5.4562,5.5442,5.5974,5.608,5.5827,5.4882,5.3815,5.2553,5.1044,4.9709,4.8171,4.722,4.5959,4.4648,4.3671,4.2906,4.215,4.1186,4.0444,3.9791,3.8192,3.6519,3.504,3.3037,3.1397,3.0195,2.8526,2.7777,2.7703,2.6983,2.6078,2.5277,2.5542,2.5979,2.6692,2.7795,2.8563,2.9091,2.9389,2.9864,3.0203,2.9529,2.9194,2.9378,2.8719,2.8162,2.7672,2.7758,2.7817,2.7885,2.8379,2.8856,2.9213,2.9487,3.0162,3.1047,3.1531,3.2161,3.346,3.4943,3.6135,3.711,3.8789,4.0622,4.211,4.3301,4.4485,4.6064,4.6991,4.7486,4.7959,4.8568,4.9266,4.8904,4.8318,4.8176,4.7883,4.6865,4.5977,4.5123,4.3417,4.1044,3.9411,3.7888,3.6763,3.5728,3.505,3.4491,3.3796,3.3087,3.2013,3.0782,2.9313,2.7797,2.6355,2.4775,2.2942,6.6032,6.5383,6.4709,6.4177,6.3651,6.3968,6.4006,6.3743,6.3564,6.3179,6.2463,6.0903,5.9238,5.7781,5.5853,5.4879,5.4744,5.4326,5.437,5.4652,5.4861,5.5091,5.4804,5.3953,5.3011,5.2292,5.0281,4.884,4.7485,4.6392,4.514,4.4041,4.3124,4.2343,4.1657,4.0711,3.9972,3.9104,3.757,3.6112,3.504,3.3002,3.1388,3.029,2.8987,2.8082,2.761,2.7152,2.6661,2.6154,2.6385,2.6823,2.7405,2.8418,2.9138,2.9679,2.9823,3.027,3.0806,3.0037,2.9628,2.9993,2.9353,2.8714,2.8407,2.8289,2.8232,2.8313,2.8755,2.9094,2.9505,3.0087,3.0857,3.175,3.2594,3.334,3.4067,3.5376,3.6502,3.7594,3.919,4.1208,4.2923,4.3886,4.5298,4.6681,4.7571,4.7932,4.8247,4.8957,4.9312,4.9035,4.8833,4.8717,4.8383,4.74,4.6175,4.5404,4.3841,4.1725,3.9888,3.8272,3.721,3.622,3.5432,3.471,3.3834,3.2967,3.1741,3.043,2.9021,2.7481,2.6002,2.4055,2.2289,6.6605,6.6707,6.5963,6.5203,6.4669,6.489,6.4445,6.3651,6.3436,6.2674,6.1468,5.9769,5.8223,5.6392,5.5501,5.4677,5.4653,5.4315,5.4286,5.4411,5.4381,5.4474,5.4733,5.3094,5.2333,5.1692,4.9121,4.7885,4.678,4.5227,4.3949,4.3285,4.2186,4.1456,4.0878,3.9938,3.9226,3.8356,3.6949,3.5646,3.4652,3.2927,3.1611,3.0617,2.952,2.8473,2.7768,2.7351,2.7271,2.7256,2.7475,2.778,2.8213,2.8995,2.9855,3.0343,3.0506,3.084,3.1391,3.0524,2.9969,3.0619,2.9661,2.8957,2.8995,2.8742,2.8451,2.8415,2.8755,2.925,2.9792,3.0577,3.1323,3.2104,3.3193,3.3936,3.4664,3.5995,3.7054,3.7495,3.9615,4.1396,4.2793,4.3995,4.5386,4.6729,4.7716,4.8258,4.8532,4.9072,4.9302,4.9285,4.9176,4.9274,4.8753,4.8033,4.6616,4.5326,4.3732,4.1808,3.9996,3.8616,3.7572,3.6645,3.5583,3.4473,3.3478,3.2515,3.1346,2.9766,2.8074,2.6696,2.5307,2.2942,2.0988,6.7408,6.6793,6.6614,6.5974,6.5333,6.4996,6.4648,6.4165,6.3043,6.2377,6.1295,5.9616,5.8097,5.6954,5.545,5.4637,5.4859,5.4551,5.4267,5.4887,5.4567,5.433,5.4201,5.2724,5.1705,5.0886,4.8891,4.7445,4.6334,4.5004,4.376,4.3092,4.1668,4.0781,3.9966,3.9142,3.7803,3.6555,3.5704,3.4986,3.3861,3.2923,3.193,3.1209,3.0128,2.9239,2.8547,2.8696,2.8744,2.8643,2.8162,2.8253,2.9012,3.003,3.0743,3.1209,3.1546,3.2001,3.2485,3.1549,3.091,3.1547,3.0445,2.935,2.91,2.8774,2.8571,2.8517,2.8755,2.9379,3.0111,3.0538,3.1276,3.2162,3.2781,3.357,3.4943,3.6373,3.7277,3.8087,3.9661,4.1673,4.3041,4.4402,4.5693,4.6831,4.7652,4.83,4.8789,4.9186,4.9249,4.9206,4.9389,4.9369,4.9225,4.8309,4.692,4.5453,4.3798,4.2198,4.0493,3.8894,3.7889,3.6704,3.5534,3.4383,3.3271,3.1803,3.0634,2.881,2.6994,2.5393,2.3648,2.1592,1.9828,6.8998,6.8352,6.7476,6.688,6.6417,6.5679,6.5025,6.4248,6.3236,6.223,6.1038,5.8929,5.7759,5.7277,5.5745,5.5097,5.538,5.493,5.4811,5.5049,5.4704,5.4299,5.392,5.275,5.1625,5.0413,4.8673,4.7069,4.5743,4.4242,4.3092,4.2543,4.1069,3.9881,3.9265,3.8386,3.7133,3.5799,3.5027,3.435,3.3266,3.2414,3.1844,3.1165,3.0375,2.9799,2.936,2.9429,2.948,2.9529,2.928,2.9265,2.9773,3.055,3.1213,3.1739,3.1861,3.2402,3.2659,3.2123,3.1532,3.2023,3.0991,3.0122,2.9545,2.9161,2.8955,2.8846,2.9075,2.9591,3.034,3.077,3.1487,3.2208,3.3124,3.4011,3.5151,3.637,3.7391,3.8067,3.9564,4.1305,4.2866,4.4477,4.5664,4.6671,4.7586,4.8236,4.8236,4.8521,4.8832,4.9086,4.9351,4.9463,4.9399,4.8736,4.74,4.571,4.4009,4.2563,4.1164,3.9541,3.8073,3.697,3.5712,3.408,3.2786,3.1332,2.9519,2.7417,2.5461,2.3821,2.1964,2.0103,1.8424,7.0397,7.0278,6.853,6.783,6.758,6.6433,6.5391,6.4495,6.3448,6.2141,6.0782,5.8455,5.7681,5.7098,5.5989,5.5739,5.5839,5.5815,5.5628,5.5156,5.4919,5.4415,5.3843,5.2754,5.155,5.0077,4.8542,4.6831,4.5191,4.3609,4.2698,4.1771,4.0286,3.9412,3.8726,3.7828,3.6642,3.5237,3.4662,3.3895,3.3108,3.2194,3.17,3.1062,3.085,3.0583,3.0143,3.0083,3.0127,3.0143,3.081,3.0985,3.099,3.1184,3.1617,3.2325,3.2294,3.2574,3.3098,3.2474,3.189,3.2124,3.1181,3.0609,2.9978,2.9719,2.9477,2.9422,2.9672,3.0062,3.0447,3.0972,3.1502,3.2353,3.3803,3.4776,3.5337,3.6146,3.7276,3.8182,3.9756,4.1448,4.2804,4.4215,4.5379,4.6476,4.7365,4.7938,4.7821,4.7938,4.8341,4.8641,4.8878,4.9447,4.958,4.9216,4.7848,4.6142,4.4394,4.2996,4.1708,4.0148,3.8633,3.7348,3.6065,3.4171,3.2074,3.0116,2.8114,2.5824,2.3834,2.1978,2.0287,1.8519,1.6993,7.0629,7.0367,7.0028,6.9148,6.7754,6.6735,6.5831,6.483,6.3073,6.1876,6.1189,5.9668,5.8094,5.7228,5.6493,5.5968,5.5785,5.5865,5.5755,5.5258,5.5154,5.505,5.3705,5.2877,5.168,5.0206,4.866,4.7212,4.5545,4.4295,4.2905,4.155,4.048,3.9507,3.8519,3.7528,3.6348,3.4929,3.4337,3.3669,3.2685,3.2533,3.2418,3.2065,3.1774,3.1538,3.1283,3.1174,3.1267,3.1488,3.2003,3.2337,3.2464,3.2746,3.312,3.332,3.3291,3.3242,3.3557,3.2881,3.2456,3.2169,3.1354,3.071,3.0391,3.005,2.9777,2.9992,3.023,3.0773,3.1139,3.1439,3.1998,3.2856,3.3923,3.4926,3.584,3.6918,3.802,3.889,4.0332,4.1707,4.2808,4.3866,4.4762,4.576,4.6534,4.6849,4.673,4.7087,4.7703,4.8028,4.8432,4.9127,4.9662,4.9419,4.8451,4.6567,4.492,4.352,4.2146,4.0583,3.9151,3.7566,3.5719,3.3669,3.1429,2.9262,2.6844,2.4707,2.2556,2.0289,1.8682,1.7154,1.5713,7.217,7.1631,7.0787,6.9732,6.859,6.7505,6.6376,6.5227,6.3688,6.2398,6.1273,5.9701,5.8605,5.7608,5.6617,5.5878,5.5683,5.5591,5.5323,5.5008,5.5168,5.4834,5.3531,5.2979,5.1696,5.0196,4.8868,4.7443,4.5439,4.4019,4.2879,4.1817,4.0528,3.9337,3.8589,3.7625,3.6443,3.5006,3.447,3.3766,3.2673,3.2992,3.2918,3.2786,3.2671,3.2592,3.2478,3.2275,3.2275,3.2535,3.3009,3.3424,3.3785,3.4124,3.437,3.4168,3.3739,3.3816,3.3889,3.3354,3.2788,3.2329,3.1502,3.0831,3.0467,3.0134,3.0175,3.0245,3.0627,3.0972,3.1149,3.1808,3.2337,3.2947,3.4186,3.5508,3.6499,3.7589,3.8667,3.9627,4.0434,4.1545,4.2536,4.3577,4.433,4.5036,4.5743,4.5793,4.555,4.601,4.6704,4.7146,4.7521,4.8109,4.868,4.8686,4.823,4.6499,4.5182,4.389,4.2372,4.0684,3.8916,3.7336,3.526,3.354,3.0883,2.8709,2.61,2.3546,2.1389,1.9362,1.7464,1.5812,1.4658,7.3754,7.3169,7.1496,7.038,6.9501,6.8194,6.7007,6.5724,6.4431,6.3137,6.1658,6.0043,5.9003,5.8058,5.683,5.573,5.5226,5.5076,5.4907,5.4746,5.4907,5.4373,5.3422,5.2854,5.1895,5.0306,4.8974,4.748,4.5688,4.4278,4.3237,4.2065,4.0583,3.9479,3.8792,3.797,3.6654,3.5622,3.4677,3.3898,3.335,3.3179,3.323,3.3283,3.3594,3.369,3.367,3.3555,3.3594,3.3867,3.4264,3.4716,3.489,3.5272,3.5369,3.4836,3.3997,3.3983,3.3947,3.357,3.2788,3.2402,3.2053,3.1199,3.0758,3.0575,3.0722,3.0751,3.1032,3.1475,3.1986,3.2382,3.2927,3.3526,3.4815,3.6161,3.6977,3.7986,3.9204,3.9968,4.0432,4.1338,4.2443,4.3013,4.3796,4.4308,4.5025,4.4863,4.4739,4.4816,4.5306,4.5917,4.6506,4.7075,4.7529,4.778,4.7009,4.5792,4.4808,4.3654,4.2325,4.0725,3.9078,3.7466,3.5906,3.3965,3.1062,2.8179,2.5692,2.3215,2.0607,1.8557,1.7126,1.5742,1.4483,7.4733,7.4624,7.292,7.154,7.0331,6.8442,6.7421,6.6768,6.4643,6.3392,6.2804,6.1109,5.9697,5.8396,5.6528,5.5604,5.5226,5.4815,5.4477,5.4127,5.4521,5.4065,5.3071,5.3071,5.1768,5.0352,4.8903,4.7303,4.5978,4.5232,4.3804,4.2276,4.1472,4.0614,3.8883,3.8109,3.7319,3.6037,3.5093,3.4264,3.3591,3.3817,3.3975,3.4246,3.4463,3.4673,3.4608,3.4725,3.5073,3.5509,3.597,3.6455,3.6674,3.6263,3.6352,3.5931,3.5174,3.4108,3.3961,3.3325,3.2801,3.2433,3.1793,3.1384,3.1202,3.1419,3.1523,3.1792,3.2158,3.257,3.2995,3.3531,3.4015,3.4807,3.5824,3.6569,3.7248,3.823,3.9455,3.993,4.0401,4.1393,4.2568,4.2821,4.3286,4.3775,4.4103,4.3937,4.3836,4.3647,4.4051,4.4766,4.5061,4.5674,4.6016,4.6314,4.5993,4.4915,4.4378,4.3649,4.2485,4.1153,3.9388,3.7833,3.6227,3.4117,3.1124,2.8114,2.5365,2.3062,2.0971,1.9017,1.7116,1.5783,1.473,7.5579,7.5037,7.3754,7.2272,7.0742,6.9534,6.8289,6.7013,6.5867,6.4785,6.3593,6.2186,6.0239,5.805,5.6211,5.5234,5.48,5.426,5.3734,5.3064,5.3294,5.2765,5.1593,5.1145,5.0352,4.9746,4.854,4.7544,4.6422,4.5414,4.4097,4.2815,4.1786,4.0721,3.9263,3.8274,3.7554,3.6603,3.5672,3.4668,3.4191,3.431,3.4632,3.4463,3.4942,3.519,3.5273,3.535,3.5722,3.5968,3.6374,3.6789,3.6796,3.6693,3.6827,3.6183,3.5591,3.4865,3.4399,3.3426,3.2875,3.2375,3.1759,3.1404,3.1582,3.172,3.1878,3.2088,3.2579,3.3127,3.3767,3.4432,3.5102,3.5778,3.6679,3.7568,3.799,3.8613,3.9585,3.9902,4.0179,4.0838,4.1488,4.1786,4.2016,4.2298,4.2429,4.2221,4.2056,4.1979,4.2673,4.3576,4.3907,4.4157,4.4476,4.4839,4.4928,4.4323,4.4274,4.3549,4.2974,4.1638,3.9979,3.8029,3.6242,3.3834,3.0988,2.8683,2.6302,2.3985,2.1621,1.9836,1.8007,1.678,1.5565,7.6001,7.5284,7.4294,7.2891,7.1258,7.0637,6.913,6.736,6.6886,6.5748,6.4024,6.2492,6.01,5.7517,5.608,5.5232,5.432,5.3467,5.2887,5.2366,5.1723,5.1375,5.0759,4.9967,4.9508,4.8912,4.8145,4.7564,4.6822,4.5797,4.4596,4.3467,4.2235,4.0926,3.9629,3.847,3.7534,3.6643,3.6008,3.5343,3.4823,3.528,3.5234,3.5163,3.5334,3.5666,3.5521,3.5892,3.6033,3.6172,3.7003,3.7385,3.7153,3.7313,3.7175,3.6719,3.6279,3.5687,3.4967,3.4009,3.3176,3.2538,3.1942,3.1465,3.1588,3.1557,3.1902,3.2446,3.2959,3.3494,3.4031,3.4993,3.5632,3.6294,3.7147,3.8235,3.9125,3.8928,3.9043,3.9525,3.9617,3.931,3.9806,4.0431,4.0689,4.0904,4.0713,4.0452,4.0454,4.0559,4.1242,4.2189,4.2864,4.3033,4.3216,4.3432,4.3566,4.3755,4.3705,4.3358,4.2797,4.1997,4.0715,3.8731,3.6679,3.5185,3.332,3.0295,2.7258,2.4956,2.2862,2.0966,1.9344,1.7956,1.6676,7.5864,7.5443,7.4344,7.3288,7.2119,7.0617,6.9332,6.8178,6.7034,6.5674,6.3999,6.2033,5.9258,5.6982,5.6239,5.5469,5.4267,5.2642,5.2231,5.1977,5.1403,5.0948,5.0506,4.9993,4.9657,4.9291,4.8348,4.7645,4.7221,4.6271,4.4907,4.3507,4.2549,4.1042,3.9593,3.8408,3.7339,3.6529,3.6127,3.6003,3.579,3.6042,3.633,3.6119,3.6164,3.6269,3.5892,3.6561,3.6891,3.6697,3.753,3.7828,3.7468,3.7643,3.7576,3.7314,3.6777,3.6166,3.5381,3.4357,3.329,3.2569,3.1847,3.1547,3.1762,3.1923,3.2329,3.3127,3.3611,3.4284,3.4884,3.5669,3.6202,3.6717,3.7255,3.7704,3.831,3.8349,3.8475,3.8926,3.857,3.7583,3.6996,3.7252,3.858,3.8865,3.887,3.8618,3.9192,3.9347,4.0034,4.0905,4.1696,4.2024,4.206,4.2233,4.2665,4.315,4.3321,4.2958,4.2511,4.167,4.1304,3.9873,3.8013,3.6874,3.5199,3.2011,2.8945,2.6331,2.4166,2.2349,2.0484,1.8974,1.7819,7.531,7.5877,7.4889,7.3892,7.2964,7.1681,7.0521,6.9482,6.7752,6.565,6.3388,6.1557,5.9609,5.7892,5.7064,5.6105,5.4506,5.3814,5.2748,5.1827,5.1065,5.0638,5.0167,4.9696,4.9307,4.9039,4.8224,4.7751,4.7714,4.6674,4.5471,4.4207,4.2928,4.139,3.9912,3.8295,3.7112,3.6515,3.6245,3.6068,3.611,3.6254,3.6506,3.6362,3.6535,3.6601,3.6538,3.7016,3.7136,3.7197,3.7819,3.7908,3.7642,3.7843,3.7934,3.7629,3.7138,3.6377,3.5578,3.4509,3.3476,3.2356,3.1775,3.1641,3.1909,3.2276,3.2774,3.3438,3.4066,3.4729,3.5132,3.5851,3.659,3.7049,3.7283,3.7349,3.7312,3.7056,3.6636,3.6552,3.5721,3.4722,3.4094,3.3675,3.5316,3.6813,3.6877,3.6953,3.7556,3.8101,3.8551,3.9182,4.0025,4.0829,4.0773,4.1258,4.1834,4.2359,4.2883,4.2788,4.2469,4.2483,4.1918,4.0565,3.9045,3.7437,3.5466,3.322,3.0618,2.793,2.5748,2.3739,2.1989,2.0076,1.9182,7.4735,7.5571,7.521,7.4526,7.3603,7.252,7.1385,7.0193,6.8096,6.5173,6.201,6.0821,5.9472,5.8186,5.7491,5.6425,5.4928,5.4046,5.2917,5.1901,5.0996,5.042,4.9819,4.9399,4.9084,4.8888,4.8327,4.7751,4.787,4.6808,4.5652,4.4435,4.3126,4.1553,3.9862,3.815,3.6809,3.6403,3.6228,3.6169,3.6236,3.6616,3.6942,3.6814,3.7011,3.6995,3.7016,3.7265,3.7123,3.7197,3.7541,3.7728,3.7631,3.7601,3.7915,3.7638,3.7126,3.6587,3.5714,3.4288,3.3224,3.2251,3.1613,3.1863,3.2152,3.2525,3.281,3.3683,3.4371,3.4724,3.491,3.5803,3.6171,3.6254,3.5916,3.6075,3.5609,3.5279,3.447,3.3854,3.2809,3.1606,3.0891,3.042,3.1833,3.3614,3.4838,3.5102,3.5706,3.637,3.6981,3.7481,3.8182,3.8886,3.9602,4.0384,4.1125,4.1686,4.2215,4.2877,4.2858,4.2863,4.2602,4.1531,3.9876,3.7929,3.6213,3.451,3.2097,2.9484,2.71,2.4619,2.3181,2.1527,2.0809,7.3966,7.4221,7.5029,7.5016,7.4262,7.2944,7.1534,7.0137,6.7696,6.4277,6.0574,5.9654,5.8499,5.7243,5.7007,5.626,5.5168,5.4083,5.3005,5.2297,5.1496,5.0532,4.9961,4.9691,4.952,4.9007,4.8386,4.802,4.7894,4.6674,4.5564,4.4437,4.3051,4.1529,3.9884,3.7995,3.6714,3.6171,3.6346,3.6714,3.7024,3.7388,3.7637,3.7798,3.7847,3.7743,3.7535,3.755,3.734,3.691,3.7763,3.7667,3.7016,3.8021,3.8216,3.7908,3.7535,3.6957,3.6494,3.3914,3.2809,3.2427,3.1959,3.1824,3.1977,3.2266,3.2757,3.3805,3.4057,3.4516,3.4959,3.5305,3.5414,3.5158,3.4827,3.3901,3.3444,3.2189,3.109,2.9732,2.8954,2.8357,2.7489,2.7293,2.8367,3.0031,3.2086,3.3233,3.3743,3.447,3.5107,3.5945,3.6708,3.7688,3.857,3.9585,4.0392,4.095,4.1637,4.2426,4.2925,4.3054,4.2716,4.2167,4.0852,3.9013,3.7643,3.6174,3.326,3.0348,2.7577,2.532,2.4026,2.3032,2.2412,7.3146,7.4199,7.4394,7.4652,7.4828,7.3396,7.1889,7.0151,6.6282,6.2674,6.023,5.9209,5.8309,5.7432,5.7112,5.6551,5.5585,5.5344,5.4394,5.3329,5.2648,5.2345,5.1583,5.0972,5.0511,4.9845,4.9122,4.8182,4.763,4.6429,4.5549,4.446,4.2726,4.1017,3.9466,3.8087,3.7292,3.6955,3.6937,3.7231,3.7863,3.8092,3.8397,3.8865,3.873,3.8502,3.8179,3.8079,3.7595,3.6938,3.7766,3.7488,3.697,3.7873,3.8272,3.773,3.722,3.6207,3.5282,3.3613,3.3081,3.2742,3.2291,3.2178,3.2604,3.274,3.3348,3.3856,3.3992,3.4556,3.4968,3.4606,3.4463,3.3766,3.3066,3.1411,3.0189,2.8249,2.6638,2.5035,2.4018,2.2981,2.2227,2.2563,2.3656,2.5796,2.7718,3.0156,3.1365,3.2335,3.3064,3.4337,3.5285,3.6346,3.7474,3.8651,3.9717,4.0434,4.1355,4.2314,4.2789,4.2997,4.2907,4.2422,4.1394,4.0262,3.8446,3.6485,3.3935,3.1196,2.8777,2.6641,2.5273,2.4571,2.4042,7.2125,7.3327,7.3295,7.3421,7.3718,7.2884,7.1076,6.8174,6.4241,6.1385,5.9532,5.8631,5.7938,5.7459,5.7139,5.7004,5.6063,5.5922,5.5162,5.4043,5.3752,5.2821,5.2232,5.1974,5.1147,5.0373,4.9537,4.861,4.781,4.623,4.4914,4.3426,4.2118,4.0771,3.9515,3.8608,3.7788,3.7409,3.7411,3.7669,3.8185,3.858,3.8932,3.9371,3.9529,3.9247,3.8957,3.85,3.797,3.7461,3.7311,3.7289,3.7124,3.7308,3.7707,3.7213,3.6711,3.5672,3.4506,3.3708,3.3208,3.2888,3.2537,3.2654,3.2892,3.3044,3.3602,3.3958,3.4077,3.4311,3.435,3.3967,3.2506,3.1787,2.9684,2.8016,2.5451,2.3434,2.1155,1.9585,1.836,1.741,1.7085,1.7803,1.8599,2.0914,2.3414,2.6033,2.8804,3.0089,3.1381,3.2713,3.3866,3.5069,3.63,3.7536,3.8716,3.9782,4.0865,4.1952,4.2278,4.2368,4.2519,4.2583,4.1536,4.0307,3.8658,3.6579,3.4347,3.24,3.0578,2.8516,2.6723,2.5974,2.5489,7.1105,7.1718,7.18,7.149,7.1103,7.1047,6.8555,6.4325,6.248,6.0419,5.8516,5.816,5.7703,5.7234,5.6969,5.6812,5.6596,5.6394,5.5478,5.4379,5.3906,5.2926,5.2207,5.1767,5.1165,5.0448,4.9414,4.845,4.7925,4.5826,4.3814,4.2559,4.1792,4.09,4.0085,3.9333,3.8407,3.8105,3.8127,3.8427,3.8788,3.8946,3.9522,3.9924,3.9924,3.9696,3.9268,3.8788,3.8072,3.7541,3.7211,3.6774,3.6732,3.6967,3.7035,3.6832,3.641,3.5561,3.4425,3.3741,3.3175,3.2997,3.3017,3.2873,3.274,3.3078,3.3465,3.358,3.3609,3.371,3.3738,3.1872,2.9992,2.7933,2.5637,2.3053,2.022,1.7891,1.5585,1.3878,1.247,1.1881,1.2657,1.3298,1.5409,1.7707,2.0318,2.2825,2.5544,2.8114,2.957,3.155,3.2618,3.3682,3.5005,3.6855,3.8239,3.9517,4.0386,4.1365,4.1583,4.1922,4.2238,4.2186,4.159,4.043,3.8796,3.7038,3.5112,3.3344,3.1879,3.0033,2.81,2.7146,2.6613,7.0016,7.1111,7.0949,7.0548,6.9761,6.7008,6.4842,6.3576,6.1466,5.9616,5.8027,5.7998,5.7671,5.7201,5.7303,5.7459,5.6956,5.6557,5.6246,5.5377,5.4299,5.371,5.3088,5.2276,5.133,5.0122,4.901,4.8004,4.6238,4.4548,4.3419,4.2159,4.1877,4.1452,4.0921,4.0309,3.9617,3.9191,3.9131,3.9192,3.9536,3.9736,4.0199,4.0443,4.0506,4.0256,3.9827,3.9146,3.8384,3.7783,3.7332,3.6945,3.6739,3.6986,3.7165,3.6746,3.6362,3.5967,3.4687,3.4243,3.3717,3.3123,3.3171,3.3162,3.2909,3.3009,3.3226,3.306,3.2443,3.2216,3.1138,2.9327,2.698,2.4515,2.1852,1.8758,1.5947,1.3437,1.1172,0.9858,0.845,0.9027,0.9549,1.1015,1.3122,1.5208,1.7508,2.0074,2.2848,2.5586,2.7979,2.9934,3.1772,3.2932,3.4852,3.6677,3.8063,3.9296,4.0254,4.1,4.1395,4.1755,4.1995,4.1713,4.1099,4.0212,3.9044,3.7377,3.5896,3.4733,3.3284,3.1352,2.967,2.8768,2.7915,6.8396,6.9023,6.8821,6.8243,6.7115,6.4244,6.289,6.2397,6.0554,5.8955,5.7916,5.8186,5.796,5.7384,5.756,5.756,5.7404,5.6875,5.6219,5.5317,5.4591,5.3658,5.2984,5.2246,5.1005,4.9683,4.8427,4.7256,4.553,4.4063,4.3001,4.2441,4.2441,4.1997,4.1551,4.1247,4.1105,4.0574,4.037,4.0248,4.037,4.0471,4.088,4.08,4.0862,4.0492,4.0021,3.9253,3.8548,3.7848,3.7527,3.7261,3.6942,3.7051,3.6842,3.6412,3.6251,3.5736,3.4801,3.4486,3.3881,3.328,3.3205,3.2956,3.2956,3.2901,3.2716,3.2553,3.1304,3.0035,2.8419,2.651,2.3877,2.1074,1.8006,1.478,1.2079,0.9445,0.7741,0.641,0.6436,0.7004,0.8071,0.9472,1.1222,1.3767,1.6321,1.8841,2.1511,2.4335,2.6588,2.8575,3.0759,3.2583,3.4527,3.6546,3.8018,3.9311,4.0423,4.1024,4.1339,4.1418,4.164,4.1175,4.0621,3.9829,3.915,3.8256,3.6922,3.5816,3.4809,3.3442,3.18,3.0445,2.9684,6.6598,6.6491,6.5966,6.538,6.4166,6.2849,6.1982,6.1379,6.0087,5.8844,5.8267,5.867,5.8363,5.7724,5.7816,5.7688,5.7478,5.7058,5.6158,5.4934,5.4267,5.3343,5.2104,5.0992,5.0073,4.8875,4.7677,4.645,4.559,4.4162,4.2979,4.2538,4.2333,4.201,4.1848,4.1848,4.1728,4.1551,4.1247,4.0963,4.0698,4.1025,4.1331,4.0882,4.0555,4.0147,3.9698,3.907,3.8363,3.7924,3.7543,3.7416,3.72,3.7222,3.648,3.6307,3.6293,3.5882,3.5258,3.4825,3.4249,3.3611,3.3083,3.2846,3.2912,3.2544,3.2331,3.1371,3.0325,2.8364,2.6686,2.4163,2.137,1.833,1.5326,1.2651,1.0288,0.8612,0.7701,0.6976,0.7657,0.8233,0.9281,1.098,1.2607,1.3989,1.585,1.8397,2.078,2.3612,2.5808,2.7741,2.9863,3.2079,3.4186,3.6123,3.8006,3.931,4.0604,4.1155,4.1518,4.1394,4.1205,4.0696,4.0144,3.9951,3.937,3.8585,3.7825,3.685,3.6008,3.5389,3.4158,3.2633,3.1734,6.5742,6.5966,6.5231,6.4209,6.3265,6.2579,6.1817,6.1051,6.1138,6.0185,5.8966,5.8989,5.8968,5.8391,5.8353,5.8198,5.7889,5.715,5.6232,5.5176,5.4213,5.3106,5.1818,5.055,4.9425,4.8188,4.684,4.5345,4.4169,4.3346,4.2783,4.2224,4.2042,4.218,4.1903,4.1903,4.1893,4.2031,4.2052,4.1672,4.1331,4.1188,4.1331,4.0882,4.0555,4.0269,3.982,3.9389,3.8883,3.83,3.7999,3.7553,3.6933,3.7334,3.7349,3.7041,3.6937,3.6568,3.5977,3.5231,3.4635,3.4075,3.3553,3.324,3.2943,3.2395,3.1526,3.047,2.9028,2.6996,2.4823,2.182,1.8998,1.6197,1.3425,1.1352,0.9339,0.8906,0.831,0.8878,0.957,1.05,1.1561,1.2675,1.4072,1.5659,1.7305,1.9317,2.1194,2.3609,2.5769,2.7758,2.9499,3.1647,3.3804,3.6142,3.8145,3.9813,4.1101,4.1522,4.1725,4.1454,4.1145,4.0338,3.9728,3.9847,3.9801,3.9224,3.8485,3.7844,3.7573,3.7126,3.6641,3.5347,3.436,6.4533,6.439,6.4009,6.3564,6.3193,6.3005,6.2395,6.1856,6.2047,6.1558,6.0303,5.9945,5.9469,5.8939,5.8843,5.8704,5.8214,5.7409,5.662,5.5627,5.418,5.2817,5.1511,5.0087,4.8463,4.7064,4.5507,4.4013,4.2879,4.2391,4.213,4.1863,4.1978,4.1956,4.1841,4.1726,4.1943,4.2214,4.2397,4.2226,4.1813,4.1735,4.1615,4.1167,4.0596,4.031,3.9878,3.9445,3.9181,3.8858,3.8616,3.8465,3.797,3.8009,3.7884,3.762,3.7543,3.7375,3.6789,3.6138,3.539,3.4891,3.4125,3.3859,3.3774,3.3132,3.1717,3.0545,2.8591,2.6652,2.4154,2.1364,1.8863,1.606,1.5026,1.3437,1.3121,1.318,1.3653,1.4741,1.5325,1.5764,1.6621,1.73,1.8489,1.9031,2.0394,2.1337,2.3019,2.443,2.6306,2.8125,3.0128,3.1713,3.3729,3.6253,3.8723,4.0198,4.1587,4.2034,4.2317,4.1674,4.1037,4.0875,4.0636,4.0359,4.0179,4.0088,3.9652,3.9132,3.9003,3.8887,3.8338,3.7881,3.714,6.3558,6.2847,6.3164,6.3348,6.3594,6.3678,6.3407,6.3007,6.3073,6.2868,6.2145,6.1211,6.018,5.9567,5.9263,5.8815,5.8383,5.791,5.7135,5.5811,5.4565,5.2833,5.1049,4.9511,4.7823,4.6029,4.4298,4.3161,4.2217,4.1934,4.1852,4.1655,4.1612,4.1455,4.1455,4.1521,4.1559,4.1928,4.2123,4.2319,4.2279,4.2278,4.1877,4.1331,4.074,4.0166,3.9734,3.9445,3.9321,3.9156,3.9096,3.8779,3.8798,3.8405,3.8214,3.7998,3.7986,3.7703,3.7436,3.678,3.657,3.6112,3.4979,3.4588,3.4661,3.4049,3.2559,3.1177,2.9269,2.6884,2.4289,2.2004,1.9602,1.7733,1.7009,1.677,1.7258,1.7829,1.9085,2.0402,2.0914,2.1146,2.1712,2.2365,2.2773,2.3235,2.382,2.4556,2.5509,2.674,2.8239,2.9908,3.1585,3.3052,3.4181,3.6418,3.9112,4.0695,4.1981,4.2592,4.2968,4.2812,4.2677,4.2363,4.2032,4.1821,4.1709,4.1617,4.1085,4.0634,4.0477,4.0525,3.9893,3.9508,3.9692,6.3743,6.4045,6.4158,6.4023,6.3954,6.4661,6.4425,6.3677,6.422,6.4239,6.3321,6.2508,6.1428,6.0329,6.0081,5.9797,5.9313,5.8654,5.7299,5.5854,5.465,5.2721,5.0818,4.9157,4.734,4.5355,4.3692,4.2794,4.1943,4.1677,4.1325,4.0753,4.0731,4.0597,4.0329,4.0528,4.0947,4.1429,4.176,4.207,4.2275,4.214,4.1855,4.1331,4.074,4.031,4.0022,3.9445,3.9321,3.9176,3.9136,3.8905,3.8779,3.8928,3.8728,3.8569,3.842,3.8322,3.795,3.7488,3.7187,3.717,3.6558,3.649,3.6461,3.6332,3.5254,3.4717,3.2498,2.9755,2.7425,2.5471,2.3342,2.2023,2.1019,2.1558,2.1916,2.3302,2.4639,2.5554,2.6373,2.6584,2.685,2.7289,2.7408,2.7815,2.7893,2.8619,2.927,2.9885,3.0557,3.1901,3.3492,3.4066,3.5091,3.6982,3.9367,4.0985,4.2634,4.3817,4.4466,4.4609,4.4376,4.443,4.4048,4.3666,4.3537,4.3528,4.3122,4.2716,4.2304,4.1989,4.1492,4.1274,4.1483]},{"header":{"parameterUnit":"m.s-1","parameterCategory":1,"la1":31.0,"la2":29.5877,"lo1":-88.7671,"lo2":-86.6584,"dy":0.0162,"dx":0.0185,"nx":115,"ny":88,"refTime":"2023-05-25T00:00:00:Z","depth":0,"parameterNumber":3,"parameterNumberName":"V-component_of_WINDS"},"data":[0.0,0.0,0.0,0.0,0.0,0.0,0.0,0.0,0.0,0.0,0.0,0.0,0.0,0.0,0.0,0.0,0.0,0.0,0.0,0.0,0.0,0.0,0.0,0.0,0.0,0.0,0.0,0.0,0.0,0.0,0.0,0.0,0.0,0.0,0.0,0.0,0.0,0.0,0.0,0.0,0.0,0.0,0.0,0.0,0.0,0.0,0.0,0.0,0.0,0.0,0.0,0.0,0.0,0.0,0.0,0.0,0.0,0.0,0.0,0.0,0.0,0.0,0.0,0.0,0.0,0.0,0.0,0.0,0.0,0.0,0.0,0.0,0.0,0.0,0.0,0.0,0.0,0.0,0.0,0.0,0.0,0.0,0.0,0.0,0.0,0.0,0.0,0.0,0.0,0.0,0.0,0.0,0.0,0.0,0.0,0.0,0.0,0.0,0.0,0.0,0.0,0.0,0.0,0.0,0.0,0.0,0.0,0.0,0.0,0.0,0.0,0.0,0.0,0.0,0.0,0.0,0.0,0.0,0.0,0.0,0.0,0.0,0.0,0.0,0.0,0.0,0.0,0.0,0.0,0.0,0.0,0.0,0.0,0.0,0.0,0.0,0.0,0.0,0.0,0.0,0.0,0.0,0.0,0.0,0.0,0.0,0.0,0.0,0.0,0.0,0.0,0.0,0.0,0.0,0.0,0.0,0.0,0.0,0.0,0.0,0.0,0.0,0.0,0.0,0.0,0.0,0.0,0.0,0.0,0.0,0.0,0.0,0.0,0.0,0.0,0.0,0.0,0.0,0.0,0.0,0.0,0.0,0.0,0.0,0.0,0.0,0.0,0.0,0.0,0.0,0.0,0.0,0.0,0.0,0.0,0.0,0.0,0.0,0.0,0.0,0.0,0.0,0.0,0.0,0.0,0.0,0.0,0.0,0.0,0.0,0.0,0.0,0.0,0.0,0.0,0.0,0.0,0.0,0.0,0.0,0.0,0.0,0.0,0.0,0.0,0.0,0.0,0.0,0.0,0.0,0.0,0.0,0.0,0.0,0.0,0.0,0.0,0.0,0.0,0.0,0.0,0.0,0.0,0.0,0.0,0.0,0.0,0.0,0.0,0.0,0.0,0.0,0.0,0.0,0.0,0.0,0.0,0.0,0.0,0.0,0.0,0.0,0.0,0.0,0.0,0.0,0.0,0.0,0.0,0.0,0.0,0.0,0.0,0.0,0.0,0.0,0.0,0.0,0.0,0.0,0.0,0.0,0.0,0.0,0.0,0.0,0.0,0.0,0.0,0.0,0.0,0.0,0.0,0.0,0.0,0.0,0.0,0.0,0.0,0.0,0.0,0.0,0.0,0.0,0.0,0.0,0.0,0.0,0.0,0.0,0.0,0.0,0.0,0.0,0.0,0.0,0.0,0.0,0.0,0.0,0.0,0.0,0.0,0.0,0.0,0.0,0.0,0.0,0.0,0.0,0.0,0.0,0.0,0.0,0.0,0.0,0.0,0.0,0.0,0.0,0.0,0.0,0.0,0.0,0.0,0.0,0.0,0.0,0.0,0.0,0.0,0.0,0.0,0.0,0.0,0.0,0.0,0.0,0.0,0.0,0.0,0.0,0.0,0.0,0.0,0.0,0.0,0.0,0.0,0.0,0.0,0.0,0.0,0.0,0.0,0.0,0.0,0.0,0.0,0.0,0.0,0.0,0.0,0.0,0.0,0.0,0.0,0.0,0.0,0.0,0.0,0.0,0.0,0.0,0.0,0.0,0.0,0.0,0.0,0.0,0.0,0.0,0.0,0.0,0.0,0.0,0.0,0.0,0.0,0.0,0.0,0.0,0.0,0.0,0.0,0.0,0.0,0.0,0.0,0.0,0.0,0.0,0.0,0.0,0.0,0.0,0.0,0.0,0.0,0.0,0.0,0.0,0.0,0.0,0.0,0.0,0.0,0.0,0.0,0.0,0.0,0.0,0.0,0.0,0.0,0.0,0.0,0.0,0.0,0.0,0.0,0.0,0.0,0.0,0.0,0.0,0.0,0.0,0.0,0.0,0.0,0.0,0.0,0.0,0.0,0.0,0.0,0.0,0.0,0.0,0.0,0.0,0.0,0.0,0.0,0.0,0.0,0.0,0.0,0.0,0.0,0.0,0.0,0.0,0.0,0.0,0.0,0.0,0.0,0.0,0.0,0.0,0.0,0.0,0.0,0.0,0.0,0.0,0.0,0.0,0.0,0.0,0.0,0.0,0.0,0.0,0.0,0.0,0.0,0.0,0.0,0.0,0.0,0.0,0.0,0.0,0.0,0.0,0.0,0.0,0.0,0.0,0.0,0.0,0.0,0.0,0.0,0.0,0.0,0.0,0.0,0.0,0.0,0.0,0.0,0.0,0.0,0.0,0.0,0.0,0.0,0.0,0.0,0.0,0.0,0.0,0.0,0.0,0.0,0.0,0.0,0.0,0.0,0.0,0.0,0.0,0.0,0.0,0.0,0.0,0.0,0.0,0.0,0.0,0.0,0.0,0.0,0.0,0.0,0.0,0.0,0.0,0.0,0.0,0.0,0.0,0.0,0.0,0.0,0.0,0.0,0.0,0.0,0.0,0.0,0.0,0.0,0.0,0.0,0.0,0.0,0.0,0.0,0.0,0.0,0.0,0.0,0.0,0.0,0.0,0.0,0.0,0.0,0.0,0.0,0.0,0.0,0.0,0.0,0.0,0.0,0.0,0.0,0.0,0.0,0.0,0.0,0.0,0.0,0.0,0.0,0.0,0.0,0.0,0.0,0.0,0.0,0.0,0.0,0.0,0.0,0.0,0.0,0.0,0.0,0.0,0.0,0.0,0.0,0.0,0.0,0.0,0.0,0.0,0.0,0.0,0.0,0.0,0.0,0.0,0.0,0.0,0.0,0.0,0.0,0.0,0.0,0.0,0.0,0.0,0.0,0.0,0.0,0.0,0.0,0.0,0.0,0.0,0.0,0.0,0.0,0.0,0.0,0.0,0.0,0.0,0.0,0.0,0.0,0.0,0.0,0.0,0.0,0.0,0.0,0.0,0.0,0.0,0.0,0.0,0.0,0.0,0.0,0.0,0.0,0.0,0.0,0.0,0.0,0.0,0.0,0.0,0.0,0.0,0.0,0.0,0.0,0.0,0.0,0.0,0.0,0.0,0.0,0.0,0.0,0.0,0.0,0.0,0.0,0.0,0.0,0.0,0.0,0.0,0.0,0.0,0.0,0.0,0.0,0.0,0.0,0.0,0.0,0.0,0.0,0.0,0.0,0.0,0.0,0.0,0.0,0.0,0.0,0.0,0.0,0.0,0.0,0.0,0.0,0.0,0.0,0.0,0.0,0.0,0.0,0.0,0.0,0.0,0.0,0.0,0.0,0.0,0.0,0.0,0.0,0.0,0.0,0.0,0.0,0.0,0.0,0.0,0.0,0.0,0.0,0.0,0.0,0.0,0.0,0.0,0.0,0.0,0.0,0.0,0.0,0.0,0.0,0.0,0.0,0.0,0.0,0.0,0.0,0.0,0.0,0.0,0.0,0.0,0.0,0.0,0.0,0.0,0.0,0.0,0.0,0.0,0.0,0.0,0.0,0.0,0.0,0.0,0.0,0.0,0.0,0.0,0.0,0.0,0.0,0.0,0.0,0.0,0.0,0.0,0.0,0.0,0.0,0.0,0.0,0.0,0.0,0.0,0.0,0.0,0.0,0.0,0.0,0.0,0.0,0.0,0.0,0.0,0.0,0.0,0.0,0.0,0.0,0.0,0.0,0.0,0.0,0.0,0.0,0.0,0.0,0.0,0.0,0.0,0.0,0.0,0.0,0.0,0.0,0.0,0.0,0.0,0.0,0.0,0.0,0.0,0.0,0.0,0.0,0.0,0.0,0.0,0.0,0.0,0.0,0.0,0.0,0.0,0.0,0.0,0.0,0.0,0.0,0.0,0.0,0.0,0.0,0.0,0.0,0.0,0.0,0.0,0.0,0.0,0.0,0.0,0.0,0.0,0.0,0.0,0.0,0.0,0.0,0.0,0.0,0.0,0.0,0.0,0.0,0.0,0.0,0.0,0.0,0.0,0.0,0.0,0.0,0.0,0.0,0.0,0.0,0.0,0.0,0.0,0.0,0.0,0.0,0.0,0.0,0.0,0.0,0.0,0.0,0.0,0.0,0.0,0.0,0.0,0.0,0.0,0.0,0.0,0.0,0.0,0.0,0.0,0.0,0.0,0.0,0.0,0.0,0.0,0.0,0.0,0.0,0.0,0.0,0.0,0.0,0.0,0.0,0.0,1.769,0.0,0.0,0.0,0.0,0.0,0.0,0.0,0.0,0.0,0.0,0.0,0.0,0.0,0.0,0.0,0.0,0.0,0.0,0.0,0.0,0.0,0.0,0.0,0.0,0.0,0.0,0.0,0.0,0.0,0.0,0.0,0.0,0.0,0.0,0.0,0.0,0.0,0.0,0.0,0.0,0.0,0.0,0.0,0.0,0.0,0.0,0.0,0.0,0.0,0.0,0.0,0.0,0.0,0.0,0.0,0.0,0.0,0.0,0.0,0.0,0.0,0.0,0.0,0.0,0.0,0.0,0.0,0.0,0.0,0.0,0.0,0.0,0.0,0.0,0.0,0.0,0.0,0.0,0.0,0.0,0.0,0.0,0.0,0.0,0.0,0.0,0.0,0.0,0.0,0.0,0.0,0.0,0.0,0.0,0.0,0.0,0.0,0.0,0.0,0.0,0.0,0.0,0.0,0.0,0.0,0.0,0.0,0.0,0.0,0.0,2.289,2.2265,2.0418,1.8674,1.7084,0.0,0.0,0.0,0.0,0.0,0.0,0.0,0.0,0.0,0.0,0.0,0.0,0.0,0.0,0.0,0.0,0.0,0.0,0.0,0.0,0.0,0.0,0.0,0.0,0.0,0.0,0.0,0.0,0.0,0.0,0.0,0.0,0.0,0.0,0.0,0.0,0.0,0.0,0.0,0.0,0.0,0.0,0.0,0.0,0.0,0.0,0.0,0.0,0.0,0.0,0.0,0.0,0.0,0.0,0.0,0.0,0.0,0.0,0.0,0.0,0.0,0.0,0.0,0.0,0.0,0.0,0.0,0.0,0.0,0.0,0.0,0.0,0.0,0.0,0.0,0.0,0.0,0.0,0.0,0.0,0.0,0.0,0.0,0.0,0.0,0.0,0.0,0.0,0.0,0.0,0.0,0.0,0.0,0.0,0.0,0.0,0.0,0.0,0.0,0.0,0.0,0.0,0.0,0.0,0.0,0.0,0.0,0.0,0.0,0.0,0.0,0.0,2.1311,1.9336,1.7274,0.0,0.0,0.0,0.0,0.0,0.0,0.0,0.0,0.0,0.0,0.0,0.0,0.0,0.0,0.0,0.0,0.0,0.0,0.0,0.0,0.0,0.0,0.0,0.0,0.0,0.0,0.0,0.0,0.0,0.0,0.0,0.0,0.0,0.0,0.0,0.0,0.0,0.0,0.0,0.0,0.0,0.0,0.0,0.0,0.0,0.0,0.0,0.0,0.0,0.0,0.0,0.0,0.0,0.0,0.0,0.0,0.0,0.0,0.0,0.0,0.0,0.0,0.0,0.0,0.0,0.0,0.0,0.0,0.0,0.0,0.0,0.0,0.0,0.0,0.0,0.0,0.0,0.0,0.0,0.0,0.0,0.0,0.0,0.0,0.0,0.0,0.0,0.0,0.0,0.0,0.0,0.0,0.0,0.0,0.0,0.0,0.0,0.0,0.0,0.0,0.0,0.0,0.0,0.0,0.0,0.0,0.0,0.0,0.0,0.0,2.3189,2.4431,2.279,0.0,1.8874,0.0,0.0,0.0,0.0,0.0,0.0,0.0,0.0,0.0,0.0,0.0,0.0,0.0,0.0,0.0,0.0,0.0,0.0,0.0,0.0,0.0,0.0,0.0,0.0,0.0,0.0,0.0,0.0,0.0,0.0,0.0,0.0,0.0,0.0,0.0,0.0,0.0,0.0,0.0,0.0,0.0,0.0,0.0,0.0,0.0,0.0,0.0,0.0,0.0,0.0,0.0,0.0,0.0,0.0,0.0,0.0,0.0,0.0,0.0,0.0,0.0,0.0,0.0,0.0,0.0,0.0,0.0,0.0,0.0,0.0,0.0,0.0,0.0,0.0,0.0,0.0,0.0,0.0,0.0,0.0,0.0,0.0,0.0,0.0,0.0,0.0,0.0,0.0,0.0,0.0,0.0,0.0,0.0,0.0,0.0,0.0,0.0,0.0,0.0,0.0,0.0,0.0,0.0,0.0,0.0,0.0,0.0,0.0,0.0,0.0,2.4562,2.4459,2.1993,1.9998,0.0,0.0,0.0,0.0,0.0,0.0,0.0,0.0,0.0,0.0,0.0,0.0,0.0,0.0,0.0,0.0,0.0,0.0,0.0,0.0,0.0,0.0,0.0,0.0,0.0,0.0,0.0,0.0,0.0,0.0,0.0,0.0,0.0,0.0,0.0,0.0,0.0,0.0,0.0,0.0,0.0,0.0,0.0,0.0,0.0,0.0,0.0,0.0,0.0,0.0,0.0,0.0,0.0,0.0,0.0,0.0,0.0,0.0,0.0,0.0,0.0,0.0,0.0,0.0,0.0,0.0,0.0,0.0,0.0,0.0,0.0,0.0,0.0,0.0,0.0,0.0,0.0,0.0,0.0,0.0,0.0,0.0,0.0,0.0,0.0,0.0,0.0,0.0,0.0,0.0,0.0,0.0,0.0,0.0,0.0,0.0,0.0,0.0,0.0,0.0,0.0,0.0,0.0,0.0,0.0,0.0,0.0,0.0,0.0,0.0,2.4877,2.519,2.4596,2.2611,2.0535,1.8396,0.0,0.0,0.0,0.0,0.0,0.0,0.0,0.0,0.0,0.0,0.0,0.0,0.0,0.0,0.0,0.0,0.0,0.0,0.0,0.0,0.0,0.0,0.0,0.0,0.0,0.0,0.0,0.0,0.0,0.0,0.0,0.0,0.0,0.0,0.0,0.0,0.0,0.0,0.0,0.0,0.0,0.0,0.0,0.0,0.0,0.0,0.0,0.0,0.0,0.0,0.0,0.0,0.0,0.0,0.0,0.0,0.0,0.0,0.0,0.0,0.0,0.0,0.0,0.0,0.0,0.0,0.0,0.0,0.0,0.0,0.0,0.0,0.0,0.0,0.0,0.0,0.0,0.0,0.0,0.0,0.0,0.0,0.0,0.0,0.0,0.0,0.0,0.0,0.0,0.0,0.0,0.0,0.0,0.0,0.0,0.0,0.0,0.0,0.0,0.0,0.0,0.0,0.0,0.0,0.0,0.0,0.0,0.0,2.7495,2.5152,2.4377,2.5585,2.5838,2.351,0.0,0.0,0.0,0.0,0.0,0.0,0.0,0.0,0.0,0.0,0.0,0.0,0.0,0.0,0.0,0.0,0.0,0.0,0.0,0.0,0.0,0.0,0.0,0.0,0.0,0.0,0.0,0.0,0.0,0.0,0.0,0.0,0.0,0.0,0.0,0.0,0.0,0.0,0.0,0.0,0.0,0.0,0.0,0.0,0.0,0.0,0.0,0.0,0.0,0.0,0.0,0.0,0.0,0.0,0.0,0.0,0.0,0.0,0.0,0.0,0.0,0.0,0.0,0.0,0.0,0.0,0.0,0.0,0.0,0.0,0.0,0.0,0.0,0.0,0.0,0.0,0.0,0.0,0.0,0.0,0.0,0.0,0.0,0.0,0.0,0.0,0.0,0.0,0.0,0.0,0.0,0.0,0.0,0.0,0.0,0.0,0.0,0.0,0.0,0.0,0.0,0.0,0.0,0.0,0.0,0.0,0.0,0.0,0.0,2.135,2.2003,2.4474,2.857,2.4265,2.1637,0.0,0.0,0.0,0.0,0.0,0.0,0.0,0.0,0.0,0.0,0.0,0.0,0.0,0.0,0.0,0.0,0.0,0.0,0.0,0.0,0.0,0.0,0.0,0.0,0.0,0.0,0.0,0.0,0.0,0.0,0.0,0.0,0.0,0.0,0.0,0.0,0.0,0.0,0.0,0.0,0.0,0.0,0.0,0.0,0.0,0.0,0.0,0.0,0.0,0.0,0.0,0.0,0.0,0.0,0.0,0.0,0.0,0.0,0.0,0.0,0.0,0.0,0.0,0.0,0.0,0.0,0.0,0.0,0.0,0.0,0.0,0.0,0.0,0.0,0.0,0.0,0.0,0.0,0.0,0.0,0.0,0.0,0.0,0.0,0.0,0.0,0.0,0.0,0.0,0.0,0.0,0.0,0.0,0.0,0.0,0.0,0.0,0.0,0.0,0.0,0.0,0.0,0.0,0.0,0.0,0.0,0.0,0.0,0.0,2.0749,0.0,2.5841,2.8255,2.373,2.0725,0.0,0.0,0.0,0.0,0.0,0.0,0.0,0.0,0.0,0.0,0.0,0.0,0.0,0.0,0.0,0.0,0.0,0.0,0.0,0.0,0.0,0.0,0.0,0.0,0.0,0.0,0.0,0.0,0.0,0.0,0.0,0.0,0.0,0.0,0.0,0.0,0.0,0.0,0.0,0.0,0.0,0.0,0.0,0.0,0.0,0.0,0.0,0.0,0.0,0.0,0.0,0.0,0.0,0.0,0.0,0.0,0.0,0.0,0.0,0.0,0.0,0.0,0.0,0.0,0.0,0.0,0.0,0.0,0.0,0.0,0.0,0.0,0.0,0.0,0.0,0.0,0.0,0.0,0.0,0.0,0.0,0.0,0.0,0.0,0.0,0.0,0.0,0.0,0.0,0.0,0.0,0.0,0.0,0.0,0.0,0.0,0.0,0.0,0.0,0.0,0.0,0.0,0.0,0.0,0.0,0.0,0.0,0.0,2.1593,2.69,2.9031,2.8258,2.4482,2.4635,2.1076,0.0,0.0,0.0,0.0,0.0,0.0,0.0,0.0,0.0,0.0,0.0,0.0,0.0,0.0,0.0,0.0,0.0,0.0,0.0,0.0,0.0,0.0,0.0,0.0,0.0,0.0,0.0,0.0,0.0,0.0,0.0,0.0,0.0,0.0,0.0,0.0,0.0,0.0,0.0,0.0,0.0,0.0,0.0,0.0,0.0,0.0,0.0,0.0,0.0,0.0,0.0,0.0,0.0,0.0,0.0,0.0,0.0,0.0,0.0,0.0,0.0,0.0,0.0,0.0,0.0,0.0,0.0,0.0,0.0,0.0,0.0,0.0,0.0,0.0,0.0,0.0,0.0,0.0,0.0,0.0,0.0,0.0,0.0,0.0,0.0,0.0,0.0,0.0,0.0,0.0,0.0,0.0,0.0,0.0,0.0,0.0,0.0,0.0,0.0,0.0,0.0,0.0,0.0,0.0,0.0,0.0,0.0,0.0,0.0,2.472,2.7039,2.8746,2.941,2.4024,2.1414,0.0,0.0,0.0,0.0,0.0,0.0,0.0,0.0,0.0,0.0,0.0,0.0,0.0,0.0,0.0,0.0,0.0,0.0,0.0,0.0,0.0,0.0,0.0,0.0,0.0,0.0,0.0,0.0,0.0,0.0,0.0,0.0,0.0,0.0,0.0,0.0,0.0,0.0,0.0,0.0,0.0,0.0,0.0,0.0,0.0,0.0,0.0,0.0,0.0,0.0,0.0,0.0,0.0,0.0,0.0,0.0,0.0,0.0,0.0,0.0,0.0,0.0,0.0,0.0,0.0,0.0,0.0,0.0,0.0,0.0,0.0,0.0,0.0,0.0,0.0,0.0,0.0,0.0,0.0,0.0,0.0,0.0,0.0,0.0,0.0,0.0,0.0,0.0,0.0,0.0,0.0,0.0,0.0,0.0,0.0,0.0,0.0,0.0,0.0,0.0,0.0,0.0,0.0,0.0,0.0,0.0,0.0,0.0,0.0,2.9633,3.0966,3.1758,3.1743,2.5782,2.307,2.3925,0.0,0.0,0.0,0.0,0.0,0.0,0.0,0.0,0.0,0.0,0.0,0.0,0.0,0.0,0.0,0.0,0.0,0.0,0.0,0.0,0.0,0.0,0.0,0.0,0.0,0.0,0.0,0.0,0.0,0.0,0.0,0.0,0.0,0.0,0.0,0.0,0.0,0.0,0.0,0.0,0.0,0.0,0.0,0.0,0.0,0.0,0.0,0.0,0.0,0.0,0.0,0.0,0.0,0.0,0.0,0.0,0.0,0.0,0.0,0.0,0.0,0.0,0.0,0.0,0.0,0.0,0.0,0.0,0.0,0.0,0.0,0.0,0.0,0.0,0.0,0.0,0.0,0.0,0.0,0.0,0.0,0.0,0.0,0.0,0.0,0.0,0.0,0.0,0.0,0.0,0.0,0.0,0.0,0.0,0.0,0.0,0.0,0.0,0.0,0.0,0.0,0.0,0.0,0.0,0.0,0.0,0.0,0.0,3.9901,3.9774,3.7178,3.1976,2.968,2.6054,0.0,0.0,0.0,0.0,0.0,0.0,0.0,0.0,0.0,0.0,0.0,0.0,0.0,0.0,0.0,0.0,0.0,0.0,0.0,0.0,0.0,0.0,0.0,0.0,0.0,0.0,0.0,0.0,0.0,0.0,0.0,0.0,0.0,0.0,0.0,0.0,0.0,0.0,0.0,0.0,0.0,0.0,0.0,0.0,0.0,0.0,0.0,0.0,0.0,0.0,0.0,0.0,0.0,0.0,0.0,0.0,0.0,0.0,0.0,0.0,0.0,0.0,0.0,0.0,0.0,0.0,0.0,0.0,0.0,0.0,0.0,0.0,0.0,0.0,0.0,0.0,0.0,0.0,0.0,0.0,0.0,0.0,0.0,0.0,0.0,0.0,0.0,0.0,0.0,0.0,0.0,0.0,0.0,0.0,0.0,0.0,0.0,0.0,0.0,0.0,0.0,0.0,0.0,0.0,0.0,0.0,0.0,0.0,0.0,4.6054,4.6119,4.388,3.9276,3.3539,2.9867,0.0,0.0,0.0,0.0,0.0,0.0,0.0,0.0,0.0,0.0,0.0,0.0,0.0,0.0,0.0,0.0,0.0,0.0,0.0,0.0,0.0,0.0,0.0,0.0,0.0,0.0,0.0,0.0,0.0,0.0,0.0,0.0,0.0,0.0,0.0,0.0,0.0,0.0,0.0,0.0,0.0,0.0,0.0,0.0,0.0,0.0,0.0,0.0,0.0,0.0,0.0,0.0,0.0,0.0,0.0,0.0,0.0,0.0,0.0,0.0,0.0,0.0,0.0,0.0,0.0,0.0,0.0,0.0,0.0,0.0,0.0,0.0,0.0,0.0,0.0,0.0,0.0,0.0,0.0,0.0,0.0,0.0,0.0,0.0,0.0,0.0,0.0,0.0,0.0,0.0,0.0,0.0,0.0,0.0,0.0,0.0,0.0,0.0,0.0,0.0,0.0,0.0,0.0,0.0,0.0,0.0,0.0,0.0,4.6483,4.9508,4.9541,4.8127,4.5351,3.9052,3.4536,0.0,0.0,0.0,0.0,0.0,0.0,0.0,0.0,0.0,0.0,0.0,0.0,0.0,0.0,0.0,0.0,0.0,0.0,0.0,0.0,0.0,0.0,0.0,0.0,0.0,0.0,0.0,0.0,0.0,0.0,0.0,0.0,0.0,0.0,0.0,0.0,0.0,0.0,0.0,0.0,0.0,0.0,0.0,0.0,0.0,0.0,0.0,0.0,0.0,0.0,0.0,0.0,0.0,0.0,0.0,0.0,0.0,0.0,0.0,0.0,0.0,0.0,0.0,0.0,0.0,0.0,0.0,0.0,0.0,0.0,0.0,0.0,0.0,0.0,0.0,0.0,0.0,0.0,0.0,0.0,0.0,0.0,0.0,0.0,0.0,0.0,0.0,0.0,0.0,0.0,0.0,0.0,0.0,0.0,0.0,0.0,0.0,0.0,0.0,0.0,0.0,0.0,0.0,0.0,0.0,0.0,0.0,0.0,4.8882,5.142,5.136,5.0895,4.997,4.4797,3.9296,0.0,0.0,0.0,0.0,0.0,0.0,0.0,0.0,0.0,0.0,0.0,0.0,0.0,0.0,0.0,0.0,0.0,0.0,0.0,0.0,0.0,0.0,0.0,0.0,0.0,0.0,0.0,0.0,0.0,0.0,0.0,0.0,0.0,0.0,0.0,0.0,0.0,0.0,0.0,0.0,0.0,0.0,0.0,0.0,0.0,0.0,0.0,0.0,0.0,0.0,0.0,0.0,0.0,0.0,0.0,0.0,0.0,0.0,0.0,0.0,0.0,0.0,0.0,0.0,0.0,0.0,0.0,0.0,0.0,0.0,0.0,0.0,0.0,0.0,0.0,0.0,0.0,0.0,0.0,0.0,0.0,0.0,0.0,0.0,0.0,0.0,0.0,0.0,0.0,0.0,0.0,0.0,0.0,0.0,0.0,0.0,0.0,0.0,0.0,0.0,0.0,0.0,0.0,0.0,0.0,0.0,0.0,0.0,5.2253,5.463,5.467,5.3918,5.2414,4.6297,4.1136,0.0,0.0,0.0,0.0,0.0,0.0,0.0,0.0,0.0,0.0,0.0,0.0,0.0,0.0,0.0,0.0,0.0,0.0,0.0,0.0,0.0,0.0,0.0,0.0,0.0,0.0,0.0,0.0,0.0,0.0,0.0,0.0,0.0,0.0,0.0,0.0,0.0,0.0,0.0,0.0,0.0,0.0,0.0,0.0,0.0,0.0,0.0,0.0,0.4245,0.0,0.0,0.0,0.0,0.0,0.0,0.0,0.0,0.0,0.0,0.0,0.0,0.0,0.0,0.0,0.0,0.0,0.0,0.0,0.0,0.0,0.0,0.0,0.0,0.0,0.0,0.0,0.0,0.0,0.0,0.0,0.0,0.0,0.0,0.0,0.0,0.0,0.0,0.0,0.0,0.0,0.0,0.0,0.0,0.0,0.0,0.0,0.0,0.0,0.0,0.0,0.0,0.0,0.0,0.0,0.0,0.0,0.0,0.0,5.409,5.6076,5.57,5.5025,5.3989,4.8816,4.4042,0.0,0.0,0.0,0.0,0.0,0.0,0.0,0.0,0.0,0.0,0.0,0.0,0.0,0.0,0.0,0.0,0.0,0.0,0.0,0.0,0.0,0.0,0.0,0.0,0.0,0.0,0.0,0.0,0.0,0.0,0.0,0.0,0.0,0.0,0.0,0.0,0.0,0.0,0.0,0.0,0.0,0.0,0.0,0.0,0.0,0.0,0.0,0.0,0.0,0.0,0.0,0.0,0.0,0.0,0.0,0.0,0.0,0.0,0.0,0.0,0.0,0.0,0.0,0.0,0.0,0.0,0.0,0.0,0.0,0.0,0.0,0.0,0.0,0.0,0.0,0.0,0.0,0.0,0.0,0.0,0.0,0.0,0.0,0.0,0.0,0.0,0.0,0.0,0.0,0.0,0.0,0.0,0.0,0.0,0.0,0.0,0.0,0.0,0.0,0.0,0.0,0.0,0.0,0.0,0.0,0.0,0.0,5.2197,5.5145,5.6907,5.6076,5.5553,5.5389,5.1332,4.6942,4.247,0.0,0.0,0.0,0.0,0.0,0.0,0.0,0.0,0.0,0.0,0.0,0.0,0.0,0.0,0.0,0.0,0.0,0.0,0.0,0.0,0.0,0.0,0.0,0.0,0.0,0.0,0.0,0.0,0.0,0.0,0.0,0.0,0.0,0.0,0.0,0.0,0.0,0.0,1.6071,1.6019,0.0,0.0,0.0,0.0,0.0,0.0,0.0,0.0,0.382,0.0,0.0,0.0,0.0,0.0,0.0,0.0,0.0,0.0,0.0,0.0,0.0,0.0,0.0,0.0,0.0,0.0,0.0,0.0,0.0,0.0,0.0,0.0,0.0,0.0,0.0,0.0,0.0,0.0,0.0,0.0,0.0,0.0,0.0,0.0,0.0,0.0,0.0,0.0,0.0,0.0,0.0,0.0,0.0,0.0,0.0,0.0,0.0,0.0,0.0,0.0,0.0,0.0,0.0,0.0,0.0,5.3851,5.4196,5.5695,5.8519,5.7805,5.6986,5.613,5.2079,4.821,4.4687,0.0,0.0,0.0,0.0,0.0,0.0,0.0,0.0,0.0,0.0,0.0,0.0,0.0,0.0,0.0,0.0,0.0,0.0,0.0,0.0,0.0,0.0,0.0,0.0,0.0,0.0,0.0,0.0,0.0,0.0,0.0,0.0,0.0,0.0,0.0,0.0,0.0,0.0,0.0,1.7636,1.6683,0.0,0.0,0.0,0.0,0.0,0.0,0.0,0.0,0.3717,0.0,0.0,0.0,0.0,0.0,0.0,0.0,0.0,0.0,0.0,0.0,0.0,0.0,0.0,0.0,0.0,0.0,0.0,0.0,0.0,0.0,0.0,0.0,0.0,0.0,0.0,0.0,0.0,0.0,0.0,0.0,0.0,0.0,0.0,0.0,0.0,0.0,0.0,0.0,0.0,0.0,0.0,0.0,0.0,0.0,0.0,0.0,0.0,0.0,0.0,0.0,0.0,0.0,0.0,0.0,5.3146,5.5517,5.7586,5.9569,5.8339,5.7472,5.694,5.1608,4.7604,0.0,0.0,0.0,0.0,0.0,0.0,0.0,0.0,0.0,0.0,0.0,0.0,0.0,0.0,0.0,0.0,0.0,0.0,0.0,0.0,0.0,0.0,0.0,0.0,0.0,0.0,0.0,0.0,0.0,0.0,0.0,0.0,0.0,0.0,0.0,0.0,0.0,0.0,0.0,0.0,1.7023,1.637,1.291,0.0,0.0,0.0,0.0,0.0,0.0,0.4854,0.4276,0.0,0.0,0.0,0.0,0.0,0.0,0.0,0.0,0.0,0.0,0.0,0.0,0.0,0.0,0.0,0.0,0.0,0.0,0.0,0.0,0.0,0.0,0.0,0.0,0.0,0.0,0.0,0.0,0.0,0.0,0.0,0.0,0.0,0.0,0.0,0.0,0.0,0.0,0.0,0.0,0.0,0.0,0.0,0.0,0.0,0.0,0.0,0.0,0.0,0.0,0.0,0.0,0.0,0.0,0.0,5.2171,5.6366,5.9185,6.0408,5.8919,5.7862,5.7311,5.1608,4.7365,0.0,0.0,0.0,0.0,0.0,0.0,0.0,0.0,0.0,0.0,0.0,0.0,0.0,0.0,0.0,0.0,0.0,0.0,0.0,0.0,0.0,0.0,0.0,0.0,0.0,0.0,0.0,0.0,0.0,0.0,0.0,0.0,0.0,0.0,0.0,0.0,0.0,0.0,0.0,0.0,0.0,1.5971,1.4173,1.2107,0.0,0.0,0.0,0.0,0.6316,0.6311,0.0,0.0,0.0,0.0,0.0,0.0,0.0,0.0,0.0,0.0,0.0,0.0,0.0,0.0,0.0,0.0,0.0,0.0,0.0,0.0,0.0,0.0,0.0,0.0,0.0,0.0,0.0,0.0,0.0,0.0,0.0,0.0,0.0,0.0,0.0,0.0,0.0,0.0,0.0,0.0,0.0,0.0,0.0,0.0,0.0,0.0,0.0,0.0,0.0,0.0,0.0,0.0,0.0,0.0,0.0,0.0,5.3519,5.6442,5.8997,6.1258,6.0475,5.8892,5.6671,5.3508,4.9364,0.0,0.0,0.0,0.0,0.0,0.0,0.0,0.0,0.0,0.0,0.0,0.0,0.0,0.0,0.0,0.0,0.0,0.0,0.0,0.0,0.0,0.0,0.0,0.0,0.0,0.0,0.0,0.0,0.0,0.0,0.0,0.0,0.0,0.0,0.0,0.0,0.0,0.0,0.0,0.0,0.0,1.6593,1.3998,1.3321,1.2027,0.0,0.0,0.8815,0.716,0.8388,0.0,0.0,0.0,0.0,0.0,0.0,0.0,0.0,0.0,0.0,0.0,0.0,0.0,0.0,0.0,0.0,0.0,0.0,0.0,0.0,0.0,0.0,0.0,0.0,0.0,0.0,0.0,0.0,0.0,0.0,0.0,0.0,0.0,0.0,0.0,0.0,0.0,0.0,0.0,0.0,0.0,0.0,0.0,0.0,0.0,0.0,0.0,0.0,0.0,0.0,0.0,0.0,0.0,0.0,0.0,4.8251,5.4493,5.8211,6.0551,6.1467,6.0137,5.8471,5.6518,5.1999,4.7745,0.0,0.0,0.0,0.0,0.0,0.0,0.0,0.0,0.0,0.0,0.0,0.0,0.0,0.0,0.0,0.0,0.0,0.0,0.0,0.0,0.0,0.0,0.0,0.0,0.0,0.0,0.0,0.0,0.0,0.0,0.0,0.0,0.0,0.0,0.0,0.0,0.0,0.0,0.0,0.0,0.0,0.0,1.6073,1.5271,0.0,0.0,0.0,1.0736,1.0049,0.0,0.0,0.0,0.0,0.0,0.0,0.0,0.0,0.0,0.0,0.0,0.0,0.0,0.0,0.0,0.0,0.0,0.0,0.0,0.0,0.0,0.0,0.0,0.0,0.0,0.0,0.0,0.0,0.0,0.0,0.0,0.0,0.0,0.0,0.0,0.0,0.0,0.0,0.0,0.0,0.0,0.0,0.0,0.0,0.0,0.0,0.0,0.0,0.0,0.0,0.0,0.0,0.0,0.0,0.0,0.0,0.0,5.554,5.9798,6.2022,6.1964,6.002,5.816,5.6397,5.1309,0.0,0.0,0.0,0.0,0.0,0.0,0.0,0.0,0.0,0.0,0.0,0.0,0.0,0.0,0.0,0.0,0.0,0.0,0.0,0.0,0.0,0.0,0.0,0.0,0.0,0.0,0.0,0.9571,0.0,0.0,0.0,0.0,0.0,0.0,0.0,0.0,0.0,0.0,0.0,0.0,0.0,0.0,1.7798,1.8221,1.7455,1.6212,0.0,0.0,1.2717,1.2573,1.1881,1.0921,0.0,0.0,0.0,0.0,0.0,0.0,0.0,0.0,0.0,0.0,0.0,0.0,0.0,0.0,0.0,0.0,0.0,0.0,0.0,0.0,0.0,0.0,0.0,0.0,0.0,0.0,0.0,0.0,0.0,0.0,0.0,0.0,0.0,0.0,0.0,0.0,0.0,0.0,0.0,0.0,0.0,0.0,0.0,0.0,0.0,0.0,0.0,0.0,0.0,0.0,0.0,0.0,0.0,0.0,0.0,5.6927,6.0437,6.2586,6.3334,6.1093,5.8628,5.6201,5.317,4.8987,0.0,0.0,0.0,0.0,0.0,0.0,0.0,0.0,0.0,0.0,0.0,0.0,0.0,0.0,0.0,0.0,0.0,0.0,0.0,0.0,0.0,0.0,0.0,0.0,0.0,0.0,0.0,0.0,0.0,0.0,0.0,0.0,0.0,0.0,0.0,0.0,0.0,0.0,0.0,0.0,0.0,1.9149,1.9856,1.9632,1.8635,0.0,0.0,1.4733,1.3718,1.4861,1.4374,1.0117,0.0,0.0,0.0,0.0,0.0,0.0,0.0,0.0,0.0,0.0,0.0,0.0,0.0,0.0,0.0,0.0,0.0,0.0,0.0,0.0,0.0,0.0,0.0,0.0,0.0,0.0,0.0,0.0,0.0,0.0,0.0,0.0,0.0,0.0,0.0,0.0,0.0,0.0,0.0,0.0,0.0,0.0,0.0,0.0,0.0,0.0,0.0,0.0,0.0,0.0,0.0,0.0,0.0,5.0904,5.6952,6.0717,6.2673,6.2662,6.0739,5.8476,5.6078,5.3795,5.0071,0.0,0.0,0.0,0.0,0.0,0.0,0.0,0.0,0.0,0.0,0.0,0.0,0.0,0.0,0.0,0.0,0.0,0.0,0.0,0.0,0.0,0.0,0.0,0.0,0.0,0.0,0.0,0.0,1.0432,1.0824,0.9363,0.0,0.0,0.0,0.0,0.0,0.0,0.0,0.0,0.0,0.0,2.1665,2.2793,2.1891,0.0,0.0,1.7533,1.6527,1.5406,1.522,1.4673,1.3106,1.1634,0.0,0.0,0.0,0.0,0.0,0.0,0.0,0.0,0.0,0.0,0.0,0.0,0.0,0.0,0.0,0.0,0.0,0.0,0.0,0.0,0.0,0.0,0.0,0.0,0.0,0.0,0.0,0.0,0.0,0.0,0.0,0.0,0.0,0.0,0.0,0.0,0.0,0.0,0.0,0.0,0.0,0.0,0.0,0.0,0.0,0.0,0.0,0.0,0.0,0.0,0.0,0.0,5.0847,5.7187,6.0528,6.2257,6.2409,6.0227,5.8269,5.6534,5.438,5.1218,0.0,0.0,0.0,0.0,0.0,0.0,0.0,0.0,0.0,0.0,0.0,0.0,0.0,0.0,0.0,0.0,0.0,0.0,0.0,0.0,0.0,0.0,0.0,0.0,0.0,0.0,0.0,0.0,1.1189,1.0766,0.7871,0.0,0.0,0.0,0.0,0.0,0.0,0.0,0.0,0.0,0.0,2.3987,2.4868,2.3736,2.2246,2.0731,1.9233,1.8044,1.7581,1.6787,1.6124,1.5868,0.0,0.0,0.0,0.0,0.0,0.0,0.0,0.0,0.0,0.0,0.0,0.0,0.0,0.0,0.0,0.0,0.0,0.0,0.0,0.0,0.0,0.0,0.0,0.0,0.0,0.0,0.0,0.0,0.0,0.0,0.0,0.0,0.0,0.0,0.0,0.0,0.0,0.0,0.0,0.0,0.0,0.0,0.0,0.0,0.0,0.0,0.0,0.0,0.0,0.0,0.0,0.0,0.0,5.1177,5.7902,5.9778,6.1392,6.2738,5.9778,5.8016,5.7715,5.5173,5.2455,4.9565,0.0,0.0,0.0,0.0,0.0,0.0,0.0,0.0,0.0,0.0,0.0,0.0,0.0,0.0,0.0,0.0,0.0,0.0,0.0,0.0,0.0,0.0,0.0,0.0,0.0,0.0,1.0602,1.0208,0.8715,0.0,0.0,0.0,0.0,0.0,0.0,0.0,0.0,0.0,0.0,2.457,2.5878,2.5743,2.4966,2.4003,2.2884,2.0648,1.9364,2.0398,2.0227,1.9525,0.0,0.0,0.0,0.0,0.0,0.0,0.0,0.0,0.0,0.0,0.0,0.0,0.0,0.0,0.0,0.0,0.0,0.0,0.0,0.0,0.0,0.0,0.0,0.0,0.0,0.0,0.0,2.7023,2.7088,0.0,0.0,0.0,0.0,0.0,0.0,0.0,0.0,0.0,0.0,0.0,3.5751,3.7208,0.0,0.0,0.0,0.0,0.0,0.0,0.0,0.0,0.0,0.0,0.0,0.0,5.0187,5.6781,5.9171,6.0778,6.1868,5.9692,5.8191,5.7553,5.6413,5.3456,4.8348,0.0,0.0,0.0,0.0,0.0,0.0,0.0,0.0,0.0,0.0,0.0,0.0,0.0,0.0,0.0,0.0,0.0,0.0,0.0,0.0,0.0,0.0,0.0,0.0,0.0,1.0191,0.0,0.0,0.0,0.0,0.0,0.0,0.0,0.0,0.0,0.0,0.0,2.1765,2.5153,2.7054,2.8047,2.7849,2.7764,2.6886,0.0,0.0,0.0,0.0,0.0,0.0,0.0,0.0,0.0,0.0,0.0,0.0,0.0,0.0,1.968,1.3182,0.9431,0.704,0.6169,0.0,0.0,0.0,0.0,0.0,0.0,0.0,0.0,0.0,0.0,0.0,0.0,0.0,0.0,0.0,0.0,3.1874,0.0,0.0,0.0,0.0,0.0,0.0,0.0,0.0,3.9048,4.1288,4.133,4.2805,4.2779,0.0,4.1151,3.6959,0.0,0.0,0.0,0.0,0.0,0.0,0.0,0.0,4.9969,5.6332,5.8644,6.0136,6.0845,5.9446,5.8275,5.755,5.6859,5.4282,4.9523,4.5729,4.1963,0.0,0.0,0.0,0.0,0.0,0.0,0.0,0.0,0.0,0.0,0.0,0.0,0.0,0.0,0.0,0.0,0.0,0.0,0.0,0.0,0.0,0.0,0.0,1.1256,0.0,0.0,0.0,0.0,0.0,0.0,0.0,0.0,0.0,1.8401,2.1815,2.5217,2.8147,2.9325,2.9883,2.97,0.0,0.0,0.0,0.0,0.0,0.0,0.0,2.4579,2.839,2.691,2.5258,2.5331,2.6403,2.6624,2.4746,0.0,0.0,1.7037,1.3936,1.1818,0.9796,0.8506,0.7701,0.7717,0.6236,0.4583,0.0,0.0,0.0,0.0,0.0,0.0,0.0,0.0,3.3594,3.5186,0.0,3.5483,0.0,0.0,0.0,0.0,0.0,0.0,0.0,0.0,4.6377,4.8451,4.6969,4.7491,4.7612,4.7732,5.0876,4.9224,4.2925,3.4988,0.0,0.0,0.0,0.0,0.0,0.0,5.0563,5.6519,5.8164,5.9238,5.9738,5.8905,5.8194,5.7774,5.6477,5.4885,5.2901,4.9889,4.6308,4.1733,3.7494,0.0,0.0,0.0,0.0,0.0,0.0,0.0,0.0,0.0,0.0,0.0,0.0,0.0,0.0,0.0,0.0,0.0,0.0,0.0,0.0,1.4373,0.0,0.0,0.0,0.0,0.0,0.0,0.0,0.0,0.0,0.0,2.2396,2.532,2.8465,3.117,0.0,0.0,0.0,0.0,2.8983,2.9462,2.8626,2.8915,3.149,3.2145,3.3203,3.5915,0.0,0.0,3.088,3.0306,2.9611,2.6961,2.6473,2.5485,2.3285,2.0125,1.742,1.5217,1.2049,0.9692,0.9126,0.8058,0.6513,3.2169,0.0,0.0,0.0,0.0,3.7345,4.1019,4.6048,4.5163,4.4648,4.4496,4.3253,0.0,0.0,0.0,0.0,0.0,0.0,4.4449,4.6364,4.8906,5.0607,5.1518,5.2121,5.2902,5.4002,5.502,5.4919,5.3651,5.0011,4.3184,3.3699,0.0,0.0,0.0,0.0,5.279,5.61,5.7367,5.7918,5.7894,5.7405,5.7094,5.7087,5.5969,5.4759,5.3407,5.0955,4.8066,4.4844,4.0609,0.0,0.0,0.0,0.0,0.0,0.0,0.0,0.0,0.0,0.0,0.0,0.0,0.0,0.0,0.0,0.0,0.0,0.0,0.0,1.4944,1.5014,1.45,0.0,0.0,0.0,0.0,0.0,0.0,0.0,0.0,0.0,2.8891,2.9605,3.0895,0.0,0.0,3.3389,3.3283,3.3973,3.4036,3.3121,0.0,0.0,0.0,3.2373,3.1966,3.7518,3.8546,3.7963,3.6102,3.5198,3.4151,3.2091,3.0557,2.8865,2.6317,2.2193,1.8756,1.6921,1.5067,1.328,1.1761,1.0188,0.8564,4.0489,3.8109,3.7042,3.8765,4.2389,4.4361,4.8065,5.2816,5.2443,5.2278,5.2193,5.0699,4.7812,4.3863,4.3253,0.0,0.0,0.0,4.9494,5.1667,5.252,5.368,5.5,5.5527,5.6652,5.8247,5.9049,5.9738,6.0495,5.9875,5.4305,4.4418,0.0,0.0,4.623,5.0964,5.4269,5.5969,5.6982,5.708,5.6323,5.6186,5.6046,5.6062,5.5632,5.4894,5.3894,5.2079,4.9965,4.7535,4.3335,3.9315,0.0,0.0,0.0,0.0,0.0,0.0,0.0,0.0,0.0,0.0,0.0,1.7264,1.1792,0.0,0.0,0.0,1.6792,2.1198,2.0084,2.0282,0.0,0.0,0.0,0.0,0.0,0.0,0.0,2.4633,2.8266,3.1557,3.3943,3.4158,3.4525,3.5741,3.5693,3.5689,3.6201,0.0,3.7327,3.7033,3.8321,3.9325,3.9281,3.734,3.7153,4.0916,4.0424,3.958,3.9042,3.777,3.6208,3.448,3.2528,3.0454,2.8222,2.4357,2.0888,1.9144,1.7463,1.5786,1.3959,1.1969,1.013,4.7689,4.9677,4.6264,4.5914,4.7807,5.1778,5.4215,5.5388,5.6593,5.8039,5.9362,5.7497,5.55,5.3378,5.0738,0.0,0.0,5.4201,5.5538,5.6373,5.6745,5.714,5.7651,5.806,5.9278,6.1191,6.2826,6.3936,6.4547,6.5503,6.3745,5.9313,5.5111,5.3132,5.3316,5.4548,5.541,5.5881,5.6705,5.6455,5.5057,5.5014,5.4973,5.4936,5.5242,5.5014,5.4138,5.3009,5.1523,4.9453,4.5501,4.1674,3.7958,0.0,0.0,0.0,0.0,0.0,0.0,0.0,0.0,0.0,0.0,0.0,0.0,0.0,0.0,0.0,2.4799,0.0,2.8133,2.812,0.0,0.0,0.0,2.3115,2.4227,2.6276,2.8538,3.102,0.0,0.0,3.787,0.0,3.8988,3.8398,3.8046,3.8411,3.9685,3.9382,3.9497,4.1022,4.2124,4.2992,4.3464,4.4199,4.4515,4.4292,4.2126,4.0134,3.991,3.8201,3.6283,3.4774,3.2741,3.0665,2.8807,2.6237,2.3928,2.1404,1.9159,1.7156,1.5538,1.346,1.1471,5.0889,5.2451,5.3513,5.4149,5.4893,5.7144,5.9071,6.0681,6.1687,6.1966,6.138,6.0716,5.9675,5.8435,5.7487,5.7932,5.9588,5.9225,5.9168,5.9365,5.8918,5.8762,5.9118,6.0411,6.2141,6.4162,6.5709,6.7362,6.8785,6.8543,6.7764,6.6595,6.3739,5.974,5.4967,5.7221,5.7537,5.5662,5.5728,5.504,5.3554,5.333,5.346,5.41,5.3548,5.3047,5.2523,5.1094,4.9855,4.8896,4.5286,4.2198,3.9893,3.2908,0.0,0.0,0.0,0.0,0.0,0.0,0.0,0.0,0.0,2.4279,1.5472,0.0,2.4327,0.0,3.0424,3.4588,3.0544,3.0013,0.0,0.0,2.9954,2.9688,3.3507,3.393,3.4251,3.5234,3.8377,4.0691,4.1237,4.2877,4.4037,4.4154,4.2505,4.1698,4.2891,4.351,4.3909,4.4423,4.5421,4.6199,4.6047,4.5591,4.4738,4.3254,4.1695,4.0397,3.9472,3.73,3.5379,3.4219,3.203,2.9962,2.8487,2.6328,2.4199,2.2325,1.9768,1.7475,1.6377,1.4956,1.3516,5.3471,5.4927,5.6874,5.8269,5.9319,6.0661,6.2335,6.4034,6.5232,6.5288,6.4623,6.3917,6.3395,6.295,6.1972,6.2276,6.3228,6.1672,6.1216,6.1537,6.0378,6.0145,6.0757,6.211,6.3612,6.5436,6.7372,6.9107,7.036,7.0406,7.0093,6.9524,6.7429,6.3899,5.9253,5.9518,5.8417,5.5759,5.4034,5.2714,5.183,5.1576,5.1492,5.1511,5.1282,5.054,4.9256,4.8205,4.7469,4.7044,4.4504,4.2286,4.0615,3.3591,2.9316,0.0,0.0,0.0,0.0,0.0,0.0,0.0,0.0,0.0,0.0,0.0,2.9533,2.9779,3.725,4.0607,3.7054,3.725,3.806,3.9082,3.7341,3.6998,3.9253,3.9062,3.9047,3.998,4.2119,4.3716,4.4466,4.597,4.751,4.8531,4.7276,4.6207,4.6239,4.6791,4.7243,4.7525,4.8226,4.8494,4.7927,4.586,4.3943,4.2566,4.0849,3.9119,3.7475,3.5713,3.406,3.2465,3.0875,2.936,2.781,2.5792,2.3948,2.2618,2.0561,1.8649,1.7472,1.6181,1.4973,5.5302,5.6984,5.8295,5.9972,6.1842,6.2714,6.4194,6.6013,6.7494,6.8101,6.7938,6.6838,6.6375,6.6369,6.4865,6.4485,6.4875,6.288,6.2374,6.2933,6.1447,6.1278,6.2248,6.3147,6.451,6.6143,6.8419,6.9925,7.0808,7.142,7.1184,7.0168,6.8225,6.6155,6.3992,6.1245,5.8471,5.5563,5.2337,5.0503,5.0297,5.0145,4.9568,4.8655,4.889,4.798,4.5701,4.5356,4.5113,4.4785,4.3654,4.2348,4.0759,3.4313,3.0741,0.0,2.9807,0.0,0.0,0.0,0.0,0.0,0.0,0.0,0.0,3.3607,3.5687,3.7705,4.4172,4.7243,4.4915,4.5865,4.616,4.498,4.4301,4.3586,4.2805,4.2736,4.3207,4.4423,4.5342,4.6318,4.7645,4.8546,4.9888,5.1401,5.1328,5.0533,4.9577,4.9387,4.9555,5.0101,5.0076,4.9338,4.8451,4.581,4.3388,4.2354,4.0165,3.7469,3.5442,3.4065,3.2559,3.0528,2.9632,2.8667,2.6974,2.518,2.3695,2.2857,2.1407,1.9915,1.8578,1.7393,1.6219,5.595,5.7033,5.8694,6.0151,6.1594,6.2992,6.4603,6.6614,6.8239,6.902,6.8976,6.8027,6.712,6.6284,6.5317,6.5054,6.5288,6.4186,6.3535,6.3298,6.2216,6.2042,6.2747,6.3558,6.5528,6.8306,6.965,7.1154,7.2829,7.1712,7.114,7.0985,6.7728,6.5714,6.4776,0.0,0.0,0.0,5.2371,5.0886,5.0181,5.0095,4.9372,4.7894,4.7181,0.0,4.4883,4.4848,4.4713,4.4303,4.3939,0.0,0.0,0.0,0.0,0.0,0.0,0.0,0.0,0.0,0.0,0.0,4.0197,3.818,3.5978,4.2248,4.6191,4.5439,4.8614,5.0202,4.8754,4.8256,4.7797,4.7144,4.6487,4.5962,4.5661,4.5623,4.6045,4.6805,4.8061,4.9415,5.0619,5.1092,5.1631,5.293,5.3034,5.2841,5.2432,5.1396,5.068,5.0289,4.932,4.837,4.7974,4.5788,4.3666,4.2278,4.0172,3.772,3.5429,3.3143,3.1275,2.9738,2.8586,2.7616,2.6712,2.5128,2.3826,2.32,2.2099,2.0818,1.9712,1.9058,1.8432,5.7145,0.0,5.8918,5.9794,0.0,6.2096,6.3585,6.5243,6.758,6.886,6.9209,6.8528,6.7734,6.6827,6.5339,6.4874,6.4961,6.344,6.2878,6.3,6.1966,6.1965,6.2853,6.4035,6.6097,6.8798,6.9794,7.1401,7.3205,7.1891,7.1191,7.1124,6.8129,6.6003,6.4601,5.9943,5.6329,5.3816,5.1844,5.0358,4.9528,4.9174,4.8169,4.6504,0.0,0.0,0.0,0.0,0.0,0.0,0.0,0.0,0.0,0.0,0.0,3.8175,3.8896,3.9742,4.0652,4.27,4.5117,4.7961,4.9452,4.8523,4.4626,4.8785,5.177,5.2295,5.3099,5.3359,5.274,5.135,5.0091,4.9259,4.8034,4.7242,4.7244,4.7303,4.7619,4.8578,5.001,5.1361,5.2448,5.3202,5.4028,5.506,5.4599,5.4296,5.4533,5.2997,5.1315,5.0188,4.8973,4.798,4.7374,4.5843,4.3746,4.1789,3.9587,3.7157,3.4567,3.253,3.0856,2.965,2.8757,2.8125,2.7414,2.6172,2.5029,2.4654,2.3811,2.3097,2.256,2.1431,2.0425,5.8228,5.8582,5.8738,5.9031,5.9587,6.078,6.2158,6.3695,0.0,0.0,0.0,6.8405,6.76,6.654,6.4728,6.3889,6.374,6.1987,6.1687,6.2574,6.1909,6.208,6.3304,6.4599,6.6528,6.9023,6.9802,7.1194,7.3269,7.2038,7.1084,7.0625,6.844,6.5977,6.3344,5.8546,5.5374,5.3914,5.1582,4.9937,4.8912,4.8431,4.7356,4.5552,4.5194,4.4021,4.1846,4.1464,4.1332,4.1285,4.0578,4.0425,4.1018,4.1625,4.2618,4.4096,4.6069,4.7692,4.8787,5.1084,5.2612,5.3088,5.6595,5.7313,5.3931,5.4395,5.5824,5.8142,5.7114,5.6316,5.6361,5.4096,5.2261,5.1157,4.9326,4.8265,4.8502,4.8362,4.8881,5.0237,5.1565,5.2765,5.3884,5.4816,5.5953,5.6884,5.5962,5.5108,5.5475,5.3553,5.1527,5.0198,4.9017,4.8012,4.7135,4.5864,4.3821,4.1166,3.9095,3.668,3.3833,3.2183,3.0964,2.957,2.9296,2.9019,2.8368,2.7363,2.6615,2.6336,2.5814,2.552,2.5678,2.4388,2.3093,5.8482,5.7728,5.8012,5.8174,5.8252,5.9444,6.1229,6.3464,6.6557,6.8057,6.8444,6.7188,6.5849,6.4401,6.2485,6.1616,6.1575,6.1315,6.1557,0.0,6.2978,6.374,6.4573,6.5245,6.7281,7.0357,7.0303,7.1312,7.3095,7.1708,7.0533,6.9693,6.7604,6.4538,6.0703,5.7617,5.5776,5.5086,5.2895,5.077,4.8882,4.9543,4.8714,4.6337,4.6244,4.562,4.4349,4.4942,4.5107,4.4854,4.6777,4.7176,4.5608,4.6763,4.7493,4.7202,4.9326,5.1486,5.3309,5.5278,5.7441,5.9699,6.1409,6.1419,5.9583,6.0286,6.1062,6.1497,5.996,5.879,5.8059,5.5461,5.3316,5.232,5.0553,4.966,5.0368,4.9796,5.0189,5.2382,5.3129,5.4056,5.5669,5.6057,5.6404,5.7192,5.6636,5.5352,5.4092,5.2569,5.139,5.0434,4.9112,4.781,4.6828,4.5925,4.4015,4.088,3.9457,3.7393,3.397,3.2609,3.1483,2.9678,2.9662,2.9463,2.8885,2.8071,2.774,2.7378,2.7348,2.7504,2.7719,2.7644,2.7253,5.9034,5.8359,5.8216,5.7573,5.6799,5.8485,6.0146,6.1868,6.4526,6.6132,6.6703,6.5977,6.4925,6.3614,6.188,6.1083,6.0981,6.0727,6.1029,6.2064,6.2629,6.3637,6.5023,6.6037,6.7966,7.0588,7.0502,7.1309,7.2928,7.1154,6.9843,6.9356,6.6085,6.3034,6.0593,5.8185,5.6512,5.5645,5.3765,5.188,5.0256,5.0606,5.0024,4.8423,4.8417,4.8275,4.7738,4.8105,4.8055,4.7347,4.8853,4.9293,4.8346,4.9816,5.0974,5.1505,5.3188,5.5021,5.6827,5.8645,6.0578,6.2521,6.3282,6.3319,6.2641,6.2741,6.3027,6.3195,6.1309,5.9465,5.808,5.5384,5.3171,5.2077,5.0452,4.9892,5.074,5.0561,5.0889,5.2494,5.3784,5.4988,5.6055,5.6915,5.7707,5.839,5.7513,5.5859,5.3772,5.2561,5.1549,5.0401,4.9429,4.8303,4.6858,4.5872,4.4216,4.153,3.9531,3.7435,3.479,3.3572,3.2284,3.1336,3.1245,3.1335,3.1013,3.0776,3.0376,3.0098,3.0084,3.0235,3.0163,3.0474,3.0,5.933,5.8327,5.7963,5.6949,5.5993,5.7773,5.9183,6.0368,6.238,6.3779,6.4699,6.4689,6.4158,6.312,6.1488,6.0566,6.0202,6.0046,6.047,6.1422,6.2629,6.4034,6.5472,6.6974,6.8813,7.0652,7.0591,7.1223,7.239,7.0515,6.9166,6.8201,6.4606,6.2081,6.0891,5.8838,5.7327,5.6374,5.4839,5.3218,5.1494,5.1723,5.1457,5.0799,5.12,5.1429,5.1479,5.1494,5.1159,5.051,5.0921,5.1138,5.1035,5.259,5.4079,5.5415,5.694,5.8592,6.0448,6.1728,6.2946,6.4022,6.4053,6.4061,6.4247,6.3537,6.3334,6.349,6.1666,5.9552,5.7532,5.4985,5.2857,5.156,5.0219,4.9892,5.0843,5.0928,5.1427,5.2672,5.441,5.575,5.6609,5.7912,5.8874,5.8866,5.8133,5.6294,5.4093,5.3011,5.2001,5.0526,4.9725,4.8728,4.7078,4.5996,4.4464,4.2198,3.9969,3.795,3.6195,3.4593,3.3657,3.32,3.3456,3.3617,3.3624,3.3548,3.3203,3.2739,3.2782,3.3136,3.2934,3.2994,3.2413,5.9084,5.7058,5.6805,5.665,5.6392,5.7472,5.8483,5.9632,6.0739,6.1753,6.2865,6.3699,6.3378,6.2122,6.0574,5.9418,5.8682,5.9347,6.0058,6.1144,6.4024,6.5991,6.6856,6.8298,7.0026,7.1521,7.0636,7.0766,7.1883,7.0296,6.8249,6.5884,6.3964,6.2167,6.0517,5.9245,5.8359,5.7933,5.6753,5.4734,5.2004,5.2979,5.3211,5.2517,5.4338,5.5346,5.5274,5.5397,5.526,5.5086,5.488,5.4794,5.4723,5.6166,5.7259,5.7584,5.9888,6.2332,6.4457,6.4772,6.4762,6.4887,6.3906,6.3612,6.4134,6.2694,6.1959,6.2183,6.1265,5.9359,5.7097,5.4685,5.2741,5.1583,5.0413,5.0059,5.1018,5.128,5.2254,5.4821,5.548,5.6645,5.822,5.9076,5.9074,5.8421,5.7739,5.6439,5.4561,5.3636,5.2782,5.1036,4.9849,4.8726,4.74,4.6315,4.4737,4.2379,4.0862,3.9139,3.7455,3.6398,3.5758,3.503,3.5466,3.5818,3.5698,3.5615,3.5377,3.4816,3.5134,3.5901,3.5843,3.5611,3.4607,5.863,5.6911,5.682,5.6833,5.6999,5.7435,5.7998,5.8767,6.0226,6.117,6.1622,6.2614,6.2922,6.2514,6.0819,5.9696,5.9402,5.9735,6.0487,6.1576,6.4165,6.62,6.7745,6.9001,7.0303,7.1516,7.0598,7.0558,7.0732,6.9112,6.6965,6.4867,6.335,6.2273,6.1443,5.9911,5.8834,5.8462,5.7694,5.6536,5.5253,5.5036,5.5162,5.5506,5.6616,5.749,5.7834,5.813,5.8181,5.7906,5.7765,5.7604,5.7402,5.7917,5.8816,6.0029,6.2276,6.4074,6.5308,6.5096,6.489,6.4927,6.378,6.3303,6.3846,6.2379,6.1427,6.127,6.0314,5.8567,5.6253,5.4221,5.2451,5.111,5.0349,5.0426,5.1289,5.1894,5.3006,5.4769,5.5826,5.6881,5.8181,5.8905,5.8736,5.781,5.7226,5.6401,5.4706,5.3724,5.2983,5.2248,5.1177,4.9618,4.8047,4.6446,4.5088,4.3614,4.1945,4.0203,3.9043,3.8142,3.7535,3.6776,3.7698,3.8188,3.7963,3.8529,3.8699,3.7744,3.6961,3.7463,3.7503,3.7419,3.697,5.8423,5.6993,5.6849,5.7074,5.7429,5.7463,5.7536,5.796,5.9308,6.0093,6.0579,6.1319,6.2229,6.2721,6.1216,6.0426,6.0186,6.0227,6.0969,6.2455,6.4273,6.6259,6.819,6.9397,7.0266,7.0882,7.0276,6.9911,6.9707,6.814,6.6278,6.4608,6.3544,6.2682,6.1963,6.0579,5.9633,5.8798,5.8324,5.7943,5.7682,5.7298,5.7246,5.7747,5.8915,5.9619,5.9673,6.0227,6.028,5.9727,5.9457,5.9185,5.8944,5.9188,6.0339,6.2465,6.4165,6.5367,6.5867,6.5434,6.5032,6.479,6.3401,6.2636,6.2792,6.1558,6.0499,6.0259,5.9139,5.7434,5.5307,5.3914,5.2497,5.0707,5.0649,5.1162,5.1663,5.2471,5.3585,5.4975,5.6162,5.7113,5.8043,5.8531,5.8357,5.742,5.7077,5.6352,5.4807,5.3791,5.3369,5.2829,5.1755,5.0563,4.9029,4.7624,4.6171,4.5263,4.385,4.2383,4.1134,4.0496,4.0069,3.9964,4.0572,4.0912,4.0956,4.1565,4.152,4.0638,3.9853,3.9382,3.9401,3.9454,3.9926,5.8607,5.6976,5.675,5.7151,5.7757,5.7324,5.7255,5.7207,5.7249,5.8078,5.9472,5.9912,6.1103,6.2745,6.1865,6.1072,6.0654,6.0706,6.1552,6.2914,6.487,6.6562,6.8023,6.9261,7.0249,7.0692,6.962,6.8684,6.7753,6.7385,6.6483,6.5033,6.4619,6.3482,6.1865,6.1656,6.0863,5.9201,5.8617,5.8494,5.8977,5.9504,5.9461,5.9109,6.1384,6.2131,6.1082,6.1498,6.1516,6.0593,5.9741,5.9087,5.8973,6.0237,6.226,6.4708,6.5714,6.6445,6.6938,6.6234,6.5533,6.4917,6.2771,6.1426,6.1808,5.9955,5.886,5.904,5.7905,5.6185,5.4544,5.4049,5.2889,5.0967,5.1579,5.2065,5.2034,5.3077,5.4396,5.5723,5.6673,5.7527,5.8702,5.8458,5.778,5.7197,5.6854,5.6072,5.4712,5.442,5.386,5.2398,5.1506,5.0954,5.0668,4.9094,4.8057,4.7384,4.6298,4.511,4.4373,4.3622,4.3324,4.3091,4.3447,4.3763,4.4069,4.3913,4.3284,4.2723,4.2309,4.1933,4.1808,4.2378,4.2867,5.7839,5.7486,5.7312,5.781,5.8375,5.7532,5.6915,5.6578,5.6611,5.733,5.8429,5.9129,6.0537,6.2192,6.2159,6.1713,6.1183,6.0955,6.137,6.2437,6.4187,6.5952,6.7577,6.8745,6.9549,6.9983,6.9175,6.8202,6.7096,6.655,6.5994,6.5417,6.4629,6.3781,6.3093,6.2166,6.0993,5.9801,5.8824,5.8671,5.9528,6.0632,6.1325,6.1771,6.3055,6.3538,6.296,6.3437,6.3128,6.1996,6.2026,6.1817,6.126,6.2725,6.4148,6.5388,6.6256,6.6919,6.7067,6.6003,6.5139,6.4692,6.2695,6.1287,6.103,5.9615,5.8495,5.8268,5.7261,5.5812,5.4626,5.3987,5.2883,5.1076,5.1541,5.2363,5.2634,5.371,5.5166,5.6267,5.7295,5.8152,5.7902,5.7285,5.6469,5.6113,5.588,5.5345,5.4718,5.4496,5.4204,5.3799,5.3221,5.2947,5.3632,5.0909,4.913,4.9159,4.8587,4.7762,4.6872,4.6724,4.6402,4.5532,4.5853,4.5971,4.612,4.5473,4.4999,4.4517,4.414,4.4169,4.4395,4.4754,4.548,5.7625,5.8485,5.8233,5.8376,5.8774,5.7532,5.6497,5.5763,5.5733,5.6232,5.7191,5.8183,5.9724,6.1161,6.1808,6.1852,6.149,6.1364,6.1697,6.2571,6.3799,6.5211,6.6808,6.8011,6.8789,6.9233,6.9108,6.8436,6.7401,6.6767,6.6323,6.5796,6.4958,6.4407,6.387,6.2557,6.1434,6.0258,5.9385,5.9271,6.0027,6.1432,6.2877,6.3966,6.4651,6.4694,6.4238,6.4339,6.3941,6.2947,6.2997,6.3082,6.3012,6.4304,6.537,6.5872,6.6519,6.6816,6.6417,6.5478,6.4603,6.3945,6.2364,6.1105,6.0429,5.918,5.828,5.7585,5.6814,5.5659,5.4675,5.4137,5.3211,5.1754,5.2243,5.2997,5.3309,5.4419,5.561,5.6542,5.7355,5.764,5.7189,5.6117,5.5328,5.4704,5.468,5.4532,5.4049,5.3982,5.4164,5.4565,5.3979,5.4043,5.436,5.2849,5.1592,5.1506,5.1398,5.0501,4.9674,4.9521,4.9138,4.8296,4.7929,4.8046,4.7765,4.7144,4.6609,4.6129,4.5905,4.5875,4.6397,4.6955,4.7611,5.8488,5.9615,5.9128,5.8831,5.8829,5.7324,5.5947,5.5046,5.4267,5.4679,5.5735,5.6862,5.8724,6.0371,6.1309,6.1462,6.1566,6.1957,6.2557,6.3282,6.3923,6.4896,6.6054,6.7337,6.7969,6.8148,6.9101,6.9174,6.8348,6.7958,6.726,6.6258,6.598,6.499,6.3323,6.2891,6.2015,6.068,6.0142,6.0136,6.0359,6.2158,6.3893,6.5326,6.6258,6.5945,6.4491,6.4405,6.4022,6.3041,6.2371,6.2458,6.3955,6.4878,6.5622,6.6175,6.6572,6.6211,6.531,6.483,6.4033,6.299,6.1587,6.0485,5.942,5.8574,5.7657,5.6668,5.6085,5.5389,5.4489,5.4409,5.4171,5.3598,5.369,5.4251,5.4766,5.514,5.5722,5.6707,5.7043,5.6658,5.602,5.5231,5.4433,5.3834,5.362,5.3495,5.3149,5.3286,5.3595,5.4012,5.4119,5.4382,5.4775,5.4974,5.4479,5.4166,5.3967,5.3439,5.2427,5.2017,5.1631,5.0913,4.9975,4.996,4.9243,4.8694,4.8431,4.8025,4.7843,4.7767,4.8277,4.8861,4.9381,5.8941,5.9641,5.9833,5.9585,5.8883,5.7436,5.5947,5.4241,5.3563,5.396,5.5304,5.6529,5.8615,6.0886,6.1865,6.2094,6.2266,6.2182,6.2236,6.2501,6.309,6.421,6.5582,6.6773,6.7668,6.8126,6.88,6.8878,6.8499,6.7978,6.7222,6.642,6.5861,6.5013,6.3975,6.2983,6.1783,6.0782,6.0088,6.0118,6.0969,6.2813,6.4634,6.6281,6.706,6.7174,6.6917,6.6489,6.5799,6.4794,6.5177,6.5518,6.5836,6.5947,6.6139,6.6416,6.6427,6.6006,6.5094,6.4304,6.3536,6.251,6.1623,6.0382,5.9009,5.8396,5.7419,5.6069,5.5472,5.5094,5.4809,5.4695,5.4309,5.3335,5.4175,5.4901,5.5212,5.5688,5.6322,5.6875,5.6481,5.6025,5.5583,5.4645,5.3746,5.3561,5.3364,5.3061,5.3139,5.3402,5.4124,5.4518,5.457,5.496,5.5888,5.648,5.6373,5.6262,5.623,5.5942,5.5037,5.43,5.3913,5.3072,5.2196,5.1415,5.0697,5.0179,4.9824,4.9957,4.9902,5.0017,5.0322,5.0515,5.0752,5.941,6.0141,6.0185,5.9641,5.8643,5.7224,5.5569,5.3887,5.3154,5.3583,5.4719,5.6399,5.8833,6.1247,6.2223,6.2647,6.2774,6.2092,6.1805,6.1898,6.2437,6.3475,6.5036,6.6213,6.7545,6.8528,6.8695,6.8674,6.8892,6.8331,6.758,6.6452,6.6027,6.531,6.4207,6.2932,6.1833,6.1191,6.0614,6.0698,6.1757,6.337,6.5089,6.6667,6.723,6.7632,6.8109,6.7591,6.6846,6.6114,6.6405,6.6547,6.641,6.6391,6.633,6.6197,6.5884,6.5233,6.426,6.3438,6.2663,6.1757,6.0974,5.9977,5.8662,5.806,5.6916,5.5753,5.5174,5.4992,5.493,5.4745,5.4454,5.4097,5.4689,5.5347,5.569,5.614,5.6396,5.6481,5.5749,5.5236,5.4876,5.3783,5.2948,5.317,5.2949,5.2693,5.3069,5.3347,5.4023,5.4598,5.4657,5.5718,5.7334,5.7924,5.8052,5.8213,5.8421,5.7882,5.7199,5.6479,5.6006,5.4339,5.3222,5.2433,5.175,5.1272,5.1023,5.1428,5.1707,5.1348,5.1095,5.1297,5.1418,6.0101,6.0957,6.0293,5.9346,5.8295,5.6656,5.5132,5.3529,5.3042,5.3142,5.4244,5.6709,5.923,6.1188,6.2726,6.3204,6.2942,6.2166,6.16,6.1689,6.193,6.2784,6.451,6.595,6.7478,6.8776,6.8527,6.8671,6.9212,6.9156,6.8234,6.6388,6.6481,6.589,6.4049,6.2776,6.2085,6.1727,6.1363,6.1542,6.2222,6.3861,6.5364,6.6773,6.6942,6.7329,6.7942,6.7591,6.6994,6.6281,6.6226,6.6187,6.6017,6.627,6.633,6.5985,6.5144,6.4187,6.318,6.247,6.1823,6.0999,6.0078,5.9087,5.8284,5.7304,5.642,5.5494,5.5148,5.4869,5.478,5.4592,5.4677,5.5304,5.5514,5.5996,5.6664,5.6596,5.6282,5.5876,5.4883,5.4096,5.4345,5.2857,5.2382,5.2732,5.2452,5.2282,5.2704,5.3221,5.3868,5.4304,5.4789,5.6035,5.7643,5.8491,5.8727,5.9822,5.9777,5.912,5.8437,5.774,5.6876,5.5303,5.4251,5.3494,5.2844,5.2373,5.233,5.2707,5.255,5.2027,5.1824,5.1899,5.1551,6.0758,6.1064,6.1132,6.0127,5.8503,5.6909,5.5237,5.3596,5.2779,5.3633,5.5323,5.757,6.0456,6.3293,6.3866,6.4154,6.3858,6.2587,6.1672,6.1305,6.1084,6.2832,6.5077,6.6282,6.7352,6.8489,6.8357,6.8419,6.8796,6.9027,6.8136,6.6193,6.6609,6.5755,6.3681,6.2819,6.2278,6.1862,6.1717,6.1997,6.2889,6.4491,6.5825,6.6642,6.7204,6.7475,6.7716,6.7207,6.7061,6.7158,6.6974,6.6806,6.6482,6.6283,6.6083,6.5725,6.4863,6.4043,6.3322,6.2258,6.1552,6.1248,5.9875,5.8712,5.7691,5.6912,5.6099,5.5323,5.4807,5.4557,5.4367,5.4308,5.4695,5.5723,5.6303,5.6845,5.7089,5.6744,5.6179,5.5539,5.438,5.3908,5.3899,5.2997,5.2316,5.3225,5.288,5.2278,5.2798,5.2771,5.3296,5.4313,5.5096,5.6407,5.7573,5.8655,5.9649,6.098,6.0868,6.0,5.8982,5.7789,5.661,5.528,5.5018,5.4402,5.3824,5.3208,5.3542,5.3585,5.3156,5.2555,5.2288,5.2235,5.153,6.1039,6.1506,6.1139,6.0108,5.8838,5.7094,5.5395,5.4201,5.405,5.4679,5.649,5.907,6.188,6.4455,6.5107,6.5114,6.4666,6.3328,6.1997,6.0964,6.1197,6.282,6.5024,6.6035,6.6943,6.8148,6.7951,6.7842,6.8132,6.8456,6.7557,6.6224,6.6406,6.5515,6.3538,6.2989,6.2442,6.1976,6.1914,6.2234,6.2889,6.4422,6.5439,6.6084,6.6666,6.6967,6.6656,6.5958,6.5989,6.6822,6.6983,6.6809,6.6572,6.6146,6.5832,6.5504,6.4321,6.3463,6.3161,6.1928,6.1084,6.0819,5.9523,5.8227,5.7289,5.6431,5.5409,5.4973,5.4655,5.4431,5.4342,5.4559,5.5382,5.6404,5.7318,5.7746,5.7547,5.6614,5.5941,5.5213,5.4189,5.3461,5.4204,5.2768,5.2803,5.3465,5.2833,5.2769,5.3116,5.273,5.288,5.3984,5.4953,5.6043,5.7153,5.8274,5.9101,6.0527,6.09,6.0147,5.9415,5.8097,5.7298,5.631,5.5886,5.5279,5.4675,5.4061,5.3885,5.3785,5.345,5.3073,5.2726,5.1882,5.1262,6.1569,6.2206,6.071,5.9747,5.8999,5.741,5.6021,5.5088,5.5632,5.6432,5.7571,6.0821,6.3262,6.5158,6.556,6.5742,6.4845,6.3595,6.2175,6.1231,6.1467,6.2943,6.4368,6.5274,6.6384,6.7672,6.73,6.7133,6.7433,6.7687,6.7033,6.6021,6.6219,6.5387,6.3857,6.3297,6.2775,6.1983,6.2105,6.2368,6.2836,6.3933,6.4811,6.5286,6.5533,6.5484,6.5022,6.4435,6.4639,6.6211,6.6332,6.6247,6.6064,6.5895,6.551,6.507,6.3956,6.3231,6.296,6.1558,6.0438,6.0419,5.8846,5.7451,5.6906,5.5807,5.4946,5.4876,5.4655,5.4436,5.4586,5.5448,5.6509,5.7326,5.8371,5.8484,5.7691,5.6501,5.5718,5.5328,5.3782,5.3464,5.3558,5.3134,5.221,5.3993,5.3227,5.2895,5.2963,5.2623,5.3102,5.4021,5.4856,5.545,5.6581,5.7753,5.8604,5.9607,5.9917,5.9708,5.9577,5.8619,5.8134,5.7522,5.6945,5.6254,5.5442,5.4925,5.4567,5.3977,5.3644,5.3253,5.276,5.153,5.0669,6.2312,6.2285,6.1847,6.0986,5.9605,5.8523,5.7447,5.6519,5.7014,5.7914,5.9451,6.1734,6.3959,6.5808,6.5501,6.5114,6.4517,6.3031,6.188,6.1226,6.1407,6.2499,6.3743,6.4819,6.5883,6.6616,6.6985,6.6823,6.6791,6.7036,6.7064,6.5727,6.6039,6.5581,6.3649,6.3563,6.2915,6.1749,6.2154,6.2472,6.269,6.3583,6.4393,6.4702,6.461,6.4159,6.3743,6.3333,6.344,6.3957,6.4767,6.5366,6.5546,6.5516,6.5184,6.4702,6.4321,6.3834,6.3413,6.1918,6.0665,6.0601,5.8796,5.6987,5.6501,5.557,5.4884,5.478,5.4655,5.4677,5.5169,5.6537,5.7604,5.8321,5.9139,5.9638,5.9026,5.7648,5.632,5.5159,5.3844,5.31,5.411,5.3151,5.3029,5.4111,5.386,5.3174,5.2779,5.2516,5.3045,5.3934,5.4612,5.5313,5.6378,5.7573,5.8461,5.8968,5.919,5.9433,5.9194,5.9324,5.8905,5.8455,5.7986,5.7222,5.6203,5.5926,5.5551,5.4758,5.3847,5.3238,5.2497,5.1178,5.0337,6.1313,6.1275,6.1022,6.0749,6.0329,5.9398,5.8549,5.8359,5.9227,5.9833,6.0772,6.3193,6.4998,6.589,6.5558,6.5083,6.3708,6.1815,6.0874,6.087,6.1022,6.1644,6.2853,6.399,6.4901,6.5699,6.6079,6.5988,6.5632,6.5901,6.5727,6.5199,6.5724,6.508,6.3762,6.3886,6.304,6.1694,6.1911,6.2289,6.2565,6.3274,6.3869,6.3898,6.3326,6.2476,6.2252,6.17,6.1806,6.2258,6.3151,6.3847,6.4215,6.4411,6.4353,6.4008,6.3904,6.3938,6.3412,6.237,6.1224,6.1189,5.9217,5.7863,5.6755,5.5721,5.5035,5.4828,5.4972,5.5361,5.6466,5.7566,5.86,5.932,6.0066,6.0421,5.9674,5.8204,5.676,5.5647,5.4206,5.383,5.365,5.3241,5.3466,5.4404,5.4023,5.3337,5.3337,5.3184,5.3058,5.3568,5.4331,5.5176,5.6329,5.7315,5.8274,5.877,5.8936,5.9124,5.9062,5.9458,5.9762,5.9164,5.8564,5.7857,5.7074,5.6816,5.6107,5.4989,5.3985,5.3191,5.2378,5.1362,5.0618,6.0125,6.0023,5.9836,6.0276,6.0849,6.0079,5.9658,5.988,6.1271,6.1601,6.1852,6.4636,6.5484,6.5683,6.5555,6.4689,6.2837,6.0912,5.9915,6.0456,6.0461,6.0967,6.1939,6.2869,6.3659,6.4676,6.5302,6.5053,6.454,6.435,6.4817,6.4629,6.4785,6.4314,6.3818,6.39,6.3147,6.1341,6.1578,6.1782,6.1941,6.2509,6.2892,6.2643,6.1876,6.1006,6.0788,6.0338,6.0098,6.0788,6.146,6.1809,6.2156,6.2888,6.3414,6.31,6.338,6.3587,6.3581,6.2716,6.1919,6.1709,6.0218,5.8799,5.7586,5.6487,5.5731,5.5628,5.5805,5.6836,5.8178,5.9182,5.9875,6.0529,6.1297,6.1155,6.029,5.8985,5.8231,5.6608,5.5225,5.4507,5.4297,5.4117,5.4321,5.4416,5.4009,5.371,5.3815,5.371,5.3453,5.355,5.4284,5.54,5.6535,5.7624,5.8563,5.8531,5.8647,5.8908,5.9015,5.9522,5.9774,5.9481,5.8852,5.8302,5.7566,5.694,5.6082,5.5066,5.4168,5.3388,5.2506,5.1581,5.0787,5.9792,6.0099,6.0075,6.0375,6.1006,6.0618,6.0853,6.1522,6.1712,6.2418,6.3364,6.4266,6.4804,6.4685,6.4136,6.2983,6.1415,5.9908,5.9529,5.9778,5.9927,6.0341,6.097,6.1638,6.2138,6.2835,6.3991,6.4389,6.4147,6.4449,6.4211,6.3981,6.4156,6.3843,6.3166,6.3079,6.264,6.1113,6.1313,6.1371,6.1149,6.1185,6.1291,6.0946,6.0393,5.9944,5.946,5.9253,5.9115,5.9219,5.9874,6.0183,6.0735,6.1912,6.2952,6.3332,6.3612,6.3858,6.3781,6.3165,6.2681,6.2126,6.0877,5.9627,5.8692,5.7725,5.6898,5.7006,5.7763,5.8801,5.8874,6.0393,6.1467,6.2119,6.2478,6.2685,6.2076,6.1441,6.0258,5.8203,5.6543,5.5096,5.5039,5.4901,5.5031,5.502,5.4726,5.4611,5.4713,5.4406,5.3919,5.4048,5.4264,5.5528,5.6878,5.7862,5.8776,5.8543,5.8541,5.8813,5.9087,5.9605,5.9716,5.9251,5.9154,5.8909,5.8187,5.7121,5.5965,5.4848,5.412,5.3551,5.2394,5.1269,5.0216,5.7922,5.8525,5.8873,5.982,6.095,6.1049,6.1357,6.1898,6.2313,6.2671,6.3174,6.4022,6.4236,6.398,6.3713,6.2331,6.0237,5.9095,5.881,5.8731,5.8902,5.9319,5.9976,6.0411,6.0797,6.1437,6.2548,6.3246,6.3119,6.3453,6.357,6.348,6.3617,6.3259,6.2665,6.293,6.2177,6.1249,6.0925,6.0916,6.049,6.045,6.0001,5.9761,5.9245,5.8798,5.8593,5.8526,5.8526,5.8695,5.9549,5.9989,6.0637,6.1879,6.3302,6.3589,6.4127,6.4616,6.4754,6.4416,6.4004,6.3449,6.2161,6.0837,5.9795,5.8824,5.8276,5.8724,6.0108,6.1115,6.0806,6.2092,6.2787,6.2954,6.3624,6.4059,6.386,6.3497,6.1881,5.987,5.8285,5.692,5.5938,5.5776,5.573,5.5614,5.5491,5.5551,5.575,5.532,5.4684,5.4716,5.4909,5.5588,5.6746,5.7511,5.8249,5.8197,5.8091,5.8244,5.8588,5.892,5.9076,5.8888,5.8974,5.8982,5.839,5.7269,5.5971,5.4804,5.4298,5.3561,5.2195,5.0922,4.9883,5.6084,5.6909,5.7638,5.9056,6.0683,6.0866,6.1132,6.1827,6.2221,6.2316,6.247,6.3272,6.3551,6.336,6.284,6.1623,5.9222,5.8292,5.786,5.769,5.786,5.8308,5.8813,5.9218,5.9699,6.0486,6.102,6.1598,6.231,6.2652,6.2617,6.2658,6.2792,6.257,6.208,6.2266,6.1917,6.139,6.0672,6.0529,6.0164,5.9857,5.9336,5.9128,5.8186,5.7769,5.7735,5.8118,5.8186,5.866,5.9648,6.074,6.1045,6.2983,6.4136,6.416,6.4962,6.563,6.5912,6.5886,6.5406,6.4987,6.3939,6.2575,6.1355,6.066,5.9972,6.0352,6.1567,6.2786,6.244,6.3554,6.3933,6.4062,6.4793,6.5573,6.5026,6.4487,6.3663,6.1841,6.0226,5.9036,5.815,5.734,5.7335,5.7483,5.7371,5.6654,5.6751,5.6342,5.5948,5.5702,5.567,5.5854,5.6392,5.6691,5.7281,5.7312,5.7095,5.7149,5.7461,5.7892,5.7935,5.797,5.8308,5.8241,5.7808,5.714,5.573,5.4691,5.4391,5.3514,5.1937,5.0698,4.969,5.53,5.6489,5.7228,5.8451,5.9539,5.9758,6.0441,6.145,6.081,6.1217,6.1987,6.1914,6.236,6.2622,6.1689,6.0416,5.9222,5.827,5.7406,5.7038,5.7203,5.7473,5.7916,5.7916,5.8771,5.9478,6.0122,6.1093,6.1853,6.2256,6.2269,6.2091,6.2068,6.1653,6.133,6.1584,6.1198,6.0875,6.0478,5.9648,5.8773,5.8869,5.8552,5.785,5.7356,5.7139,5.7315,5.7792,5.8084,5.823,6.046,6.1581,6.1951,6.377,6.5244,6.5833,6.6152,6.6225,6.6651,6.684,6.6882,6.6497,6.5548,6.4704,6.362,6.2334,6.1536,6.1398,6.2439,6.3238,6.3722,6.4412,6.4996,6.5462,6.598,6.5972,6.5501,6.5883,6.502,6.3902,6.2212,6.1368,6.0512,5.9757,5.9034,5.9159,5.9061,5.8306,5.7648,5.7399,5.6892,5.6531,5.6145,5.6152,5.5822,5.6184,5.6043,5.6213,5.6041,5.5869,5.6124,5.6383,5.6777,5.6889,5.714,5.7063,5.644,5.5776,5.5021,5.4331,5.3581,5.2606,5.1528,5.044,4.9332,5.2921,5.5019,5.6084,5.723,5.8315,5.8605,5.9101,5.9549,5.9307,5.9625,6.0612,6.111,6.1837,6.2251,6.1344,6.0014,5.8765,5.7933,5.6872,5.6162,5.616,5.6336,5.6304,5.6553,5.7416,5.8763,5.941,6.031,6.1325,6.2221,6.2396,6.2006,6.1951,6.1816,6.1041,6.1251,6.1283,6.122,6.0863,6.0047,5.8923,5.8538,5.8211,5.7356,5.702,5.6867,5.7,5.7686,5.8008,5.8407,6.0537,6.1837,6.2468,6.4199,6.6097,6.734,6.8007,6.8426,6.8618,6.8533,6.8539,6.8258,6.7339,6.6211,6.5476,6.4322,6.359,6.4009,6.4636,6.5015,6.5214,6.5792,6.6367,6.6936,6.7204,6.7428,6.7146,6.688,6.6537,6.5434,6.4299,6.3186,6.2386,6.1951,6.0849,6.0128,6.0036,5.9465,5.896,5.8582,5.7933,5.7306,5.6707,5.6265,5.5664,5.5372,5.4745,5.4734,5.4673,5.4504,5.4512,5.4756,5.4774,5.4819,5.4756,5.4675,5.4771,5.4516,5.3928,5.3245,5.2521,5.1675,5.0851,4.9787,4.8624,5.0782,5.3205,5.4975,5.6184,5.6936,5.7457,5.775,5.7785,5.7379,5.7913,5.9183,6.0348,6.1426,6.1679,6.0933,5.975,5.8251,5.7337,5.6221,5.5424,5.5224,5.5335,5.5637,5.5983,5.6702,5.8291,5.8926,5.9796,6.102,6.1891,6.2233,6.179,6.1741,6.154,6.1316,6.1267,6.125,6.1287,6.1436,6.0603,5.9414,5.9007,5.8351,5.7663,5.71,5.6801,5.6846,5.7719,5.8229,5.874,6.0979,6.2528,6.3074,6.5284,6.7065,6.8338,6.9323,7.0419,7.0517,7.0508,7.0342,6.9778,6.8892,6.7477,6.6599,6.5792,6.5408,6.5794,6.6106,6.645,6.6791,6.6865,6.7368,6.7901,6.8417,6.8979,6.9152,6.8456,6.7624,6.6436,6.5287,6.4148,6.3703,6.3771,6.2956,6.1508,6.0931,6.0541,5.9976,5.929,5.8627,5.7803,5.7402,5.6591,5.5563,5.4847,5.404,5.3079,5.3019,5.2597,5.2148,5.2094,5.2113,5.2103,5.2141,5.241,5.2554,5.2738,5.2924,5.2322,5.1651,5.0931,5.0065,4.9001,4.8089,4.9502,5.1608,5.4511,5.5729,5.5841,5.6424,5.6647,5.6452,5.5505,5.6091,5.7878,5.9643,6.083,6.0574,6.0574,5.9743,5.8194,5.6451,5.5766,5.5254,5.4882,5.5357,5.5603,5.6012,5.6623,5.8483,5.8912,5.9631,6.0712,6.1683,6.1526,6.0995,6.162,6.1134,6.0967,6.1168,6.1232,6.14,6.1638,6.1122,6.0158,5.9689,5.9285,5.8084,5.7595,5.7206,5.6612,5.7945,5.8753,5.9013,6.1847,6.3583,6.4248,6.6534,6.8138,6.9082,7.0649,7.1752,7.2142,7.203,7.1798,7.1055,6.9882,6.843,6.7727,6.7305,6.7024,6.6808,6.7047,6.6925,6.7011,6.7083,6.7729,6.8693,6.9336,6.9804,6.983,6.9184,6.8352,6.7421,6.6137,6.4768,6.3438,6.3242,6.3266,6.1896,6.1014,6.0619,6.0063,5.9447,5.8798,5.8147,5.792,5.7052,5.5563,5.4545,5.316,5.1653,5.0947,5.0075,4.9119,4.9222,4.9224,4.9239,4.9316,4.9833,5.0269,5.0007,5.0135,5.0853,5.0665,4.9613,4.8848,4.7861,4.7344,4.9847,5.2149,5.4161,5.4927,5.4733,5.5002,5.5097,5.4775,5.4377,5.5577,5.8085,5.9966,6.0924,6.1005,6.1194,6.0165,5.8451,5.7708,5.6566,5.5822,5.5728,5.5748,5.5961,5.6172,5.6721,5.8184,5.8761,5.9497,6.0524,6.1379,6.1451,6.1407,6.188,6.1653,6.1459,6.1285,6.1461,6.1682,6.184,6.1537,6.0695,6.0336,5.9864,5.8761,5.8469,5.829,5.819,5.8951,5.9429,6.0403,6.2631,6.3717,6.487,6.7229,6.8788,6.9667,7.1342,7.2564,7.335,7.3169,7.2616,7.141,7.0129,6.9031,6.8822,6.8435,6.8328,6.8179,6.7955,6.7794,6.785,6.7782,6.8097,6.9313,7.0118,7.0614,7.0545,7.0061,6.9267,6.8383,6.648,6.4621,6.3452,6.2346,6.2421,6.2186,6.1374,6.0598,5.9811,5.9234,5.8521,5.7818,5.7428,5.6715,5.5354,5.3768,5.2124,5.0481,4.8899,4.773,4.6755,4.616,4.6148,4.6256,4.6326,4.6437,4.6641,4.6789,4.7373,4.8376,4.8424,4.7875,4.7156,4.6729,4.6597,4.9936,5.2181,5.3647,5.4395,5.4463,5.4153,5.4037,5.3861,5.3442,5.493,5.8079,5.9769,6.0784,6.1048,6.1115,6.0508,5.8646,5.7705,5.6995,5.6392,5.5897,5.5997,5.6063,5.6329,5.6965,5.8005,5.8625,5.9497,6.0451,6.1277,6.1414,6.1724,6.2456,6.2483,6.1677,6.165,6.187,6.211,6.2122,6.2021,6.1211,6.0939,6.0284,5.9491,5.9231,5.8918,5.8951,5.9348,5.999,6.0998,6.2479,6.405,6.5508,6.7141,6.9111,7.0416,7.17,7.2983,7.3632,7.3531,7.2903,7.2014,7.0588,6.9918,6.9742,6.9354,6.9176,6.906,6.8938,6.8892,6.8886,6.8778,6.9115,7.0392,7.0872,7.1185,7.142,7.1147,7.0284,6.9411,6.7269,6.5161,6.2641,6.1348,6.0186,6.033,6.0038,5.9295,5.8842,5.8204,5.7771,5.7168,5.6608,5.5794,5.4758,5.3108,5.1241,4.8593,4.709,4.558,4.4575,4.3808,4.3352,4.3574,4.3517,4.306,4.3349,4.3973,4.4999,4.6059,4.6237,4.6546,4.6495,4.6165,4.6193,4.989,5.1249,5.3025,5.4252,5.4951,5.3975,5.3905,5.4062,5.3128,5.4175,5.6982,5.9394,6.0314,6.0059,6.0336,5.9806,5.8902,5.7241,5.6593,5.6823,5.6445,5.6369,5.672,5.7163,5.7724,5.8924,5.9486,5.9832,6.0481,6.1379,6.1577,6.2011,6.2934,6.3342,6.171,6.17,6.2018,6.2336,6.2324,6.2018,6.1924,6.1614,6.082,6.049,6.0275,6.0109,5.9778,6.0092,6.0636,6.1127,6.2848,6.4267,6.5094,6.7891,6.9659,7.0182,7.2104,7.3322,7.3597,7.3145,7.2834,7.2406,7.0946,7.0236,7.0166,6.9991,6.9849,6.9695,6.9442,6.9608,6.9736,7.0043,7.0644,7.1294,7.1804,7.2289,7.2545,7.2298,7.1502,7.0045,6.8211,6.6002,6.2845,6.0238,5.8484,5.7998,5.8184,5.7853,5.7285,5.6805,5.6183,5.5883,5.5197,5.4581,5.3576,5.2293,5.0327,4.7525,4.524,4.3742,4.2367,4.1396,4.1071,4.1077,4.0852,4.0576,4.09,4.143,4.2571,4.3746,4.5223,4.5678,4.5667,4.5695,4.5698,5.0743,5.2439,5.331,5.4487,5.537,5.4807,5.4665,5.4808,5.5127,5.6432,5.8418,5.9728,6.0117,6.0256,6.0183,5.9853,5.8831,5.8576,5.8075,5.7944,5.7456,5.7627,5.8049,5.8379,5.8881,5.914,5.959,6.0302,6.069,6.1613,6.2121,6.2619,6.3344,6.3768,6.3776,6.3701,6.3627,6.3687,6.3337,6.2892,6.3015,6.2466,6.2049,6.1896,6.198,6.1616,6.0804,6.1235,6.135,6.1475,6.3165,6.4281,6.5345,6.7974,6.9761,7.0588,7.2267,7.3826,7.397,7.3756,7.3011,7.2264,7.1268,7.0203,6.992,6.9813,6.9915,7.0191,7.0082,7.0459,7.1301,7.1347,7.185,7.2826,7.3404,7.4,7.4254,7.3592,7.2695,7.0698,6.8778,6.4007,6.0249,5.7279,5.5394,5.4388,5.44,5.4967,5.4601,5.4351,5.3956,5.3898,5.3563,5.3132,5.2295,5.0599,4.8611,4.5903,4.3579,4.1764,4.0428,3.9228,3.8804,3.8873,3.8432,3.8041,3.8783,3.947,4.0263,4.1398,4.3067,4.4557,4.4899,4.502,4.5216,5.1447,5.2788,5.3497,5.4577,5.555,5.5422,5.5781,5.67,5.7843,5.9021,5.9792,6.0186,6.0259,6.0285,6.0212,6.007,5.9078,5.8673,5.8639,5.872,5.8404,5.8407,5.8779,5.9526,5.9622,5.9767,6.0361,6.1111,6.1194,6.1909,6.2678,6.3482,6.3936,6.4619,6.48,6.4573,6.4151,6.4146,6.3829,6.3631,6.3551,6.3266,6.2913,6.3007,6.2954,6.2808,6.2345,6.2215,6.2266,6.2345,6.3026,6.4262,6.5617,6.7305,6.9447,7.073,7.244,7.3956,7.4421,7.3541,7.2868,7.2584,7.0984,7.0026,6.9742,6.967,7.0053,7.0402,7.0648,7.1533,7.2423,7.2431,7.344,7.4434,7.4877,7.5434,7.4977,7.4323,7.3175,7.1223,6.852,6.3314,5.7679,5.4387,5.1801,5.1122,5.05,5.1094,5.1697,5.1594,5.146,5.1597,5.141,5.0788,4.9963,4.8697,4.6551,4.4182,4.2317,4.0513,3.8741,3.765,3.7124,3.6692,3.6586,3.6612,3.7007,3.7714,3.8823,4.0011,4.1323,4.2678,4.3823,4.4316,4.4597,5.1661,5.2345,5.3615,5.4609,5.5303,5.626,5.7524,5.9202,6.0866,6.0948,5.9807,6.1288,6.0807,5.9527,5.951,5.9606,5.938,5.8654,5.8718,5.857,5.8315,5.8523,5.9009,5.9551,6.0172,6.0927,6.1568,6.1735,6.1896,6.2499,6.3452,6.43,6.4662,6.5138,6.5093,6.482,6.4556,6.4689,6.4404,6.4271,6.4236,6.3866,6.3557,6.3583,6.3583,6.3219,6.2842,6.268,6.2432,6.2479,6.2858,6.4017,6.5255,6.669,6.8567,7.0753,7.3028,7.4139,7.4673,7.3612,7.2797,7.2406,7.0805,7.0096,6.9813,6.974,7.0162,7.0799,7.1261,7.2292,7.3183,7.4185,7.5175,7.5715,7.6069,7.5994,7.5463,7.4523,7.3323,7.1398,6.896,6.4103,5.709,5.2845,4.9247,4.7677,4.7008,4.654,4.7292,4.845,4.8492,4.905,4.8816,4.8327,4.7523,4.6751,4.5371,4.3315,4.1639,3.9771,3.7938,3.6442,3.6075,3.5713,3.5209,3.53,3.6178,3.6877,3.7653,3.8868,4.0078,4.1528,4.286,4.3654,4.4073,5.2283,5.3101,5.3707,5.4871,5.6491,5.9024,6.0997,6.2204,6.2822,6.2276,6.1415,6.085,6.0244,5.9233,5.908,5.8983,5.898,5.8823,5.9012,5.8867,5.8484,5.9131,5.9742,6.0402,6.0902,6.1346,6.189,6.2279,6.2487,6.3034,6.377,6.461,6.4793,6.5066,6.5171,6.5138,6.5287,6.5225,6.4805,6.4905,6.4834,6.4527,6.4332,6.441,6.4509,6.4112,6.3736,6.3881,6.3568,6.2881,6.3694,6.464,6.4937,6.6724,6.8807,7.2509,7.4141,7.4984,7.5241,7.3854,7.272,7.2263,7.0733,6.9917,6.9777,6.9989,7.0448,7.1302,7.2442,7.3653,7.5173,7.64,7.726,7.775,7.8134,7.8131,7.7517,7.6207,7.4756,7.1274,6.8819,6.3226,5.6305,5.0732,4.7316,4.5123,4.3609,4.305,4.3197,4.4541,4.5435,4.6094,4.6228,4.5746,4.5832,4.5293,4.398,4.251,4.0785,3.9078,3.7273,3.5978,3.5395,3.5002,3.464,3.4956,3.5621,3.6253,3.6688,3.7738,3.8971,4.0492,4.1788,4.265,4.3399,5.2482,5.3203,5.3528,5.5262,5.783,6.0435,6.2344,6.3496,6.381,6.3222,6.2108,6.1048,6.002,5.9164,5.8829,5.8829,5.8927,5.8896,5.8984,5.8547,5.8799,5.9073,5.9887,6.0635,6.1327,6.1903,6.2545,6.2996,6.3246,6.3517,6.4053,6.4426,6.4426,6.4669,6.491,6.5057,6.5147,6.5249,6.5238,6.5359,6.5238,6.5083,6.5105,6.5293,6.5392,6.5116,6.4673,6.5006,6.4472,6.3616,6.4349,6.4864,6.5629,6.7535,6.9291,7.2634,7.4326,7.4921,7.5059,7.3956,7.3074,7.219,7.0804,7.0273,7.0273,7.0557,7.1375,7.2264,7.3748,7.5284,7.7034,7.866,7.9336,8.0046,8.0391,8.0728,7.9636,7.8339,7.5228,7.1471,6.6839,6.1477,5.5668,4.989,4.5431,4.3334,4.1433,4.0176,4.0457,4.1519,4.2344,4.2967,4.3123,4.3043,4.3213,4.317,4.2038,4.0886,3.9898,3.8256,3.6573,3.5531,3.4785,3.455,3.4237,3.4622,3.5096,3.5209,3.5655,3.6766,3.7987,3.9503,4.0886,4.1904,4.259,5.2502,5.2889,5.3418,5.5593,5.8797,6.0428,6.1982,6.356,6.3875,6.3379,6.194,6.1288,6.0174,5.8997,5.8578,5.8704,5.8746,5.8828,5.8664,5.7888,5.8194,5.8726,5.9413,5.9704,6.1286,6.284,6.3558,6.335,6.4211,6.4256,6.402,6.4268,6.4262,6.4381,6.444,6.444,6.4564,6.491,6.5057,6.5237,6.5448,6.5336,6.5189,6.5425,6.5537,6.5513,6.51,6.5024,6.5127,6.4705,6.4701,6.5135,6.6425,6.8554,7.0451,7.2031,7.4001,7.4808,7.4759,7.384,7.3032,7.208,7.0947,7.0842,7.0983,7.141,7.2192,7.4356,7.601,7.7928,7.9755,8.1574,8.2633,8.268,8.2693,8.2196,8.0871,7.8631,7.4839,7.0829,6.5924,6.0497,5.4726,4.902,4.4701,4.2112,3.9981,3.8355,3.7877,3.872,3.9177,3.9802,3.981,3.9969,4.0204,4.0118,3.9702,3.8968,3.8532,3.7712,3.6251,3.5198,3.427,3.4148,3.4135,3.4121,3.4375,3.4438,3.4812,3.5898,3.7125,3.8621,3.9817,4.1026,4.1922,5.2763,5.3418,5.4252,5.5816,5.7466,5.9127,6.0483,6.1586,6.2214,6.2052,6.1329,6.0818,5.9745,5.8391,5.8099,5.8198,5.8396,5.8411,5.8485,5.8143,5.8137,5.8466,5.961,5.9976,6.1308,6.2236,6.3013,6.3571,6.3967,6.3962,6.3728,6.3492,6.3518,6.3427,6.361,6.361,6.3897,6.4414,6.4447,6.4786,6.5189,6.5279,6.5189,6.5425,6.5537,6.5713,6.5621,6.588,6.5682,6.5345,6.5159,6.5372,6.5948,6.876,7.0614,7.192,7.3682,7.4562,7.4589,7.3864,7.3023,7.225,7.1546,7.1692,7.1872,7.2335,7.3823,7.6373,7.8683,8.0681,8.2478,8.4372,8.5693,8.5312,8.4764,8.3411,8.1969,7.8166,7.4381,6.9789,6.5002,5.955,5.3811,4.9012,4.4631,4.1604,3.933,3.7505,3.6161,3.6182,3.6126,3.6504,3.6429,3.6566,3.7053,3.7755,3.7813,3.7946,3.7828,3.6897,3.5953,3.5249,3.4525,3.4149,3.4081,3.3882,3.3694,3.3649,3.4199,3.5136,3.6443,3.7945,3.8951,4.0129,4.113,5.3197,5.3553,5.3948,5.477,5.5908,5.723,5.8695,5.9995,6.0973,6.1024,6.0567,6.0207,5.9469,5.8173,5.7825,5.7688,5.7961,5.7661,5.7617,5.7603,5.7847,5.8147,5.8997,5.9956,6.1475,6.2456,6.3214,6.3742,6.357,6.3145,6.2755,6.2652,6.2528,6.2496,6.262,6.2744,6.3069,6.3779,6.3752,6.4099,6.4695,6.4885,6.5008,6.5246,6.5603,6.578,6.6042,6.6302,6.6186,6.5968,6.5884,6.6289,6.7112,6.8925,7.0506,7.1884,7.3287,7.4555,7.4192,7.3685,7.2964,7.2337,7.2356,7.2611,7.4541,7.5298,7.7047,7.9573,8.2449,8.453,8.5643,8.7307,8.7801,8.7721,8.6319,8.4841,8.1687,7.7718,7.3667,6.9349,6.4453,5.9348,5.3943,4.9195,4.5192,4.2495,4.0026,3.7522,3.5959,3.425,3.3975,3.3817,3.4054,3.4307,3.4927,3.5782,3.6427,3.6674,3.7118,3.7025,3.6463,3.5593,3.4894,3.4603,3.4098,3.327,3.3121,3.3046,3.3568,3.4469,3.5897,3.7389,3.8338,3.9226,4.0354,5.3331,5.3204,5.2767,5.3155,5.4075,5.5355,5.6842,5.8498,5.9854,6.0183,5.9752,5.9369,5.9139,5.8537,5.7731,5.7798,5.7624,5.7157,5.6886,5.7042,5.6999,5.7657,5.8467,5.9267,6.0936,6.2205,6.2972,6.3095,6.2885,6.2464,6.2048,6.1757,6.1692,6.175,6.175,6.1847,6.2198,6.275,6.3042,6.3334,6.3877,6.4485,6.4793,6.5189,6.5514,6.5867,6.6129,6.6302,6.6421,6.6473,6.6372,6.6829,6.754,6.8929,7.0016,7.1463,7.297,7.36,7.3473,7.3367,7.2948,7.2827,7.3335,7.4598,7.6498,7.8777,8.0585,8.3386,8.6222,8.7935,8.9092,8.9925,9.0279,8.9152,8.7503,8.5281,8.1194,7.7226,7.3137,6.8878,6.3891,5.8897,5.4422,4.9648,4.6435,4.3699,4.105,3.8546,3.6262,3.438,3.3211,3.2782,3.2707,3.2908,3.3152,3.4259,3.5372,3.6004,3.6493,3.6862,3.7024,3.6243,3.5494,3.5077,3.4495,3.3266,3.2587,3.2515,3.3122,3.3795,3.5186,3.6488,3.7692,3.8655,3.9692,5.2313,5.1632,5.1492,5.1845,5.2486,5.3778,5.5268,5.6834,5.8333,5.9122,5.9307,5.8289,5.7785,5.7752,5.6766,5.6497,5.678,5.6394,5.6554,5.6837,5.6592,5.7283,5.8202,5.9105,6.0321,6.1294,6.1822,6.1688,6.1892,6.1789,6.1556,6.128,6.1247,6.1336,6.1513,6.1522,6.1573,6.2003,6.2204,6.2372,6.3269,6.3969,6.4761,6.5189,6.5514,6.578,6.5955,6.6302,6.6421,6.6507,6.644,6.6711,6.7506,6.8456,6.9509,7.0667,7.2257,7.2838,7.2901,7.2788,7.2592,7.3345,7.4132,7.6076,7.8638,8.2084,8.4588,8.8135,9.0514,9.1576,9.2586,9.3426,9.3618,9.0001,8.7551,8.4117,8.0386,7.6817,7.3108,6.8348,6.3279,5.9015,5.5051,5.1055,4.7954,4.5169,4.2341,3.9754,3.6963,3.4836,3.2768,3.218,3.1783,3.1628,3.2014,3.3592,3.4676,3.5315,3.6092,3.693,3.7312,3.6773,3.6257,3.5819,3.4414,3.3054,3.251,3.2063,3.2348,3.3074,3.441,3.5704,3.6871,3.7986,3.9023]}]]